[[{"header":{"parameterUnit":"m.s-1","parameterCategory":1,"la1":31.0,"la2":29.5877,"lo1":-88.7671,"lo2":-86.6584,"dy":0.0162,"dx":0.0185,"nx":115,"ny":88,"refTime":"2024-10-10T18:00:00:Z","depth":0,"parameterNumber":2,"parameterNumberName":"U-component_of_WINDS"},"data":[0.0,0.0,0.0,0.0,0.0,0.0,0.0,0.0,0.0,0.0,0.0,0.0,0.0,0.0,0.0,0.0,0.0,0.0,0.0,0.0,0.0,0.0,0.0,0.0,0.0,0.0,0.0,0.0,0.0,0.0,0.0,0.0,0.0,0.0,0.0,0.0,0.0,0.0,0.0,0.0,0.0,0.0,0.0,0.0,0.0,0.0,0.0,0.0,0.0,0.0,0.0,0.0,0.0,0.0,0.0,0.0,0.0,0.0,0.0,0.0,0.0,0.0,0.0,0.0,0.0,0.0,0.0,0.0,0.0,0.0,0.0,0.0,0.0,0.0,0.0,0.0,0.0,0.0,0.0,0.0,0.0,0.0,0.0,0.0,0.0,0.0,0.0,0.0,0.0,0.0,0.0,0.0,0.0,0.0,0.0,0.0,0.0,0.0,0.0,0.0,0.0,0.0,0.0,0.0,0.0,0.0,0.0,0.0,0.0,0.0,0.0,0.0,0.0,0.0,0.0,0.0,0.0,0.0,0.0,0.0,0.0,0.0,0.0,0.0,0.0,0.0,0.0,0.0,0.0,0.0,0.0,0.0,0.0,0.0,0.0,0.0,0.0,0.0,0.0,0.0,0.0,0.0,0.0,0.0,0.0,0.0,0.0,0.0,0.0,0.0,0.0,0.0,0.0,0.0,0.0,0.0,0.0,0.0,0.0,0.0,0.0,0.0,0.0,0.0,0.0,0.0,0.0,0.0,0.0,0.0,0.0,0.0,0.0,0.0,0.0,0.0,0.0,0.0,0.0,0.0,0.0,0.0,0.0,0.0,0.0,0.0,0.0,0.0,0.0,0.0,0.0,0.0,0.0,0.0,0.0,0.0,0.0,0.0,0.0,0.0,0.0,0.0,0.0,0.0,0.0,0.0,0.0,0.0,0.0,0.0,0.0,0.0,0.0,0.0,0.0,0.0,0.0,0.0,0.0,0.0,0.0,0.0,0.0,0.0,0.0,0.0,0.0,0.0,0.0,0.0,0.0,0.0,0.0,0.0,0.0,0.0,0.0,0.0,0.0,0.0,0.0,0.0,0.0,0.0,0.0,0.0,0.0,0.0,0.0,0.0,0.0,0.0,0.0,0.0,0.0,0.0,0.0,0.0,0.0,0.0,0.0,0.0,0.0,0.0,0.0,0.0,0.0,0.0,0.0,0.0,0.0,0.0,0.0,0.0,0.0,0.0,0.0,0.0,0.0,0.0,0.0,0.0,0.0,0.0,0.0,0.0,0.0,0.0,0.0,0.0,0.0,0.0,0.0,0.0,0.0,0.0,0.0,0.0,0.0,0.0,0.0,0.0,0.0,0.0,0.0,0.0,0.0,0.0,0.0,0.0,0.0,0.0,0.0,0.0,0.0,0.0,0.0,0.0,0.0,0.0,0.0,0.0,0.0,0.0,0.0,0.0,0.0,0.0,0.0,0.0,0.0,0.0,0.0,0.0,0.0,0.0,0.0,0.0,0.0,0.0,0.0,0.0,0.0,0.0,0.0,0.0,0.0,0.0,0.0,0.0,0.0,0.0,0.0,0.0,0.0,0.0,0.0,0.0,0.0,0.0,0.0,0.0,0.0,0.0,0.0,0.0,0.0,0.0,0.0,0.0,0.0,0.0,0.0,0.0,0.0,0.0,0.0,0.0,0.0,0.0,0.0,0.0,0.0,0.0,0.0,0.0,0.0,0.0,0.0,0.0,0.0,0.0,0.0,0.0,0.0,0.0,0.0,0.0,0.0,0.0,0.0,0.0,0.0,0.0,0.0,0.0,0.0,0.0,0.0,0.0,0.0,0.0,0.0,0.0,0.0,0.0,0.0,0.0,0.0,0.0,0.0,0.0,0.0,0.0,0.0,0.0,0.0,0.0,0.0,0.0,0.0,0.0,0.0,0.0,0.0,0.0,0.0,0.0,0.0,0.0,0.0,0.0,0.0,0.0,0.0,0.0,0.0,0.0,0.0,0.0,0.0,0.0,0.0,0.0,0.0,0.0,0.0,0.0,0.0,0.0,0.0,0.0,0.0,0.0,0.0,0.0,0.0,0.0,0.0,0.0,0.0,0.0,0.0,0.0,0.0,0.0,0.0,0.0,0.0,0.0,0.0,0.0,0.0,0.0,0.0,0.0,0.0,0.0,0.0,0.0,0.0,0.0,0.0,0.0,0.0,0.0,0.0,0.0,0.0,0.0,0.0,0.0,0.0,0.0,0.0,0.0,0.0,0.0,0.0,0.0,0.0,0.0,0.0,0.0,0.0,0.0,0.0,0.0,0.0,0.0,0.0,0.0,0.0,0.0,0.0,0.0,0.0,0.0,0.0,0.0,0.0,0.0,0.0,0.0,0.0,0.0,0.0,0.0,0.0,0.0,0.0,0.0,0.0,0.0,0.0,0.0,0.0,0.0,0.0,0.0,0.0,0.0,0.0,0.0,0.0,0.0,0.0,0.0,0.0,0.0,0.0,0.0,0.0,0.0,0.0,0.0,0.0,0.0,0.0,0.0,0.0,0.0,0.0,0.0,0.0,0.0,0.0,0.0,0.0,0.0,0.0,0.0,0.0,0.0,0.0,0.0,0.0,0.0,0.0,0.0,0.0,0.0,0.0,0.0,0.0,0.0,0.0,0.0,0.0,0.0,0.0,0.0,0.0,0.0,0.0,0.0,0.0,0.0,0.0,0.0,0.0,0.0,0.0,0.0,0.0,0.0,0.0,0.0,0.0,0.0,0.0,0.0,0.0,0.0,0.0,0.0,0.0,0.0,0.0,0.0,0.0,0.0,0.0,0.0,0.0,0.0,0.0,0.0,0.0,0.0,0.0,0.0,0.0,0.0,0.0,0.0,0.0,0.0,0.0,0.0,0.0,0.0,0.0,0.0,0.0,0.0,0.0,0.0,0.0,0.0,0.0,0.0,0.0,0.0,0.0,0.0,0.0,0.0,0.0,0.0,0.0,0.0,0.0,0.0,0.0,0.0,0.0,0.0,0.0,0.0,0.0,0.0,0.0,0.0,0.0,0.0,0.0,0.0,0.0,0.0,0.0,0.0,0.0,0.0,0.0,0.0,0.0,0.0,0.0,0.0,0.0,0.0,0.0,0.0,0.0,0.0,0.0,0.0,0.0,0.0,0.0,0.0,0.0,0.0,0.0,0.0,0.0,0.0,0.0,0.0,0.0,0.0,0.0,0.0,0.0,0.0,0.0,0.0,0.0,0.0,0.0,0.0,0.0,0.0,0.0,0.0,0.0,0.0,0.0,0.0,0.0,0.0,0.0,0.0,0.0,0.0,0.0,0.0,0.0,0.0,0.0,0.0,0.0,0.0,0.0,0.0,0.0,0.0,0.0,0.0,0.0,0.0,0.0,0.0,0.0,0.0,0.0,0.0,0.0,0.0,0.0,0.0,0.0,0.0,0.0,0.0,0.0,0.0,0.0,0.0,0.0,0.0,0.0,0.0,0.0,0.0,0.0,0.0,0.0,0.0,0.0,0.0,0.0,0.0,0.0,0.0,0.0,0.0,0.0,0.0,0.0,0.0,0.0,0.0,0.0,0.0,0.0,0.0,0.0,0.0,0.0,0.0,0.0,0.0,0.0,0.0,0.0,0.0,0.0,0.0,0.0,0.0,0.0,0.0,0.0,0.0,0.0,0.0,0.0,0.0,0.0,0.0,0.0,0.0,0.0,0.0,0.0,0.0,0.0,0.0,0.0,0.0,0.0,0.0,0.0,0.0,0.0,0.0,0.0,0.0,0.0,0.0,0.0,0.0,0.0,0.0,0.0,0.0,0.0,0.0,0.0,0.0,0.0,0.0,0.0,0.0,0.0,0.0,0.0,0.0,0.0,0.0,0.0,0.0,0.0,0.0,0.0,0.0,0.0,0.0,0.0,0.0,0.0,0.0,0.0,0.0,0.0,0.0,0.0,0.0,0.0,0.0,0.0,0.0,0.0,0.0,0.0,0.0,0.0,0.0,0.0,0.0,0.0,0.0,0.0,0.0,0.0,0.0,0.0,0.0,0.0,0.0,0.0,0.0,0.0,0.0,0.0,0.0,0.0,0.0,0.0,0.0,0.0,0.0,0.0,0.0,0.0,0.0,0.0,0.0,0.0,0.0,0.0,0.0,0.0,0.0,0.0,0.0,0.0,0.0,0.0,0.0,0.0,0.0,0.0,0.0,0.0,0.0,0.0,0.0,0.0,0.0,0.0,0.0,0.0,0.0,0.0,0.0,0.0,0.0,0.0,0.0,0.0,0.0,0.0,0.0,0.6197,0.0,0.0,0.0,0.0,0.0,0.0,0.0,0.0,0.0,0.0,0.0,0.0,0.0,0.0,0.0,0.0,0.0,0.0,0.0,0.0,0.0,0.0,0.0,0.0,0.0,0.0,0.0,0.0,0.0,0.0,0.0,0.0,0.0,0.0,0.0,0.0,0.0,0.0,0.0,0.0,0.0,0.0,0.0,0.0,0.0,0.0,0.0,0.0,0.0,0.0,0.0,0.0,0.0,0.0,0.0,0.0,0.0,0.0,0.0,0.0,0.0,0.0,0.0,0.0,0.0,0.0,0.0,0.0,0.0,0.0,0.0,0.0,0.0,0.0,0.0,0.0,0.0,0.0,0.0,0.0,0.0,0.0,0.0,0.0,0.0,0.0,0.0,0.0,0.0,0.0,0.0,0.0,0.0,0.0,0.0,0.0,0.0,0.0,0.0,0.0,0.0,0.0,0.0,0.0,0.0,0.0,0.0,0.0,0.0,0.0,0.714,0.7187,0.6499,0.6221,0.6451,0.0,0.0,0.0,0.0,0.0,0.0,0.0,0.0,0.0,0.0,0.0,0.0,0.0,0.0,0.0,0.0,0.0,0.0,0.0,0.0,0.0,0.0,0.0,0.0,0.0,0.0,0.0,0.0,0.0,0.0,0.0,0.0,0.0,0.0,0.0,0.0,0.0,0.0,0.0,0.0,0.0,0.0,0.0,0.0,0.0,0.0,0.0,0.0,0.0,0.0,0.0,0.0,0.0,0.0,0.0,0.0,0.0,0.0,0.0,0.0,0.0,0.0,0.0,0.0,0.0,0.0,0.0,0.0,0.0,0.0,0.0,0.0,0.0,0.0,0.0,0.0,0.0,0.0,0.0,0.0,0.0,0.0,0.0,0.0,0.0,0.0,0.0,0.0,0.0,0.0,0.0,0.0,0.0,0.0,0.0,0.0,0.0,0.0,0.0,0.0,0.0,0.0,0.0,0.0,0.0,0.0,0.0,0.0,0.0,0.0,0.0,0.0,0.6683,0.6383,0.6524,0.0,0.0,0.0,0.0,0.0,0.0,0.0,0.0,0.0,0.0,0.0,0.0,0.0,0.0,0.0,0.0,0.0,0.0,0.0,0.0,0.0,0.0,0.0,0.0,0.0,0.0,0.0,0.0,0.0,0.0,0.0,0.0,0.0,0.0,0.0,0.0,0.0,0.0,0.0,0.0,0.0,0.0,0.0,0.0,0.0,0.0,0.0,0.0,0.0,0.0,0.0,0.0,0.0,0.0,0.0,0.0,0.0,0.0,0.0,0.0,0.0,0.0,0.0,0.0,0.0,0.0,0.0,0.0,0.0,0.0,0.0,0.0,0.0,0.0,0.0,0.0,0.0,0.0,0.0,0.0,0.0,0.0,0.0,0.0,0.0,0.0,0.0,0.0,0.0,0.0,0.0,0.0,0.0,0.0,0.0,0.0,0.0,0.0,0.0,0.0,0.0,0.0,0.0,0.0,0.0,0.0,0.0,0.0,0.0,0.0,0.7747,0.7563,0.6972,0.0,0.6085,0.0,0.0,0.0,0.0,0.0,0.0,0.0,0.0,0.0,0.0,0.0,0.0,0.0,0.0,0.0,0.0,0.0,0.0,0.0,0.0,0.0,0.0,0.0,0.0,0.0,0.0,0.0,0.0,0.0,0.0,0.0,0.0,0.0,0.0,0.0,0.0,0.0,0.0,0.0,0.0,0.0,0.0,0.0,0.0,0.0,0.0,0.0,0.0,0.0,0.0,0.0,0.0,0.0,0.0,0.0,0.0,0.0,0.0,0.0,0.0,0.0,0.0,0.0,0.0,0.0,0.0,0.0,0.0,0.0,0.0,0.0,0.0,0.0,0.0,0.0,0.0,0.0,0.0,0.0,0.0,0.0,0.0,0.0,0.0,0.0,0.0,0.0,0.0,0.0,0.0,0.0,0.0,0.0,0.0,0.0,0.0,0.0,0.0,0.0,0.0,0.0,0.0,0.0,0.0,0.0,0.0,0.0,0.0,0.0,0.0,0.8374,0.8032,0.7426,0.6982,0.0,0.0,0.0,0.0,0.0,0.0,0.0,0.0,0.0,0.0,0.0,0.0,0.0,0.0,0.0,0.0,0.0,0.0,0.0,0.0,0.0,0.0,0.0,0.0,0.0,0.0,0.0,0.0,0.0,0.0,0.0,0.0,0.0,0.0,0.0,0.0,0.0,0.0,0.0,0.0,0.0,0.0,0.0,0.0,0.0,0.0,0.0,0.0,0.0,0.0,0.0,0.0,0.0,0.0,0.0,0.0,0.0,0.0,0.0,0.0,0.0,0.0,0.0,0.0,0.0,0.0,0.0,0.0,0.0,0.0,0.0,0.0,0.0,0.0,0.0,0.0,0.0,0.0,0.0,0.0,0.0,0.0,0.0,0.0,0.0,0.0,0.0,0.0,0.0,0.0,0.0,0.0,0.0,0.0,0.0,0.0,0.0,0.0,0.0,0.0,0.0,0.0,0.0,0.0,0.0,0.0,0.0,0.0,0.0,0.0,0.8764,0.8488,0.8,0.7689,0.7359,0.7004,0.0,0.0,0.0,0.0,0.0,0.0,0.0,0.0,0.0,0.0,0.0,0.0,0.0,0.0,0.0,0.0,0.0,0.0,0.0,0.0,0.0,0.0,0.0,0.0,0.0,0.0,0.0,0.0,0.0,0.0,0.0,0.0,0.0,0.0,0.0,0.0,0.0,0.0,0.0,0.0,0.0,0.0,0.0,0.0,0.0,0.0,0.0,0.0,0.0,0.0,0.0,0.0,0.0,0.0,0.0,0.0,0.0,0.0,0.0,0.0,0.0,0.0,0.0,0.0,0.0,0.0,0.0,0.0,0.0,0.0,0.0,0.0,0.0,0.0,0.0,0.0,0.0,0.0,0.0,0.0,0.0,0.0,0.0,0.0,0.0,0.0,0.0,0.0,0.0,0.0,0.0,0.0,0.0,0.0,0.0,0.0,0.0,0.0,0.0,0.0,0.0,0.0,0.0,0.0,0.0,0.0,0.0,0.0,0.0,0.8,0.7772,0.7229,0.7614,0.752,0.0,0.0,0.0,0.0,0.0,0.0,0.0,0.0,0.0,0.0,0.0,0.0,0.0,0.0,0.0,0.0,0.0,0.0,0.0,0.0,0.0,0.0,0.0,0.0,0.0,0.0,0.0,0.0,0.0,0.0,0.0,0.0,0.0,0.0,0.0,0.0,0.0,0.0,0.0,0.0,0.0,0.0,0.0,0.0,0.0,0.0,0.0,0.0,0.0,0.0,0.0,0.0,0.0,0.0,0.0,0.0,0.0,0.0,0.0,0.0,0.0,0.0,0.0,0.0,0.0,0.0,0.0,0.0,0.0,0.0,0.0,0.0,0.0,0.0,0.0,0.0,0.0,0.0,0.0,0.0,0.0,0.0,0.0,0.0,0.0,0.0,0.0,0.0,0.0,0.0,0.0,0.0,0.0,0.0,0.0,0.0,0.0,0.0,0.0,0.0,0.0,0.0,0.0,0.0,0.0,0.0,0.0,0.0,0.0,0.9207,0.8468,0.806,0.8049,0.7598,0.7194,0.0,0.0,0.0,0.0,0.0,0.0,0.0,0.0,0.0,0.0,0.0,0.0,0.0,0.0,0.0,0.0,0.0,0.0,0.0,0.0,0.0,0.0,0.0,0.0,0.0,0.0,0.0,0.0,0.0,0.0,0.0,0.0,0.0,0.0,0.0,0.0,0.0,0.0,0.0,0.0,0.0,0.0,0.0,0.0,0.0,0.0,0.0,0.0,0.0,0.0,0.0,0.0,0.0,0.0,0.0,0.0,0.0,0.0,0.0,0.0,0.0,0.0,0.0,0.0,0.0,0.0,0.0,0.0,0.0,0.0,0.0,0.0,0.0,0.0,0.0,0.0,0.0,0.0,0.0,0.0,0.0,0.0,0.0,0.0,0.0,0.0,0.0,0.0,0.0,0.0,0.0,0.0,0.0,0.0,0.0,0.0,0.0,0.0,0.0,0.0,0.0,0.0,0.0,0.0,0.0,0.0,0.0,0.0,0.0,0.9494,0.0,0.8391,0.0,0.7799,0.7355,0.0,0.0,0.0,0.0,0.0,0.0,0.0,0.0,0.0,0.0,0.0,0.0,0.0,0.0,0.0,0.0,0.0,0.0,0.0,0.0,0.0,0.0,0.0,0.0,0.0,0.0,0.0,0.0,0.0,0.0,0.0,0.0,0.0,0.0,0.0,0.0,0.0,0.0,0.0,0.0,0.0,0.0,0.0,0.0,0.0,0.0,0.0,0.0,0.0,0.0,0.0,0.0,0.0,0.0,0.0,0.0,0.0,0.0,0.0,0.0,0.0,0.0,0.0,0.0,0.0,0.0,0.0,0.0,0.0,0.0,0.0,0.0,0.0,0.0,0.0,0.0,0.0,0.0,0.0,0.0,0.0,0.0,0.0,0.0,0.0,0.0,0.0,0.0,0.0,0.0,0.0,0.0,0.0,0.0,0.0,0.0,0.0,0.0,0.0,0.0,0.0,0.0,0.0,0.0,0.0,0.0,0.0,0.0,0.9149,0.8569,0.8696,0.8634,0.8409,0.8207,0.8017,0.0,0.0,0.0,0.0,0.0,0.0,0.0,0.0,0.0,0.0,0.0,0.0,0.0,0.0,0.0,0.0,0.0,0.0,0.0,0.0,0.0,0.0,0.0,0.0,0.0,0.0,0.0,0.0,0.0,0.0,0.0,0.0,0.0,0.0,0.0,0.0,0.0,0.0,0.0,0.0,0.0,0.0,0.0,0.0,0.0,0.0,0.0,0.0,0.0,0.0,0.0,0.0,0.0,0.0,0.0,0.0,0.0,0.0,0.0,0.0,0.0,0.0,0.0,0.0,0.0,0.0,0.0,0.0,0.0,0.0,0.0,0.0,0.0,0.0,0.0,0.0,0.0,0.0,0.0,0.0,0.0,0.0,0.0,0.0,0.0,0.0,0.0,0.0,0.0,0.0,0.0,0.0,0.0,0.0,0.0,0.0,0.0,0.0,0.0,0.0,0.0,0.0,0.0,0.0,0.0,0.0,0.0,0.0,0.0,0.9093,0.8662,0.8287,0.8006,0.7759,0.742,0.0,0.0,0.0,0.0,0.0,0.0,0.0,0.0,0.0,0.0,0.0,0.0,0.0,0.0,0.0,0.0,0.0,0.0,0.0,0.0,0.0,0.0,0.0,0.0,0.0,0.0,0.0,0.0,0.0,0.0,0.0,0.0,0.0,0.0,0.0,0.0,0.0,0.0,0.0,0.0,0.0,0.0,0.0,0.0,0.0,0.0,0.0,0.0,0.0,0.0,0.0,0.0,0.0,0.0,0.0,0.0,0.0,0.0,0.0,0.0,0.0,0.0,0.0,0.0,0.0,0.0,0.0,0.0,0.0,0.0,0.0,0.0,0.0,0.0,0.0,0.0,0.0,0.0,0.0,0.0,0.0,0.0,0.0,0.0,0.0,0.0,0.0,0.0,0.0,0.0,0.0,0.0,0.0,0.0,0.0,0.0,0.0,0.0,0.0,0.0,0.0,0.0,0.0,0.0,0.0,0.0,0.0,0.0,0.0,0.9592,0.9122,0.8767,0.8483,0.8178,0.7751,0.7166,0.0,0.0,0.0,0.0,0.0,0.0,0.0,0.0,0.0,0.0,0.0,0.0,0.0,0.0,0.0,0.0,0.0,0.0,0.0,0.0,0.0,0.0,0.0,0.0,0.0,0.0,0.0,0.0,0.0,0.0,0.0,0.0,0.0,0.0,0.0,0.0,0.0,0.0,0.0,0.0,0.0,0.0,0.0,0.0,0.0,0.0,0.0,0.0,0.0,0.0,0.0,0.0,0.0,0.0,0.0,0.0,0.0,0.0,0.0,0.0,0.0,0.0,0.0,0.0,0.0,0.0,0.0,0.0,0.0,0.0,0.0,0.0,0.0,0.0,0.0,0.0,0.0,0.0,0.0,0.0,0.0,0.0,0.0,0.0,0.0,0.0,0.0,0.0,0.0,0.0,0.0,0.0,0.0,0.0,0.0,0.0,0.0,0.0,0.0,0.0,0.0,0.0,0.0,0.0,0.0,0.0,0.0,0.0,1.004,0.995,0.9729,0.9505,0.9183,0.8755,0.0,0.0,0.0,0.0,0.0,0.0,0.0,0.0,0.0,0.0,0.0,0.0,0.0,0.0,0.0,0.0,0.0,0.0,0.0,0.0,0.0,0.0,0.0,0.0,0.0,0.0,0.0,0.0,0.0,0.0,0.0,0.0,0.0,0.0,0.0,0.0,0.0,0.0,0.0,0.0,0.0,0.0,0.0,0.0,0.0,0.0,0.0,0.0,0.0,0.0,0.0,0.0,0.0,0.0,0.0,0.0,0.0,0.0,0.0,0.0,0.0,0.0,0.0,0.0,0.0,0.0,0.0,0.0,0.0,0.0,0.0,0.0,0.0,0.0,0.0,0.0,0.0,0.0,0.0,0.0,0.0,0.0,0.0,0.0,0.0,0.0,0.0,0.0,0.0,0.0,0.0,0.0,0.0,0.0,0.0,0.0,0.0,0.0,0.0,0.0,0.0,0.0,0.0,0.0,0.0,0.0,0.0,0.0,0.0,1.0461,0.9948,0.9379,0.8748,0.8533,0.8036,0.0,0.0,0.0,0.0,0.0,0.0,0.0,0.0,0.0,0.0,0.0,0.0,0.0,0.0,0.0,0.0,0.0,0.0,0.0,0.0,0.0,0.0,0.0,0.0,0.0,0.0,0.0,0.0,0.0,0.0,0.0,0.0,0.0,0.0,0.0,0.0,0.0,0.0,0.0,0.0,0.0,0.0,0.0,0.0,0.0,0.0,0.0,0.0,0.0,0.0,0.0,0.0,0.0,0.0,0.0,0.0,0.0,0.0,0.0,0.0,0.0,0.0,0.0,0.0,0.0,0.0,0.0,0.0,0.0,0.0,0.0,0.0,0.0,0.0,0.0,0.0,0.0,0.0,0.0,0.0,0.0,0.0,0.0,0.0,0.0,0.0,0.0,0.0,0.0,0.0,0.0,0.0,0.0,0.0,0.0,0.0,0.0,0.0,0.0,0.0,0.0,0.0,0.0,0.0,0.0,0.0,0.0,0.0,1.1439,1.077,0.9877,0.9167,0.8649,0.8415,0.797,0.0,0.0,0.0,0.0,0.0,0.0,0.0,0.0,0.0,0.0,0.0,0.0,0.0,0.0,0.0,0.0,0.0,0.0,0.0,0.0,0.0,0.0,0.0,0.0,0.0,0.0,0.0,0.0,0.0,0.0,0.0,0.0,0.0,0.0,0.0,0.0,0.0,0.0,0.0,0.0,0.0,0.0,0.0,0.0,0.0,0.0,0.0,0.0,0.0,0.0,0.0,0.0,0.0,0.0,0.0,0.0,0.0,0.0,0.0,0.0,0.0,0.0,0.0,0.0,0.0,0.0,0.0,0.0,0.0,0.0,0.0,0.0,0.0,0.0,0.0,0.0,0.0,0.0,0.0,0.0,0.0,0.0,0.0,0.0,0.0,0.0,0.0,0.0,0.0,0.0,0.0,0.0,0.0,0.0,0.0,0.0,0.0,0.0,0.0,0.0,0.0,0.0,0.0,0.0,0.0,0.0,0.0,0.0,1.1528,1.1003,0.985,0.9178,0.9053,0.8571,0.8165,0.0,0.0,0.0,0.0,0.0,0.0,0.0,0.0,0.0,0.0,0.0,0.0,0.0,0.0,0.0,0.0,0.0,0.0,0.0,0.0,0.0,0.0,0.0,0.0,0.0,0.0,0.0,0.0,0.0,0.0,0.0,0.0,0.0,0.0,0.0,0.0,0.0,0.0,0.0,0.0,0.0,0.0,0.0,0.0,0.0,0.0,0.0,0.0,0.0,0.0,0.0,0.0,0.0,0.0,0.0,0.0,0.0,0.0,0.0,0.0,0.0,0.0,0.0,0.0,0.0,0.0,0.0,0.0,0.0,0.0,0.0,0.0,0.0,0.0,0.0,0.0,0.0,0.0,0.0,0.0,0.0,0.0,0.0,0.0,0.0,0.0,0.0,0.0,0.0,0.0,0.0,0.0,0.0,0.0,0.0,0.0,0.0,0.0,0.0,0.0,0.0,0.0,0.0,0.0,0.0,0.0,0.0,0.0,1.1905,1.1034,1.0031,0.9497,0.9473,0.8334,0.7608,0.0,0.0,0.0,0.0,0.0,0.0,0.0,0.0,0.0,0.0,0.0,0.0,0.0,0.0,0.0,0.0,0.0,0.0,0.0,0.0,0.0,0.0,0.0,0.0,0.0,0.0,0.0,0.0,0.0,0.0,0.0,0.0,0.0,0.0,0.0,0.0,0.0,0.0,0.0,0.0,0.0,0.0,0.0,0.0,0.0,0.0,0.0,0.0,1.151,0.0,0.0,0.0,0.0,0.0,0.0,0.0,0.0,0.0,0.0,0.0,0.0,0.0,0.0,0.0,0.0,0.0,0.0,0.0,0.0,0.0,0.0,0.0,0.0,0.0,0.0,0.0,0.0,0.0,0.0,0.0,0.0,0.0,0.0,0.0,0.0,0.0,0.0,0.0,0.0,0.0,0.0,0.0,0.0,0.0,0.0,0.0,0.0,0.0,0.0,0.0,0.0,0.0,0.0,0.0,0.0,0.0,0.0,0.0,1.1709,1.1144,1.0132,0.9602,0.955,0.8365,0.7728,0.0,0.0,0.0,0.0,0.0,0.0,0.0,0.0,0.0,0.0,0.0,0.0,0.0,0.0,0.0,0.0,0.0,0.0,0.0,0.0,0.0,0.0,0.0,0.0,0.0,0.0,0.0,0.0,0.0,0.0,0.0,0.0,0.0,0.0,0.0,0.0,0.0,0.0,0.0,0.0,0.0,0.0,0.0,0.0,0.0,0.0,0.0,0.0,0.0,0.0,0.0,0.0,0.0,0.0,0.0,0.0,0.0,0.0,0.0,0.0,0.0,0.0,0.0,0.0,0.0,0.0,0.0,0.0,0.0,0.0,0.0,0.0,0.0,0.0,0.0,0.0,0.0,0.0,0.0,0.0,0.0,0.0,0.0,0.0,0.0,0.0,0.0,0.0,0.0,0.0,0.0,0.0,0.0,0.0,0.0,0.0,0.0,0.0,0.0,0.0,0.0,0.0,0.0,0.0,0.0,0.0,0.0,1.1674,1.1507,1.1337,1.0318,0.973,0.967,0.8656,0.8188,0.8385,0.0,0.0,0.0,0.0,0.0,0.0,0.0,0.0,0.0,0.0,0.0,0.0,0.0,0.0,0.0,0.0,0.0,0.0,0.0,0.0,0.0,0.0,0.0,0.0,0.0,0.0,0.0,0.0,0.0,0.0,0.0,0.0,0.0,0.0,0.0,0.0,0.0,0.0,1.3811,1.3582,0.0,0.0,0.0,0.0,0.0,0.0,0.0,0.0,1.3177,0.0,0.0,0.0,0.0,0.0,0.0,0.0,0.0,0.0,0.0,0.0,0.0,0.0,0.0,0.0,0.0,0.0,0.0,0.0,0.0,0.0,0.0,0.0,0.0,0.0,0.0,0.0,0.0,0.0,0.0,0.0,0.0,0.0,0.0,0.0,0.0,0.0,0.0,0.0,0.0,0.0,0.0,0.0,0.0,0.0,0.0,0.0,0.0,0.0,0.0,0.0,0.0,0.0,0.0,0.0,0.0,1.2616,1.2421,1.2085,1.1618,1.0846,1.0333,1.0094,0.9429,0.8974,0.8781,0.0,0.0,0.0,0.0,0.0,0.0,0.0,0.0,0.0,0.0,0.0,0.0,0.0,0.0,0.0,0.0,0.0,0.0,0.0,0.0,0.0,0.0,0.0,0.0,0.0,0.0,0.0,0.0,0.0,0.0,0.0,0.0,0.0,0.0,0.0,0.0,0.0,0.0,0.0,1.3949,1.381,0.0,0.0,0.0,0.0,0.0,0.0,0.0,0.0,1.344,0.0,0.0,0.0,0.0,0.0,0.0,0.0,0.0,0.0,0.0,0.0,0.0,0.0,0.0,0.0,0.0,0.0,0.0,0.0,0.0,0.0,0.0,0.0,0.0,0.0,0.0,0.0,0.0,0.0,0.0,0.0,0.0,0.0,0.0,0.0,0.0,0.0,0.0,0.0,0.0,0.0,0.0,0.0,0.0,0.0,0.0,0.0,0.0,0.0,0.0,0.0,0.0,0.0,0.0,0.0,1.2774,1.2454,1.2113,1.1693,1.1122,1.0603,1.0218,0.9623,0.912,0.0,0.0,0.0,0.0,0.0,0.0,0.0,0.0,0.0,0.0,0.0,0.0,0.0,0.0,0.0,0.0,0.0,0.0,0.0,0.0,0.0,0.0,0.0,0.0,0.0,0.0,0.0,0.0,0.0,0.0,0.0,0.0,0.0,0.0,0.0,0.0,0.0,0.0,0.0,0.0,1.4179,1.4111,1.3791,0.0,0.0,0.0,0.0,0.0,0.0,1.4624,1.4484,0.0,0.0,0.0,0.0,0.0,0.0,0.0,0.0,0.0,0.0,0.0,0.0,0.0,0.0,0.0,0.0,0.0,0.0,0.0,0.0,0.0,0.0,0.0,0.0,0.0,0.0,0.0,0.0,0.0,0.0,0.0,0.0,0.0,0.0,0.0,0.0,0.0,0.0,0.0,0.0,0.0,0.0,0.0,0.0,0.0,0.0,0.0,0.0,0.0,0.0,0.0,0.0,0.0,0.0,0.0,1.2983,1.257,1.2189,1.1911,1.1509,1.098,1.034,0.9942,0.939,0.0,0.0,0.0,0.0,0.0,0.0,0.0,0.0,0.0,0.0,0.0,0.0,0.0,0.0,0.0,0.0,0.0,0.0,0.0,0.0,0.0,0.0,0.0,0.0,0.0,0.0,0.0,0.0,0.0,0.0,0.0,0.0,0.0,0.0,0.0,0.0,0.0,0.0,0.0,0.0,0.0,1.4397,1.4104,1.4196,0.0,0.0,0.0,0.0,1.5492,1.5492,0.0,0.0,0.0,0.0,0.0,0.0,0.0,0.0,0.0,0.0,0.0,0.0,0.0,0.0,0.0,0.0,0.0,0.0,0.0,0.0,0.0,0.0,0.0,0.0,0.0,0.0,0.0,0.0,0.0,0.0,0.0,0.0,0.0,0.0,0.0,0.0,0.0,0.0,0.0,0.0,0.0,0.0,0.0,0.0,0.0,0.0,0.0,0.0,0.0,0.0,0.0,0.0,0.0,0.0,0.0,0.0,1.3805,1.3338,1.2952,1.2669,1.2389,1.1756,1.0764,1.1007,1.0426,0.0,0.0,0.0,0.0,0.0,0.0,0.0,0.0,0.0,0.0,0.0,0.0,0.0,0.0,0.0,0.0,0.0,0.0,0.0,0.0,0.0,0.0,0.0,0.0,0.0,0.0,0.0,0.0,0.0,0.0,0.0,0.0,0.0,0.0,0.0,0.0,0.0,0.0,0.0,0.0,0.0,1.485,1.4643,1.477,1.4968,0.0,0.0,1.5788,1.6279,1.6116,0.0,0.0,0.0,0.0,0.0,0.0,0.0,0.0,0.0,0.0,0.0,0.0,0.0,0.0,0.0,0.0,0.0,0.0,0.0,0.0,0.0,0.0,0.0,0.0,0.0,0.0,0.0,0.0,0.0,0.0,0.0,0.0,0.0,0.0,0.0,0.0,0.0,0.0,0.0,0.0,0.0,0.0,0.0,0.0,0.0,0.0,0.0,0.0,0.0,0.0,0.0,0.0,0.0,0.0,0.0,1.3482,1.4196,1.3824,1.348,1.323,1.2559,1.1817,1.1043,1.0982,1.0361,0.0,0.0,0.0,0.0,0.0,0.0,0.0,0.0,0.0,0.0,0.0,0.0,0.0,0.0,0.0,0.0,0.0,0.0,0.0,0.0,0.0,0.0,0.0,0.0,0.0,0.0,0.0,0.0,0.0,0.0,0.0,0.0,0.0,0.0,0.0,0.0,0.0,0.0,0.0,0.0,0.0,0.0,1.5411,1.558,0.0,0.0,0.0,1.6669,1.6621,0.0,0.0,0.0,0.0,0.0,0.0,0.0,0.0,0.0,0.0,0.0,0.0,0.0,0.0,0.0,0.0,0.0,0.0,0.0,0.0,0.0,0.0,0.0,0.0,0.0,0.0,0.0,0.0,0.0,0.0,0.0,0.0,0.0,0.0,0.0,0.0,0.0,0.0,0.0,0.0,0.0,0.0,0.0,0.0,0.0,0.0,0.0,0.0,0.0,0.0,0.0,0.0,0.0,0.0,0.0,0.0,0.0,1.4501,1.4232,1.3992,1.3769,1.2752,1.1932,1.1326,1.0953,0.0,0.0,0.0,0.0,0.0,0.0,0.0,0.0,0.0,0.0,0.0,0.0,0.0,0.0,0.0,0.0,0.0,0.0,0.0,0.0,0.0,0.0,0.0,0.0,0.0,0.0,0.0,1.2643,0.0,0.0,0.0,0.0,0.0,0.0,0.0,0.0,0.0,0.0,0.0,0.0,0.0,0.0,1.5691,1.6196,1.6439,1.6694,0.0,0.0,1.7298,1.6957,1.7009,1.689,0.0,0.0,0.0,0.0,0.0,0.0,0.0,0.0,0.0,0.0,0.0,0.0,0.0,0.0,0.0,0.0,0.0,0.0,0.0,0.0,0.0,0.0,0.0,0.0,0.0,0.0,0.0,0.0,0.0,0.0,0.0,0.0,0.0,0.0,0.0,0.0,0.0,0.0,0.0,0.0,0.0,0.0,0.0,0.0,0.0,0.0,0.0,0.0,0.0,0.0,0.0,0.0,0.0,0.0,0.0,1.4844,1.4715,1.4517,1.4234,1.3282,1.2374,1.1585,1.1307,1.0725,0.0,0.0,0.0,0.0,0.0,0.0,0.0,0.0,0.0,0.0,0.0,0.0,0.0,0.0,0.0,0.0,0.0,0.0,0.0,0.0,0.0,0.0,0.0,0.0,0.0,0.0,0.0,0.0,0.0,0.0,0.0,0.0,0.0,0.0,0.0,0.0,0.0,0.0,0.0,0.0,0.0,1.6411,1.695,1.7299,1.7481,0.0,0.0,1.747,1.7446,1.7208,1.689,1.6536,0.0,0.0,0.0,0.0,0.0,0.0,0.0,0.0,0.0,0.0,0.0,0.0,0.0,0.0,0.0,0.0,0.0,0.0,0.0,0.0,0.0,0.0,0.0,0.0,0.0,0.0,0.0,0.0,0.0,0.0,0.0,0.0,0.0,0.0,0.0,0.0,0.0,0.0,0.0,0.0,0.0,0.0,0.0,0.0,0.0,0.0,0.0,0.0,0.0,0.0,0.0,0.0,0.0,1.4602,1.5141,1.5196,1.5074,1.4755,1.3342,1.2393,1.2102,1.1345,1.0738,0.0,0.0,0.0,0.0,0.0,0.0,0.0,0.0,0.0,0.0,0.0,0.0,0.0,0.0,0.0,0.0,0.0,0.0,0.0,0.0,0.0,0.0,0.0,0.0,0.0,0.0,0.0,0.0,1.3819,1.4107,1.5561,0.0,0.0,0.0,0.0,0.0,0.0,0.0,0.0,0.0,0.0,1.727,1.7544,1.7877,0.0,0.0,1.8046,1.7989,1.7839,1.7376,1.7032,1.6908,1.6753,0.0,0.0,0.0,0.0,0.0,0.0,0.0,0.0,0.0,0.0,0.0,0.0,0.0,0.0,0.0,0.0,0.0,0.0,0.0,0.0,0.0,0.0,0.0,0.0,0.0,0.0,0.0,0.0,0.0,0.0,0.0,0.0,0.0,0.0,0.0,0.0,0.0,0.0,0.0,0.0,0.0,0.0,0.0,0.0,0.0,0.0,0.0,0.0,0.0,0.0,0.0,0.0,1.4851,1.5221,1.5464,1.5487,1.5221,1.3442,1.2507,1.2475,1.1325,1.0746,0.0,0.0,0.0,0.0,0.0,0.0,0.0,0.0,0.0,0.0,0.0,0.0,0.0,0.0,0.0,0.0,0.0,0.0,0.0,0.0,0.0,0.0,0.0,0.0,0.0,0.0,0.0,0.0,1.4447,1.4698,1.6036,0.0,0.0,0.0,0.0,0.0,0.0,0.0,0.0,0.0,0.0,1.7928,1.8003,1.8309,1.8478,1.8304,1.828,1.8184,1.7923,1.7532,1.7233,1.7138,0.0,0.0,0.0,0.0,0.0,0.0,0.0,0.0,0.0,0.0,0.0,0.0,0.0,0.0,0.0,0.0,0.0,0.0,0.0,0.0,0.0,0.0,0.0,0.0,0.0,0.0,0.0,0.0,0.0,0.0,0.0,0.0,0.0,0.0,0.0,0.0,0.0,0.0,0.0,0.0,0.0,0.0,0.0,0.0,0.0,0.0,0.0,0.0,0.0,0.0,0.0,0.0,0.0,1.4986,1.5011,1.5593,1.5753,1.5461,1.3732,1.279,1.2769,1.1253,1.0779,1.1566,0.0,0.0,0.0,0.0,0.0,0.0,0.0,0.0,0.0,0.0,0.0,0.0,0.0,0.0,0.0,0.0,0.0,0.0,0.0,0.0,0.0,0.0,0.0,0.0,0.0,0.0,1.5846,1.6395,1.6705,0.0,0.0,0.0,0.0,0.0,0.0,0.0,0.0,0.0,0.0,1.8193,1.8306,1.832,1.8636,1.8678,1.8124,1.803,1.7951,1.7661,1.7608,1.7501,0.0,0.0,0.0,0.0,0.0,0.0,0.0,0.0,0.0,0.0,0.0,0.0,0.0,0.0,0.0,0.0,0.0,0.0,0.0,0.0,0.0,0.0,0.0,0.0,0.0,0.0,0.0,1.2309,1.2334,0.0,0.0,0.0,0.0,0.0,0.0,0.0,0.0,0.0,0.0,0.0,1.4301,1.4745,0.0,0.0,0.0,0.0,0.0,0.0,0.0,0.0,0.0,0.0,0.0,0.0,1.4801,1.5035,1.5591,1.5765,1.5473,1.4053,1.3197,1.3075,1.2158,1.2044,1.2844,0.0,0.0,0.0,0.0,0.0,0.0,0.0,0.0,0.0,0.0,0.0,0.0,0.0,0.0,0.0,0.0,0.0,0.0,0.0,0.0,0.0,0.0,0.0,0.0,0.0,1.5116,0.0,0.0,0.0,0.0,0.0,0.0,0.0,0.0,0.0,0.0,0.0,1.8081,1.8286,1.8883,1.9231,1.9061,1.9093,1.896,0.0,0.0,0.0,0.0,0.0,0.0,0.0,0.0,0.0,0.0,0.0,0.0,0.0,0.0,1.9876,2.0472,2.056,2.06,2.0739,0.0,0.0,0.0,0.0,0.0,0.0,0.0,0.0,0.0,0.0,0.0,0.0,0.0,0.0,0.0,0.0,1.302,0.0,0.0,0.0,0.0,0.0,0.0,0.0,0.0,1.4311,1.4539,1.4941,1.5319,1.5557,0.0,1.5607,1.5245,0.0,0.0,0.0,0.0,0.0,0.0,0.0,0.0,1.5171,1.5353,1.5986,1.6177,1.575,1.456,1.3856,1.3728,1.3248,1.3243,1.3758,1.4027,1.408,0.0,0.0,0.0,0.0,0.0,0.0,0.0,0.0,0.0,0.0,0.0,0.0,0.0,0.0,0.0,0.0,0.0,0.0,0.0,0.0,0.0,0.0,0.0,1.6262,0.0,0.0,0.0,0.0,0.0,0.0,0.0,0.0,0.0,1.7814,1.8414,1.8921,1.8883,1.951,1.9822,1.9459,0.0,0.0,0.0,0.0,0.0,0.0,0.0,1.8428,1.8349,1.8397,1.8531,1.8853,1.9466,1.9979,2.0058,0.0,0.0,2.0868,2.1088,2.1234,2.1263,2.1525,2.1757,2.1786,2.2724,2.3641,0.0,0.0,0.0,0.0,0.0,0.0,0.0,0.0,1.2571,1.269,0.0,1.2918,0.0,0.0,0.0,0.0,0.0,0.0,0.0,0.0,1.5169,1.5253,1.548,1.5483,1.5629,1.5874,1.5897,1.5923,1.5876,1.4813,0.0,0.0,0.0,0.0,0.0,0.0,1.5973,1.5951,1.6735,1.6895,1.6284,1.5296,1.4739,1.4717,1.4487,1.4336,1.4378,1.4642,1.4736,1.4627,1.3655,0.0,0.0,0.0,0.0,0.0,0.0,0.0,0.0,0.0,0.0,0.0,0.0,0.0,0.0,0.0,0.0,0.0,0.0,0.0,0.0,1.6912,0.0,0.0,0.0,0.0,0.0,0.0,0.0,0.0,0.0,0.0,1.9389,1.9341,1.945,1.978,0.0,0.0,0.0,0.0,1.9734,1.9457,1.9108,1.8949,1.9222,1.9291,1.9291,1.9214,0.0,0.0,1.9863,2.005,2.0201,1.992,2.0605,2.0931,2.0403,2.0648,2.0884,2.0884,2.1204,2.1522,2.2153,2.317,2.4089,1.0742,0.0,0.0,0.0,0.0,1.2617,1.297,1.3159,1.3352,1.3236,1.2908,1.3103,0.0,0.0,0.0,0.0,0.0,0.0,1.4774,1.5097,1.5106,1.5126,1.5214,1.5404,1.5648,1.5895,1.6069,1.6372,1.673,1.6062,1.5324,1.4607,0.0,0.0,0.0,0.0,1.6375,1.6567,1.6996,1.6993,1.6585,1.5864,1.5509,1.5553,1.5296,1.535,1.5714,1.5973,1.5882,1.5364,1.5131,0.0,0.0,0.0,0.0,0.0,0.0,0.0,0.0,0.0,0.0,0.0,0.0,0.0,0.0,0.0,0.0,0.0,0.0,0.0,1.678,1.7289,1.7896,0.0,0.0,0.0,0.0,0.0,0.0,0.0,0.0,0.0,2.0645,2.028,2.004,0.0,0.0,2.0536,2.0358,2.0188,2.0033,1.9987,0.0,0.0,0.0,1.9906,1.9923,1.9837,2.0208,2.0453,2.0375,2.0818,2.1181,2.1087,2.1416,2.1676,2.1558,2.1961,2.2386,2.2656,2.2803,2.3046,2.352,2.4719,2.5858,1.1502,1.1554,1.1707,1.209,1.265,1.2925,1.3064,1.3078,1.3012,1.2807,1.2602,1.2756,1.3235,1.3997,1.4679,0.0,0.0,0.0,1.554,1.5669,1.5709,1.5741,1.5753,1.591,1.6054,1.6223,1.6506,1.683,1.717,1.7024,1.6535,1.5706,0.0,0.0,1.608,1.673,1.715,1.7277,1.7553,1.75,1.7049,1.6602,1.6386,1.6397,1.635,1.6402,1.6514,1.6755,1.6523,1.5758,1.5794,1.5499,0.0,0.0,0.0,0.0,0.0,0.0,0.0,0.0,0.0,0.0,0.0,1.4252,1.4331,0.0,0.0,0.0,1.6058,1.6887,1.747,1.8027,0.0,0.0,0.0,0.0,0.0,0.0,0.0,2.0755,2.0825,2.0984,2.1321,2.1033,2.0848,2.0851,2.0902,2.0874,2.0876,0.0,2.0563,2.0561,2.0704,2.0771,2.0699,2.0693,2.0746,2.0851,2.1019,2.1135,2.118,2.1506,2.1756,2.1783,2.1964,2.2151,2.2151,2.281,2.336,2.3332,2.3814,2.4349,2.4657,2.6104,2.7296,1.2553,1.2887,1.2525,1.2707,1.3174,1.3112,1.2982,1.2703,1.2115,1.1976,1.2226,1.2236,1.3024,1.4376,1.5722,0.0,0.0,1.6594,1.6689,1.6722,1.6694,1.6694,1.6694,1.6694,1.6734,1.6786,1.7095,1.7263,1.7328,1.7764,1.7777,1.7285,1.6802,1.6653,1.6889,1.7678,1.8088,1.8033,1.8347,1.8233,1.769,1.7412,1.7247,1.7263,1.7462,1.7323,1.6854,1.7088,1.6871,1.6056,1.6009,1.5878,1.5625,0.0,0.0,0.0,0.0,0.0,0.0,0.0,0.0,0.0,0.0,0.0,0.0,0.0,0.0,0.0,1.6729,0.0,1.778,1.8891,0.0,0.0,0.0,2.0759,2.1094,2.0903,2.0859,2.1107,0.0,0.0,0.0,0.0,2.1692,2.175,2.1455,2.1249,2.1128,2.1135,2.1181,2.1167,2.1146,2.115,2.1385,2.145,2.1582,2.1825,2.2024,2.1951,2.1951,2.2004,2.205,2.2017,2.2258,2.2458,2.2458,2.3303,2.3818,2.3257,2.426,2.5315,2.5715,2.7048,2.8266,1.3622,1.373,1.3887,1.402,1.4065,1.3798,1.3833,1.3978,1.3374,1.3161,1.3341,1.355,1.4176,1.517,1.616,1.6753,1.6975,1.6805,1.6829,1.7058,1.6806,1.6694,1.6694,1.6694,1.6944,1.7382,1.7468,1.7722,1.8096,1.823,1.8256,1.8118,1.7997,1.7758,1.745,1.8027,1.8307,1.8297,1.8371,1.8355,1.8197,1.7944,1.7819,1.7793,1.7438,1.7172,1.7045,1.7322,1.7315,1.6936,1.7094,1.6958,1.6439,1.6071,0.0,0.0,0.0,0.0,0.0,0.0,0.0,0.0,0.0,1.6126,1.6832,0.0,1.7875,0.0,1.7821,1.809,1.855,1.8905,0.0,0.0,2.0703,2.0876,2.1434,2.1415,2.14,2.1477,2.1823,2.2143,2.2291,2.2236,2.2223,2.2296,2.2015,2.1735,2.1536,2.1666,2.1794,2.175,2.1765,2.1812,2.1859,2.1892,2.1905,2.1991,2.2024,2.2024,2.2024,2.2178,2.2278,2.2338,2.2552,2.2841,2.3079,2.3638,2.4012,2.416,2.4878,2.5697,2.6273,2.7605,2.8774,1.4877,1.4974,1.5185,1.5296,1.5286,1.4663,1.4495,1.4669,1.4053,1.3806,1.3892,1.4449,1.5019,1.5647,1.6637,1.7276,1.753,1.7371,1.7457,1.7701,1.7428,1.7342,1.7457,1.7444,1.7645,1.7955,1.8226,1.8499,1.8812,1.894,1.9035,1.9038,1.8992,1.8809,1.8378,1.8378,1.8386,1.8386,1.8542,1.863,1.8603,1.8467,1.8223,1.7849,1.773,1.7515,1.7167,1.7334,1.7383,1.7331,1.7055,1.6945,1.7027,1.6675,1.6486,0.0,0.0,0.0,0.0,0.0,0.0,0.0,0.0,0.0,0.0,0.0,1.8915,0.0,1.9158,0.0,2.0053,2.0099,2.047,2.1402,2.1362,2.1393,2.1729,2.1783,2.1783,2.1783,2.2031,2.2284,2.2443,2.2412,2.2432,2.2457,2.2432,2.2251,2.189,2.193,2.2024,2.2024,2.2098,2.2231,2.2385,2.2412,2.2412,2.2412,2.2412,2.2412,2.2412,2.2498,2.2619,2.2666,2.2889,2.3167,2.3372,2.385,2.4306,2.4549,2.5226,2.6134,2.7121,2.8507,2.9623,1.6103,1.6349,1.6378,1.6505,1.6594,1.5767,1.5334,1.5189,1.4585,1.4425,1.4596,1.5393,1.5846,1.6137,1.7244,1.784,1.8106,1.8098,1.8244,1.8508,1.8282,1.8278,1.85,1.8529,1.8529,1.8601,1.9098,1.9393,1.9423,1.9715,1.9842,1.985,1.9811,1.9659,1.9341,1.8813,1.8487,1.8478,1.8809,1.8957,1.8946,1.8859,1.8408,1.7711,1.8008,1.7937,1.7303,1.7277,1.7396,1.7543,1.6808,1.6752,1.7548,1.7232,1.7269,0.0,1.7561,0.0,0.0,0.0,0.0,0.0,0.0,0.0,0.0,1.847,1.9662,2.0684,2.0533,2.0738,2.1533,2.1627,2.1748,2.2004,2.2044,2.2044,2.2044,2.2104,2.2084,2.2044,2.2071,2.2205,2.2432,2.2472,2.2472,2.2485,2.2693,2.2666,2.2218,2.2158,2.2171,2.2098,2.2311,2.2565,2.2832,2.2934,2.2934,2.2947,2.2987,2.3,2.2947,2.2987,2.3014,2.3117,2.331,2.3523,2.3639,2.42,2.4567,2.4649,2.5483,2.6548,2.7866,2.9151,3.0458,1.704,1.7116,1.739,1.7505,1.757,1.764,1.7138,1.6276,1.5861,1.6155,1.6897,1.7305,1.7545,1.7623,1.8048,1.8422,1.8719,1.8745,1.8877,1.9114,1.9077,1.9071,1.9119,1.9119,1.9283,1.9538,1.9663,1.9828,2.0026,2.0079,2.0117,2.0125,1.9902,1.9749,1.9621,0.0,0.0,0.0,1.9064,1.9213,1.922,1.8534,1.8114,1.7915,1.7547,0.0,1.7521,1.7732,1.7888,1.8,1.8203,0.0,0.0,0.0,0.0,0.0,0.0,0.0,0.0,0.0,0.0,0.0,2.0107,2.0217,1.9918,2.061,2.1074,2.1043,2.1209,2.1413,2.1585,2.162,2.1796,2.2271,2.2338,2.2338,2.2352,2.2552,2.2639,2.2365,2.2552,2.2746,2.2813,2.2813,2.2813,2.2827,2.2867,2.2853,2.276,2.2719,2.2733,2.2746,2.2786,2.2886,2.3193,2.3185,2.3233,2.326,2.3496,2.3509,2.3287,2.3455,2.3708,2.3928,2.3891,2.4136,2.4883,2.4999,2.4985,2.5226,2.5946,2.6827,2.7981,2.8888,2.9887,1.7796,0.0,1.798,1.8042,0.0,1.8226,1.7967,1.7446,1.7248,1.7456,1.7907,1.8249,1.8399,1.8429,1.8715,1.8954,1.9073,1.8884,1.9068,1.9503,1.9343,1.9468,1.9742,1.9742,1.9833,1.9998,2.0174,2.0301,2.0468,2.057,2.0655,2.0645,2.0499,2.0437,2.0399,2.0268,1.9902,1.9352,1.9603,1.9767,1.9713,1.9159,1.8578,1.8002,0.0,0.0,0.0,0.0,0.0,0.0,0.0,0.0,0.0,0.0,0.0,1.9222,1.9384,1.9462,1.946,1.9931,2.0241,2.0458,2.1115,2.1479,2.1294,2.1614,2.174,2.1592,2.17,2.1863,2.1964,2.1977,2.2184,2.2579,2.2632,2.2632,2.2659,2.2913,2.302,2.2939,2.3126,2.3348,2.3348,2.3348,2.3348,2.3348,2.3348,2.3335,2.3335,2.318,2.3086,2.3086,2.3086,2.3086,2.3113,2.338,2.3407,2.3233,2.3354,2.3531,2.3585,2.3714,2.4004,2.4467,2.463,2.4883,2.5313,2.5487,2.556,2.5734,2.6047,2.6603,2.7469,2.8096,2.8938,1.8432,1.8432,1.8432,1.8432,1.8432,1.8463,1.8432,1.8432,0.0,0.0,0.0,1.8643,1.8766,1.8809,1.9193,1.9376,1.9376,1.9152,1.9361,1.9863,1.9688,1.9898,2.0357,2.041,2.0437,2.045,2.0775,2.0913,2.0873,2.1122,2.1229,2.1203,2.1229,2.1243,2.1189,2.1189,2.081,2.0073,2.0125,2.0191,2.0168,1.9756,1.9114,1.8155,1.8362,1.8391,1.8219,1.8133,1.8483,1.9377,1.845,1.8387,1.9457,1.943,1.9684,2.0313,2.0429,2.0437,2.0437,2.0735,2.1029,2.1291,2.179,2.2069,2.2032,2.2061,2.2058,2.2058,2.2111,2.2258,2.2518,2.2545,2.2699,2.3027,2.3054,2.3054,2.3081,2.3233,2.3407,2.3399,2.3594,2.3803,2.3777,2.3777,2.3817,2.3803,2.375,2.383,2.383,2.3581,2.3372,2.3407,2.334,2.3233,2.3201,2.3455,2.3576,2.3319,2.3472,2.3739,2.4049,2.4203,2.4468,2.5129,2.5406,2.5605,2.5754,2.5952,2.607,2.6105,2.6105,2.6248,2.6771,2.7113,2.7764,1.8963,1.8995,1.8995,1.8963,1.8995,1.8995,1.9007,1.8959,1.8493,1.83,1.833,1.8594,1.8704,1.8735,1.9376,1.9663,1.9676,2.0187,2.046,0.0,2.0743,2.0894,2.1002,2.1243,2.1395,2.1422,2.1689,2.1703,2.1515,2.1743,2.177,2.1582,2.177,2.177,2.1574,2.1529,2.1323,2.0894,2.0445,2.0203,2.0182,1.9358,1.8839,1.8697,1.8715,1.8867,1.9097,1.9356,1.9674,2.004,2.017,2.0321,2.0496,2.0668,2.0851,2.0998,2.1234,2.1408,2.1408,2.1676,2.1924,2.2205,2.2311,2.2231,2.203,2.2224,2.2331,2.2378,2.2626,2.2893,2.3118,2.3145,2.3265,2.3567,2.3669,2.3669,2.3656,2.371,2.375,2.375,2.3777,2.383,2.3928,2.3879,2.3892,2.383,2.3897,2.391,2.4084,2.3937,2.3763,2.3674,2.3487,2.3434,2.3611,2.3723,2.3905,2.4094,2.4538,2.4865,2.5098,2.5274,2.555,2.6082,2.6013,2.6114,2.659,2.6582,2.6471,2.6442,2.6427,2.6431,2.6354,2.6166,2.6469,1.9551,1.9519,1.9551,1.9539,1.9551,1.9551,1.9507,1.9495,1.9298,1.9115,1.9005,1.9149,1.9475,1.9928,2.0067,2.0347,2.0693,2.0792,2.094,2.1146,2.1265,2.1382,2.159,2.1756,2.1823,2.1823,2.1924,2.1924,2.185,2.1957,2.1924,2.1836,2.1924,2.1924,2.1836,2.1823,2.1756,2.1577,2.1022,2.0608,2.0407,1.982,1.943,1.9298,1.928,1.951,1.998,2.0191,2.0504,2.0935,2.05,2.0278,2.0291,2.0502,2.0656,2.0688,2.1385,2.1823,2.1823,2.2058,2.2418,2.2825,2.2878,2.2926,2.2953,2.2926,2.2913,2.2892,2.318,2.3442,2.3554,2.3567,2.3621,2.379,2.3817,2.3817,2.383,2.3928,2.4103,2.4296,2.4467,2.4634,2.4852,2.4671,2.4562,2.4539,2.438,2.4361,2.4701,2.462,2.4399,2.4107,2.3888,2.3888,2.4079,2.4372,2.4543,2.4626,2.5002,2.5391,2.5654,2.5853,2.6126,2.6612,2.6561,2.6619,2.6983,2.6881,2.6778,2.6778,2.6764,2.6632,2.6339,2.604,2.6425,1.9881,1.9881,1.9881,1.9881,1.9881,1.9881,1.9881,1.9881,1.9881,1.987,1.9891,1.9834,2.0173,2.0831,2.0733,2.1025,2.145,2.133,2.1363,2.1595,2.1628,2.176,2.1991,2.2044,2.2084,2.2098,2.2171,2.2184,2.2098,2.2151,2.2224,2.2211,2.2224,2.2151,2.2084,2.2084,2.2044,2.1997,2.1537,2.1182,2.0894,2.0522,2.0247,2.0106,2.003,2.0227,2.074,2.0938,2.1208,2.1617,2.0915,2.0449,2.0462,2.0734,2.0923,2.104,2.1803,2.2325,2.2425,2.2592,2.2926,2.338,2.3385,2.3527,2.375,2.3621,2.3452,2.3425,2.3621,2.3817,2.3848,2.3875,2.3924,2.3991,2.3968,2.3995,2.3995,2.4241,2.452,2.4861,2.5148,2.5433,2.5653,2.5506,2.5309,2.5258,2.5079,2.5042,2.5263,2.5336,2.508,2.4734,2.4539,2.4499,2.458,2.4905,2.5146,2.5136,2.5447,2.5825,2.6106,2.6236,2.6417,2.6867,2.6983,2.6969,2.6983,2.6983,2.6969,2.6954,2.6954,2.6866,2.653,2.6593,2.6577,1.9926,1.9881,1.9905,1.9881,1.9905,1.9905,1.9905,1.9905,1.9893,2.0256,2.0691,2.046,2.0406,2.053,2.1126,2.145,2.1555,2.1793,2.1938,2.1984,2.1944,2.1991,2.2077,2.2258,2.2378,2.2371,2.2666,2.2639,2.2405,2.2666,2.28,2.2813,2.2813,2.2666,2.2385,2.2345,2.2258,2.2024,2.1937,2.1911,2.1845,2.1187,2.0976,2.1312,2.097,2.0996,2.1391,2.172,2.1884,2.1951,2.2058,2.2137,2.215,2.2449,2.2728,2.291,2.3076,2.3313,2.3589,2.3669,2.3683,2.375,2.3763,2.3754,2.3843,2.4031,2.4008,2.3857,2.3803,2.395,2.4128,2.4155,2.4262,2.4449,2.4502,2.4519,2.4553,2.4877,2.5125,2.5148,2.5515,2.5763,2.5873,2.58,2.5726,2.569,2.558,2.558,2.5726,2.5726,2.5763,2.5629,2.5461,2.5308,2.531,2.5324,2.5552,2.5805,2.6142,2.643,2.6678,2.6823,2.6969,2.6918,2.6998,2.6998,2.6998,2.6998,2.6998,2.6998,2.6969,2.6896,2.6696,2.7109,2.7207,2.0386,2.0386,2.0386,2.0386,2.0386,2.0386,2.0386,2.0386,2.0352,2.0647,2.1089,2.1191,2.134,2.159,2.1677,2.1936,2.233,2.2465,2.2532,2.2498,2.2532,2.2532,2.2559,2.2619,2.2686,2.2719,2.284,2.2827,2.276,2.284,2.2893,2.2893,2.2893,2.284,2.2686,2.2434,2.2279,2.2174,2.2005,2.1891,2.1818,2.1466,2.133,2.1463,2.133,2.1488,2.1985,2.2178,2.2325,2.2451,2.2008,2.1697,2.1697,2.1952,2.2157,2.2333,2.3135,2.3647,2.3803,2.3817,2.3884,2.4008,2.4022,2.4088,2.4275,2.4578,2.4738,2.4643,2.4398,2.4342,2.4436,2.4412,2.4479,2.4609,2.4821,2.4931,2.4968,2.5336,2.5616,2.585,2.607,2.6239,2.6399,2.6276,2.6056,2.5873,2.58,2.591,2.6093,2.6166,2.6239,2.6422,2.6416,2.625,2.604,2.5981,2.6163,2.6482,2.6678,2.6874,2.6925,2.6998,2.6983,2.6998,2.6998,2.6998,2.6998,2.6998,2.6998,2.6998,2.6983,2.6896,2.6574,2.7,2.6773,2.07,2.07,2.07,2.07,2.07,2.07,2.07,2.0735,2.0804,2.1034,2.138,2.176,2.2172,2.2464,2.2281,2.2455,2.2846,2.2893,2.2893,2.2893,2.2893,2.2893,2.2893,2.2893,2.2893,2.2893,2.2893,2.2825,2.2756,2.2722,2.2688,2.2619,2.2585,2.2654,2.2688,2.2345,2.2207,2.2229,2.1966,2.1794,2.1777,2.1737,2.1731,2.1731,2.1731,2.1956,2.2525,2.2539,2.2632,2.2846,2.2147,2.177,2.1795,2.2036,2.2261,2.2398,2.337,2.4008,2.4044,2.4008,2.4102,2.4289,2.4292,2.4372,2.4619,2.4968,2.5203,2.5175,2.5042,2.4941,2.4931,2.4931,2.4918,2.4954,2.5226,2.5373,2.5373,2.574,2.6056,2.6349,2.6473,2.6655,2.6889,2.6728,2.6458,2.6239,2.6166,2.6202,2.6473,2.6582,2.6692,2.6947,2.6983,2.6874,2.6619,2.6553,2.6728,2.6874,2.6998,2.6962,2.6998,2.6998,2.6998,2.6998,2.6998,2.6998,2.6998,2.6998,2.6998,2.6998,2.6983,2.6925,2.6735,2.6898,2.6881,2.07,2.07,2.07,2.07,2.07,2.07,2.07,2.077,2.1012,2.138,2.1794,2.2104,2.2503,2.2819,2.2819,2.2846,2.2893,2.2893,2.2893,2.2893,2.2893,2.2893,2.2893,2.2893,2.2893,2.2825,2.2791,2.2654,2.2345,2.231,2.2173,2.191,2.1897,2.2035,2.2242,2.2001,2.1966,2.2173,2.191,2.176,2.1807,2.2065,2.2224,2.2211,2.2258,2.245,2.2812,2.288,2.2893,2.2907,2.3049,2.3174,2.32,2.3488,2.3718,2.402,2.4349,2.4546,2.4519,2.4506,2.4532,2.4559,2.4546,2.4609,2.466,2.5042,2.5276,2.5226,2.558,2.5726,2.5726,2.5653,2.5653,2.569,2.5726,2.5763,2.5763,2.6143,2.6349,2.6473,2.6728,2.691,2.6998,2.6983,2.691,2.6874,2.691,2.691,2.6874,2.6947,2.6947,2.6983,2.6998,2.6998,2.6947,2.6874,2.691,2.6998,2.6998,2.6998,2.6998,2.6998,2.6998,2.6998,2.6998,2.6998,2.6998,2.6998,2.6998,2.6998,2.6998,2.6925,2.6866,2.6939,2.6939,2.07,2.07,2.07,2.07,2.07,2.07,2.0804,2.1012,2.1138,2.1553,2.207,2.2242,2.2516,2.2893,2.2893,2.2893,2.2893,2.2893,2.2893,2.2893,2.2893,2.2893,2.2859,2.2654,2.2516,2.2482,2.231,2.2104,2.2001,2.1979,2.1932,2.1829,2.1794,2.1876,2.1897,2.1587,2.1484,2.1553,2.1289,2.1116,2.1222,2.1833,2.2236,2.2258,2.2539,2.2815,2.3153,2.3153,2.3247,2.3469,2.3589,2.3607,2.3647,2.3888,2.4168,2.4412,2.4546,2.4599,2.4599,2.4599,2.4599,2.4599,2.4599,2.471,2.4968,2.5373,2.569,2.596,2.6326,2.6568,2.6458,2.6129,2.58,2.5836,2.6019,2.6166,2.6239,2.6546,2.6765,2.6801,2.6925,2.6998,2.6998,2.6998,2.6998,2.6998,2.6998,2.6998,2.6998,2.6998,2.7013,2.6998,2.6998,2.6998,2.6998,2.6998,2.6998,2.6998,2.6998,2.6998,2.6998,2.6998,2.6998,2.6998,2.6998,2.6998,2.6998,2.6998,2.6998,2.6998,2.6998,2.6998,2.6998,2.6998,2.7071,2.07,2.07,2.07,2.07,2.07,2.0839,2.0977,2.1242,2.1449,2.1829,2.2276,2.2448,2.2654,2.2859,2.2893,2.2893,2.2893,2.2893,2.2893,2.2893,2.2893,2.2893,2.2825,2.2482,2.231,2.2242,2.1966,2.176,2.16,2.1676,2.1691,2.1552,2.164,2.1772,2.1795,2.148,2.134,2.1375,2.1094,2.1001,2.1224,2.1948,2.239,2.2576,2.2946,2.3281,2.346,2.346,2.3554,2.3777,2.3897,2.3955,2.4062,2.4235,2.4422,2.4572,2.4599,2.4599,2.4599,2.4599,2.4599,2.4599,2.4599,2.4747,2.5152,2.5557,2.5946,2.6363,2.6765,2.6998,2.691,2.6509,2.6202,2.6202,2.6422,2.6582,2.6619,2.6838,2.6962,2.6998,2.6998,2.6998,2.6998,2.6998,2.7042,2.7115,2.7071,2.7013,2.7115,2.7144,2.7086,2.7064,2.7115,2.7086,2.7042,2.6998,2.6998,2.6998,2.6998,2.6998,2.6998,2.6998,2.6998,2.6998,2.6998,2.6998,2.6998,2.6998,2.6998,2.6998,2.6998,2.6998,2.6998,2.6998,2.7071,2.07,2.07,2.07,2.07,2.0804,2.1047,2.1207,2.138,2.1966,2.2276,2.2413,2.2688,2.2859,2.2893,2.2893,2.2893,2.2893,2.2893,2.2893,2.2893,2.2893,2.2893,2.2859,2.2448,2.2173,2.2138,2.191,2.1578,2.1257,2.1492,2.1488,2.1254,2.14,2.1652,2.1977,2.1641,2.1642,2.1761,2.1533,2.1629,2.2097,2.242,2.2803,2.3161,2.359,2.3781,2.383,2.3817,2.3794,2.3884,2.4075,2.4306,2.4479,2.4559,2.4586,2.4586,2.4599,2.4599,2.4599,2.4599,2.4599,2.4599,2.4599,2.4784,2.5226,2.558,2.5983,2.6436,2.6765,2.6998,2.6998,2.6925,2.6874,2.6983,2.691,2.691,2.6947,2.6998,2.6998,2.7027,2.7071,2.7013,2.7013,2.71,2.7217,2.7378,2.7276,2.7203,2.7422,2.7481,2.7335,2.7203,2.7232,2.7291,2.713,2.6998,2.6998,2.6998,2.6998,2.6998,2.6998,2.6998,2.6998,2.6998,2.6998,2.6998,2.6998,2.6998,2.6998,2.6998,2.6998,2.7013,2.6998,2.7013,2.7027,2.07,2.07,2.07,2.0839,2.1034,2.1151,2.1484,2.1966,2.2242,2.2448,2.2722,2.2825,2.2893,2.2893,2.2893,2.2893,2.2893,2.2893,2.2893,2.2893,2.2893,2.2893,2.2791,2.2242,2.1691,2.1279,2.1266,2.1247,2.119,2.1387,2.1449,2.1401,2.1474,2.1546,2.1679,2.1546,2.1582,2.1618,2.1558,2.1714,2.2122,2.2622,2.3085,2.3474,2.403,2.4369,2.4319,2.4168,2.4168,2.4306,2.4449,2.4506,2.4572,2.4599,2.4599,2.4599,2.4599,2.4599,2.4599,2.4599,2.4613,2.4599,2.4599,2.4954,2.5506,2.574,2.6107,2.667,2.6947,2.6998,2.6998,2.6998,2.6998,2.6998,2.6998,2.7013,2.7071,2.7203,2.7342,2.7401,2.751,2.7554,2.7437,2.7466,2.7604,2.7721,2.7648,2.7648,2.7736,2.7765,2.7765,2.7648,2.7642,2.7437,2.7232,2.7056,2.6998,2.6998,2.6998,2.6998,2.6998,2.6998,2.6998,2.6998,2.6998,2.6998,2.6998,2.6998,2.6998,2.7086,2.7196,2.7166,2.7078,2.71,2.7217,2.077,2.0873,2.0873,2.1116,2.1449,2.1553,2.1863,2.231,2.2448,2.2654,2.2859,2.2893,2.2893,2.2893,2.2893,2.2893,2.2893,2.2893,2.2893,2.2893,2.2893,2.2893,2.2791,2.2138,2.149,2.0962,2.1015,2.1148,2.1268,2.1522,2.1667,2.1667,2.1752,2.1813,2.18,2.18,2.18,2.1813,2.1959,2.2202,2.2591,2.3095,2.3551,2.398,2.4395,2.4586,2.4586,2.4449,2.4412,2.4559,2.4599,2.4599,2.4599,2.4599,2.4599,2.4599,2.4599,2.4599,2.4599,2.4719,2.4796,2.481,2.5015,2.5388,2.589,2.6149,2.6677,2.7078,2.7225,2.721,2.721,2.721,2.713,2.6998,2.7115,2.7217,2.7335,2.7525,2.7642,2.77,2.778,2.778,2.7736,2.7751,2.797,2.8043,2.7984,2.7961,2.8043,2.8087,2.8028,2.7911,2.7721,2.7539,2.7305,2.7144,2.7013,2.6998,2.6998,2.6998,2.6998,2.6998,2.6998,2.6998,2.6998,2.6998,2.6998,2.6998,2.6998,2.7196,2.7371,2.7378,2.7393,2.7525,2.7575,2.0943,2.1207,2.1242,2.1449,2.1829,2.2104,2.2276,2.2413,2.2722,2.2859,2.2893,2.2893,2.2893,2.2893,2.2893,2.2893,2.2893,2.2893,2.2893,2.2893,2.2893,2.2859,2.2619,2.2121,2.1602,2.1144,2.1148,2.1317,2.1547,2.18,2.1933,2.1958,2.2127,2.2284,2.2224,2.2284,2.2273,2.2373,2.2657,2.298,2.335,2.3746,2.4129,2.4499,2.4586,2.4599,2.4586,2.4572,2.4572,2.4599,2.4599,2.4599,2.4599,2.4613,2.4653,2.4666,2.4639,2.4706,2.477,2.497,2.5104,2.5155,2.5632,2.6171,2.6285,2.681,2.728,2.745,2.751,2.7533,2.7495,2.751,2.7393,2.7188,2.7335,2.7554,2.7868,2.7941,2.7941,2.7955,2.7955,2.7955,2.797,2.7984,2.8174,2.8291,2.8218,2.8233,2.8335,2.835,2.8116,2.8014,2.8008,2.7721,2.7569,2.7305,2.7159,2.6998,2.6998,2.6998,2.7034,2.7049,2.7122,2.7108,2.7085,2.7085,2.7034,2.7034,2.7115,2.732,2.7495,2.7642,2.7736,2.7824,2.7853,2.1565,2.1622,2.1622,2.1829,2.2138,2.2276,2.2482,2.2722,2.2825,2.2893,2.2893,2.2893,2.2893,2.2893,2.2893,2.2893,2.292,2.2907,2.2893,2.2893,2.2893,2.2551,2.2238,2.2128,2.1765,2.1266,2.1474,2.174,2.1825,2.2054,2.2175,2.2199,2.2248,2.2308,2.2308,2.2346,2.2446,2.2707,2.2819,2.3228,2.3785,2.3933,2.4193,2.4562,2.4599,2.4599,2.4599,2.4599,2.4599,2.4599,2.4599,2.4599,2.4626,2.4836,2.4943,2.4983,2.5144,2.5264,2.5277,2.5344,2.5398,2.5436,2.5924,2.624,2.6574,2.7098,2.749,2.7705,2.7794,2.778,2.778,2.778,2.7809,2.7955,2.7759,2.7744,2.8131,2.8277,2.8262,2.8291,2.8491,2.8476,2.8364,2.8476,2.8622,2.8695,2.8666,2.8593,2.8681,2.871,2.8505,2.852,2.8447,2.8087,2.7794,2.7539,2.7327,2.7056,2.6998,2.7027,2.7064,2.7064,2.721,2.7313,2.7364,2.7356,2.7137,2.7034,2.7254,2.7637,2.7783,2.7982,2.8016,2.8043,2.8072,2.1863,2.2001,2.2001,2.2207,2.2516,2.2551,2.2688,2.2859,2.2893,2.2893,2.2893,2.2893,2.2893,2.2893,2.2893,2.2974,2.3046,2.306,2.3126,2.3281,2.3295,2.2915,2.2436,2.2371,2.2101,2.1749,2.1825,2.1946,2.2066,2.2236,2.2296,2.2334,2.2446,2.2446,2.2334,2.2632,2.2781,2.293,2.3154,2.36,2.397,2.4156,2.4377,2.4562,2.4599,2.4599,2.4599,2.4599,2.4599,2.4599,2.4599,2.4653,2.4823,2.497,2.5168,2.5251,2.5424,2.5504,2.5545,2.5625,2.5782,2.6001,2.6402,2.6839,2.7219,2.7669,2.8138,2.8093,2.8116,2.8116,2.8087,2.7999,2.8145,2.8447,2.8183,2.8095,2.854,2.8637,2.8584,2.8627,2.8769,2.8842,2.8637,2.8798,2.8856,2.8886,2.8856,2.8842,2.8871,2.8886,2.8842,2.8739,2.8622,2.8262,2.7999,2.7773,2.7628,2.7379,2.7328,2.7262,2.7416,2.7431,2.7637,2.7829,2.7747,2.7665,2.7628,2.7591,2.7827,2.8155,2.8275,2.8445,2.8561,2.8497,2.8474,2.2134,2.2379,2.2384,2.2577,2.2873,2.2893,2.2859,2.2893,2.2893,2.2893,2.2893,2.2893,2.2893,2.2893,2.2907,2.3041,2.3247,2.3247,2.3474,2.3656,2.3714,2.3483,2.3042,2.2834,2.2607,2.236,2.2129,2.2153,2.2261,2.2284,2.2296,2.2371,2.2669,2.2707,2.2595,2.3005,2.3228,2.3228,2.3637,2.4009,2.4208,2.4417,2.4589,2.4693,2.4613,2.4599,2.4599,2.4599,2.4613,2.4653,2.4653,2.4823,2.5088,2.5104,2.5304,2.5531,2.5638,2.5678,2.5703,2.597,2.6232,2.6623,2.7231,2.7731,2.7883,2.8342,2.8657,2.8452,2.8437,2.8437,2.8408,2.8189,2.8321,2.8695,2.8593,2.8637,2.8812,2.8886,2.8886,2.8886,2.8886,2.8886,2.8886,2.8886,2.8886,2.8886,2.8886,2.8886,2.8886,2.8886,2.8798,2.8666,2.8496,2.8364,2.816,2.797,2.7892,2.7762,2.7777,2.7799,2.8074,2.8193,2.838,2.8454,2.8424,2.8481,2.851,2.8547,2.862,2.8759,2.8935,2.9191,2.94,2.9168,2.9067,2.316,2.277,2.2988,2.3017,2.292,2.2893,2.2907,2.2893,2.2893,2.2893,2.2893,2.2893,2.2893,2.2893,2.2893,2.2947,2.3073,2.3287,2.3487,2.3803,2.4022,2.4039,2.3828,2.3546,2.3077,2.2729,2.2682,2.2571,2.2408,2.2408,2.2308,2.2408,2.2781,2.2893,2.2893,2.3228,2.355,2.3748,2.397,2.4298,2.4626,2.4618,2.4693,2.4877,2.4706,2.4613,2.4599,2.4599,2.4743,2.4917,2.501,2.5064,2.5197,2.5556,2.5784,2.5904,2.6066,2.6172,2.6278,2.6501,2.6804,2.6987,2.7617,2.8182,2.8218,2.8593,2.8817,2.8798,2.8783,2.8754,2.8739,2.8725,2.8725,2.8827,2.8827,2.8798,2.8871,2.8886,2.8886,2.8886,2.8886,2.8886,2.8886,2.8886,2.8886,2.8886,2.8886,2.8886,2.8886,2.8886,2.8812,2.8695,2.8666,2.8578,2.8432,2.8333,2.8293,2.8274,2.8327,2.8499,2.8755,2.8935,2.9109,2.9139,2.9176,2.9234,2.9344,2.917,2.9155,2.9387,2.961,2.9763,2.9846,2.9735,2.9484,2.346,2.3348,2.3509,2.3354,2.3113,2.3108,2.2993,2.292,2.2893,2.2893,2.2893,2.2893,2.2893,2.2893,2.292,2.3027,2.3388,2.3741,2.3986,2.4209,2.4356,2.4396,2.4372,2.4153,2.3749,2.326,2.314,2.2992,2.2856,2.2806,2.2856,2.2856,2.3191,2.3302,2.3265,2.3674,2.3957,2.4007,2.4193,2.4494,2.4773,2.4706,2.4639,2.4786,2.4693,2.4653,2.4836,2.4813,2.501,2.5237,2.5436,2.5516,2.5543,2.5824,2.6038,2.6212,2.6279,2.6386,2.6505,2.6781,2.7057,2.7294,2.7922,2.8314,2.8549,2.8822,2.8886,2.8886,2.8886,2.8886,2.8886,2.8886,2.8886,2.8886,2.8886,2.8886,2.8886,2.8886,2.8886,2.8886,2.8886,2.8886,2.8886,2.8886,2.8886,2.8886,2.8886,2.8886,2.8886,2.8886,2.8886,2.8842,2.8856,2.8798,2.8705,2.8659,2.8712,2.8798,2.898,2.9298,2.9662,2.9747,2.9831,2.9869,2.9982,3.01,3.0119,2.9906,2.98,3.0137,3.0302,3.0337,3.0338,3.0268,2.9927,2.3621,2.3817,2.3817,2.3594,2.3305,2.326,2.3126,2.3,2.2907,2.2934,2.2947,2.2934,2.2893,2.2907,2.2939,2.3322,2.3843,2.4209,2.4386,2.4506,2.4519,2.4546,2.4559,2.4472,2.4338,2.4081,2.3674,2.3488,2.3364,2.3401,2.3253,2.3401,2.3772,2.3748,2.3698,2.4156,2.4414,2.423,2.4414,2.4629,2.4693,2.4666,2.4613,2.4626,2.4719,2.4836,2.501,2.5117,2.5277,2.5571,2.5864,2.5998,2.6051,2.6078,2.6145,2.6412,2.6386,2.6465,2.6623,2.69,2.7294,2.7673,2.8118,2.851,2.8783,2.89,2.8886,2.8886,2.8886,2.8886,2.8886,2.8886,2.8886,2.8886,2.8886,2.8886,2.8886,2.8886,2.8886,2.8886,2.8886,2.8886,2.8886,2.8886,2.8886,2.8886,2.8886,2.8886,2.8886,2.8886,2.8886,2.8886,2.8886,2.9095,2.9016,2.9267,2.928,2.9464,2.9663,2.9984,3.0373,3.0505,3.056,3.0707,3.0797,3.0808,3.0789,3.0612,3.0666,3.0918,3.0938,3.0844,3.0839,3.084,3.0392,2.4168,2.3817,2.3817,2.3607,2.3278,2.306,2.31,2.3193,2.3041,2.3054,2.3207,2.3027,2.292,2.2974,2.3153,2.3581,2.4035,2.4315,2.4412,2.4572,2.4599,2.4599,2.4599,2.4599,2.4562,2.4414,2.4081,2.3772,2.355,2.3401,2.355,2.3513,2.3846,2.397,2.4081,2.4341,2.4562,2.4451,2.4562,2.4693,2.4823,2.4743,2.4626,2.4653,2.4863,2.5037,2.5144,2.5344,2.5571,2.5877,2.5957,2.6131,2.6265,2.6332,2.6359,2.6373,2.6386,2.6505,2.6821,2.7254,2.7687,2.8157,2.851,2.8744,2.8886,2.8886,2.8886,2.8886,2.8886,2.8886,2.8886,2.8886,2.8886,2.8886,2.8886,2.8886,2.8886,2.8886,2.8886,2.8886,2.8886,2.8886,2.8886,2.8886,2.8886,2.8886,2.8886,2.8886,2.8886,2.8886,2.8886,2.8886,2.8886,2.9134,2.9338,2.975,2.9984,3.0238,3.0438,3.063,3.0945,3.1162,3.1286,3.1194,3.1194,3.1191,3.1188,3.1141,3.1157,3.1172,3.1236,3.13,3.1194,3.1048,3.0856,2.4195,2.4209,2.4062,2.3915,2.3741,2.3496,2.3442,2.3527,2.3442,2.3455,2.3434,2.3247,2.3228,2.3335,2.3287,2.3661,2.4115,2.4346,2.4466,2.4586,2.4599,2.4599,2.4599,2.4599,2.4599,2.4562,2.4377,2.423,2.4044,2.4044,2.397,2.4081,2.4267,2.4304,2.4341,2.4488,2.4599,2.4599,2.4613,2.4666,2.4836,2.4653,2.4679,2.4877,2.5024,2.5262,2.5569,2.5638,2.5879,2.6145,2.6225,2.6292,2.6346,2.64,2.6386,2.6386,2.6426,2.6584,2.6992,2.7372,2.779,2.8236,2.8666,2.8847,2.8886,2.8886,2.89,2.89,2.8886,2.8886,2.8886,2.89,2.8886,2.8886,2.89,2.89,2.89,2.89,2.8915,2.8915,2.89,2.89,2.8886,2.8886,2.8886,2.8886,2.8886,2.8886,2.8886,2.8886,2.8886,2.9056,2.9134,2.9523,2.9795,3.0183,3.0492,3.0778,3.0971,3.1164,3.1279,3.1356,3.1395,3.1341,3.1395,3.1395,3.1363,3.1268,3.1347,3.1395,3.1363,3.1347,3.1341,3.1241,3.1048,2.4222,2.4572,2.4329,2.4209,2.4155,2.3821,2.3777,2.3857,2.3736,2.3714,2.3821,2.3567,2.3541,2.3674,2.3674,2.3808,2.4289,2.4506,2.4572,2.4586,2.4599,2.4599,2.4599,2.4599,2.4599,2.4599,2.4562,2.4599,2.4488,2.4488,2.4562,2.4525,2.4562,2.4599,2.4599,2.4599,2.4599,2.4599,2.4599,2.4599,2.4599,2.4666,2.4823,2.509,2.5222,2.5543,2.5877,2.6038,2.6172,2.6293,2.6373,2.6386,2.6386,2.64,2.6426,2.6505,2.6518,2.6755,2.7136,2.753,2.7986,2.8471,2.8705,2.8861,2.8886,2.89,2.8915,2.8959,2.89,2.8959,2.9003,2.8944,2.8944,2.9017,2.9056,2.9017,2.9105,2.912,2.91,2.9017,2.8944,2.89,2.8886,2.8886,2.8886,2.8886,2.8886,2.8886,2.8886,2.8886,2.8964,2.9212,2.9484,2.9912,3.0276,3.0624,3.084,3.101,3.1164,3.1318,3.1356,3.1395,3.1379,3.1379,3.1395,3.1395,3.1395,3.1395,3.1395,3.1395,3.1395,3.1395,3.1395,3.1356,3.1241,2.4532,2.4572,2.4329,2.4209,2.4128,2.3647,2.3701,2.4075,2.3661,2.3688,2.4128,2.3848,2.3728,2.3821,2.4022,2.4275,2.4466,2.4559,2.4599,2.4599,2.4599,2.4599,2.4599,2.4599,2.4599,2.4599,2.4599,2.4599,2.4599,2.4599,2.4599,2.4599,2.4599,2.4599,2.4599,2.4599,2.4599,2.4599,2.4599,2.4599,2.4639,2.4863,2.5024,2.5211,2.5569,2.5891,2.6051,2.6212,2.6346,2.636,2.64,2.64,2.64,2.64,2.6623,2.6821,2.6978,2.7136,2.7569,2.7922,2.8314,2.8666,2.8847,2.8886,2.8886,2.8915,2.8988,2.9295,2.909,2.9115,2.9262,2.9115,2.9144,2.9232,2.932,2.9467,2.9569,2.9134,2.913,2.91,2.8973,2.8915,2.8886,2.8886,2.8886,2.8886,2.8886,2.8925,2.9003,2.908,2.9329,2.964,2.9912,3.0353,3.0624,3.101,3.1087,3.1241,3.1318,3.1379,3.13,3.1284,3.1347,3.1347,3.1363,3.1379,3.1395,3.1395,3.1395,3.1395,3.1395,3.1395,3.1395,3.1395,3.1356,2.4599,2.4559,2.4155,2.4155,2.4356,2.3821,2.3901,2.4275,2.4022,2.4026,2.4302,2.3968,2.3884,2.4048,2.4315,2.4466,2.4586,2.4599,2.4599,2.4599,2.4599,2.4599,2.4599,2.4599,2.4599,2.4599,2.4599,2.4599,2.4599,2.4599,2.4599,2.4599,2.4599,2.4599,2.4599,2.4599,2.4599,2.4599,2.4599,2.4599,2.4679,2.493,2.517,2.5331,2.5797,2.6038,2.6225,2.6293,2.6386,2.64,2.64,2.6518,2.6676,2.6795,2.69,2.728,2.7608,2.7819,2.8054,2.8197,2.851,2.8783,2.8886,2.8886,2.8886,2.8915,2.9071,2.9339,2.9251,2.9325,2.9599,2.9555,2.9584,2.9613,2.9569,2.9569,2.9599,2.9251,2.9032,2.9017,2.8988,2.893,2.8925,2.8978,2.8978,2.8939,2.8978,2.9095,2.9329,2.9586,2.9873,3.0276,3.0508,3.0778,3.101,3.1279,3.1241,3.1318,3.1318,3.1331,3.1172,3.1195,3.1268,3.1338,3.1322,3.1315,3.1363,3.1395,3.1395,3.1395,3.1395,3.1395,3.1395,3.1395,3.1356,2.4599,2.4559,2.4168,2.4209,2.4439,2.4017,2.3995,2.4319,2.4155,2.4235,2.4396,2.4168,2.4128,2.4302,2.4479,2.4572,2.4599,2.4599,2.4599,2.4599,2.4599,2.4599,2.4599,2.4599,2.4599,2.4599,2.4719,2.4679,2.4639,2.4666,2.4743,2.4599,2.4599,2.4599,2.4599,2.4613,2.4626,2.4783,2.4783,2.4823,2.4943,2.5184,2.5411,2.5651,2.5905,2.6212,2.6346,2.6386,2.6386,2.6386,2.6544,2.6755,2.6913,2.7097,2.7372,2.7726,2.804,2.825,2.8392,2.851,2.8627,2.8783,2.8886,2.8886,2.8886,2.89,2.9144,2.9525,2.9423,2.9613,2.9892,2.995,2.9921,2.9848,2.972,2.9687,2.9555,2.9306,2.912,2.9174,2.9115,2.893,2.8925,2.9056,2.9017,2.8939,2.9056,2.9251,2.9601,2.9989,3.0299,3.0624,3.0894,3.1087,3.1202,3.1395,3.1395,3.1395,3.1395,3.1331,3.1172,3.1188,3.13,3.1322,3.1227,3.13,3.1395,3.1395,3.1395,3.1395,3.1395,3.1395,3.1395,3.1395,3.1395,2.4599,2.4599,2.4546,2.4386,2.4222,2.3901,2.383,2.3977,2.3884,2.4031,2.4289,2.4436,2.4479,2.4559,2.4559,2.4599,2.4599,2.4599,2.4599,2.4599,2.4599,2.4599,2.4599,2.4599,2.4599,2.4639,2.4836,2.4836,2.4719,2.489,2.4823,2.4639,2.4599,2.4599,2.4626,2.4653,2.481,2.4957,2.5024,2.517,2.5384,2.5625,2.5877,2.5971,2.6212,2.6373,2.64,2.6426,2.6465,2.6505,2.6781,2.7018,2.7229,2.7451,2.7805,2.8157,2.8314,2.851,2.8705,2.8783,2.8847,2.8886,2.8886,2.8886,2.8886,2.8886,2.9218,2.9657,2.9569,2.9774,3.0024,3.0155,3.0199,3.0082,2.998,2.9833,2.9672,2.9408,2.9251,2.9306,2.9188,2.8998,2.9095,2.9212,2.9212,2.9134,2.9601,2.9795,3.0067,3.0415,3.0624,3.0894,3.1164,3.1318,3.1356,3.1395,3.1395,3.1395,3.1395,3.1315,3.1204,3.1252,3.1258,3.1109,3.1014,3.1204,3.1379,3.1379,3.1363,3.1379,3.1395,3.1395,3.1395,3.1395,3.1395,2.4599,2.4599,2.4599,2.4439,2.4132,2.3701,2.3701,2.3968,2.3897,2.3941,2.4235,2.4452,2.4599,2.4599,2.4599,2.4599,2.4599,2.4599,2.4599,2.4599,2.4599,2.4599,2.4599,2.4599,2.4599,2.4716,2.493,2.493,2.4666,2.4983,2.4863,2.4693,2.4613,2.4599,2.4626,2.4796,2.4983,2.5104,2.5264,2.5424,2.5518,2.5824,2.5998,2.6024,2.6279,2.6373,2.6426,2.6663,2.6755,2.6874,2.7175,2.7451,2.7687,2.7922,2.8197,2.8549,2.8627,2.8744,2.8861,2.89,2.8886,2.8886,2.8886,2.89,2.89,2.8886,2.9105,2.9437,2.9687,2.9877,3.0229,3.0434,3.0481,3.0361,3.0155,2.9936,2.9701,2.9369,2.9193,2.9159,2.911,2.9032,2.9212,2.9407,2.9368,2.9368,2.9888,3.0353,3.0585,3.0763,3.0971,3.1048,3.1279,3.1356,3.1395,3.1395,3.1395,3.1395,3.1395,3.1284,3.1172,3.1067,3.102,3.0908,3.0871,3.1099,3.1258,3.13,3.1331,3.13,3.1347,3.1395,3.1395,3.1395,3.1395,2.4599,2.4586,2.4506,2.4342,2.4035,2.3728,2.3714,2.3901,2.3964,2.4062,2.4342,2.4519,2.4599,2.4599,2.4599,2.4599,2.4599,2.4599,2.4599,2.4599,2.4599,2.4599,2.4626,2.4693,2.481,2.485,2.513,2.5224,2.4946,2.513,2.5037,2.4863,2.4639,2.4599,2.4666,2.4917,2.5195,2.5358,2.5504,2.5718,2.5798,2.5972,2.6145,2.6197,2.6424,2.661,2.6742,2.6978,2.7136,2.7333,2.7569,2.7961,2.8197,2.8431,2.8627,2.8783,2.8886,2.8886,2.89,2.9003,2.8973,2.8915,2.9032,2.8988,2.8915,2.89,2.9061,2.9354,2.9643,2.9921,3.0287,3.0405,3.0463,3.0273,2.9892,2.9657,2.9442,2.9208,2.9061,2.8944,2.8964,2.9042,2.9484,2.9756,3.0004,3.0004,3.0237,3.0663,3.0933,3.1125,3.1241,3.1318,3.1356,3.1395,3.1395,3.1395,3.1395,3.1395,3.1363,3.122,3.1093,3.1004,3.0988,3.1014,3.1029,3.1052,3.1115,3.1242,3.122,3.1204,3.122,3.1258,3.1395,3.1395,3.1395,2.4599,2.4559,2.4342,2.4075,2.391,2.4075,2.3888,2.3599,2.3995,2.4342,2.4532,2.4599,2.4599,2.4599,2.4599,2.4599,2.4599,2.4599,2.4599,2.4599,2.4599,2.4599,2.4679,2.4823,2.489,2.5184,2.5371,2.5464,2.5331,2.5317,2.5211,2.501,2.4783,2.4666,2.4639,2.4943,2.5371,2.5877,2.5944,2.6118,2.6213,2.6293,2.6346,2.653,2.6715,2.686,2.7057,2.7412,2.7608,2.7687,2.804,2.8314,2.8392,2.8666,2.8808,2.8886,2.8886,2.89,2.8954,2.9193,2.9178,2.8988,2.909,2.9203,2.8959,2.8915,2.9017,2.9339,2.9525,2.9804,3.0024,3.0199,3.0273,3.0053,2.9672,2.9423,2.9222,2.909,2.8959,2.9056,2.9017,2.9095,2.964,3.0159,3.0585,3.0755,3.0755,3.0933,3.1241,3.1318,3.1395,3.1395,3.1395,3.1395,3.1395,3.1395,3.1395,3.1395,3.1331,3.1204,3.1141,3.1131,3.1147,3.1172,3.1125,3.1067,3.1083,3.1147,3.1115,3.1083,3.102,3.1052,3.1258,3.1395,3.1395,2.4599,2.4586,2.4492,2.4329,2.4062,2.3941,2.3888,2.3981,2.4266,2.4506,2.4586,2.4599,2.4599,2.4599,2.4599,2.4599,2.4599,2.4599,2.4599,2.4599,2.4599,2.4599,2.4653,2.4756,2.4823,2.489,2.517,2.5291,2.4853,2.5157,2.5064,2.4786,2.4877,2.4943,2.501,2.5224,2.5585,2.5957,2.6158,2.6293,2.6386,2.6426,2.6544,2.6795,2.6953,2.7175,2.7412,2.7844,2.804,2.8079,2.8471,2.8627,2.8666,2.8886,2.8886,2.8886,2.89,2.9003,2.9247,2.9481,2.9452,2.9262,2.9247,2.9335,2.8959,2.89,2.9076,2.9325,2.9555,2.9804,2.9965,3.0199,3.0214,2.976,2.9423,2.9276,2.909,2.8988,2.8925,2.9212,2.9329,2.9718,3.0198,3.0547,3.0933,3.1087,3.1087,3.1125,3.1356,3.1356,3.1395,3.1395,3.1395,3.1395,3.1395,3.1395,3.1395,3.1395,3.137,3.1258,3.1227,3.1227,3.0998,3.0918,3.1004,3.1067,3.0988,3.0924,3.094,3.0908,3.0877,3.102,3.1306,3.1395,3.1395,2.4599,2.4599,2.4599,2.4492,2.4342,2.4155,2.4195,2.4369,2.4519,2.4599,2.4599,2.4599,2.4599,2.4599,2.4599,2.4599,2.4599,2.4599,2.4599,2.4599,2.4599,2.4599,2.4613,2.4693,2.4863,2.4863,2.5024,2.5144,2.505,2.505,2.493,2.4773,2.493,2.5104,2.5264,2.5518,2.5812,2.6131,2.6293,2.636,2.6439,2.6544,2.6742,2.6978,2.7268,2.7608,2.7883,2.8197,2.851,2.8588,2.8705,2.8886,2.8886,2.8886,2.8886,2.8886,2.8915,2.9061,2.9379,2.9701,2.9628,2.9369,2.9584,2.9511,2.9262,2.9262,2.9203,2.9364,2.9584,2.9687,2.9789,3.0038,2.9804,2.935,2.9262,2.9076,2.9081,2.8993,2.9173,2.9446,2.9795,3.0237,3.0663,3.101,3.1318,3.1356,3.1395,3.1395,3.1395,3.1395,3.1395,3.1395,3.1395,3.1395,3.1395,3.1395,3.1395,3.1395,3.137,3.1306,3.129,3.1236,3.095,3.0759,3.1036,3.1131,3.0775,3.0664,3.0733,3.0781,3.0829,3.1036,3.1315,3.1395,3.1395,2.4599,2.4599,2.4599,2.4599,2.4586,2.4532,2.4559,2.4586,2.4599,2.4599,2.4599,2.4599,2.4599,2.4599,2.4599,2.4599,2.4599,2.4599,2.4599,2.4599,2.4599,2.4599,2.4679,2.485,2.4877,2.5064,2.5184,2.517,2.5371,2.5104,2.4836,2.4746,2.4997,2.5224,2.5478,2.5862,2.6183,2.6437,2.6622,2.6663,2.6742,2.69,2.7097,2.7386,2.774,2.8079,2.8353,2.8627,2.8783,2.8847,2.8886,2.8886,2.8886,2.8886,2.8886,2.8886,2.8886,2.909,2.9467,2.9804,2.9994,2.9881,3.0126,2.995,2.9628,2.9437,2.932,2.9222,2.9339,2.9383,2.9456,2.9354,2.9237,2.909,2.9047,2.9013,2.9086,2.9212,2.9446,2.9756,3.0105,3.0492,3.0856,3.1202,3.1395,3.1395,3.1395,3.1395,3.1395,3.1395,3.1395,3.1395,3.1395,3.1395,3.1395,3.1395,3.1395,3.1395,3.1395,3.1347,3.1331,3.1315,3.1172,3.1109,3.1252,3.1141,3.068,3.0489,3.0489,3.0569,3.0861,3.1083,3.1363,3.1379,3.1395,2.4599,2.4599,2.4599,2.4599,2.4599,2.4599,2.4599,2.4599,2.4599,2.4599,2.4599,2.4599,2.4599,2.4599,2.4599,2.4599,2.4599,2.4599,2.4599,2.4599,2.4599,2.4599,2.4639,2.4706,2.4733,2.4759,2.4839,2.4957,2.4853,2.4746,2.4733,2.4679,2.5168,2.5422,2.5805,2.6324,2.6619,2.6872,2.7044,2.7136,2.7175,2.7358,2.7569,2.7897,2.8133,2.8431,2.8705,2.8769,2.8886,2.8886,2.8886,2.8886,2.8886,2.8886,2.8886,2.8886,2.8944,2.9105,2.9643,2.9848,3.0038,3.0246,3.0405,3.0009,2.9588,2.9364,2.9266,2.9222,2.9251,2.9339,2.931,2.9193,2.914,2.9105,2.9115,2.9164,2.9251,2.9562,2.9849,3.0314,3.0647,3.0801,3.1164,3.1241,3.1395,3.1395,3.1395,3.1395,3.1395,3.1395,3.1395,3.1395,3.1395,3.1395,3.1395,3.1395,3.1395,3.1395,3.1395,3.1395,3.1379,3.1363,3.1379,3.1331,3.129,3.0918,3.0458,3.0426,3.0585,3.0791,3.1052,3.1242,3.1402,3.1379,3.1433,2.4599,2.4599,2.4599,2.4599,2.4599,2.4599,2.4599,2.4599,2.4599,2.4599,2.4599,2.4599,2.4599,2.4599,2.4599,2.4599,2.4599,2.4599,2.4599,2.4599,2.4599,2.4599,2.4599,2.4599,2.4613,2.4599,2.4599,2.4666,2.4599,2.4649,2.4663,2.5124,2.5545,2.5875,2.6364,2.7056,2.7488,2.753,2.7569,2.7633,2.7673,2.779,2.8079,2.8236,2.8407,2.8666,2.8847,2.8886,2.8886,2.8886,2.8886,2.8886,2.8886,2.8886,2.8886,2.8886,2.89,2.9134,2.95,2.9657,2.9968,3.0203,3.0214,2.9833,2.9603,2.9452,2.9281,2.9193,2.9281,2.9339,2.9291,2.9203,2.9189,2.9164,2.9266,2.9329,2.9601,2.9927,3.0392,3.0894,3.1164,3.1279,3.1395,3.1395,3.1395,3.1395,3.1395,3.1395,3.1395,3.1395,3.1395,3.1395,3.1395,3.1395,3.1395,3.1395,3.1395,3.1395,3.1395,3.1395,3.1395,3.1379,3.1379,3.1252,3.1147,3.0829,3.0537,3.0702,3.0861,3.1036,3.1179,3.1284,3.1379,3.1379,3.1433,2.4599,2.4599,2.4599,2.4599,2.4599,2.4599,2.4599,2.4599,2.4599,2.4599,2.4599,2.4599,2.4599,2.4599,2.4599,2.4599,2.4599,2.4599,2.4599,2.4599,2.4599,2.4599,2.4599,2.4599,2.4599,2.4599,2.4599,2.4599,2.4599,2.4777,2.5198,2.5715,2.6071,2.6446,2.6951,2.7699,2.804,2.8054,2.7961,2.7947,2.7986,2.8157,2.8368,2.8446,2.8666,2.8886,2.8886,2.8886,2.8886,2.8886,2.8886,2.8886,2.8886,2.8886,2.8886,2.8886,2.8886,2.9105,2.9339,2.9496,2.9672,2.976,2.9588,2.9525,2.9481,2.9393,2.9208,2.909,2.9134,2.9134,2.9061,2.9189,2.9271,2.9383,2.9484,2.9756,3.0105,3.0431,3.0817,3.1202,3.1279,3.1395,3.1395,3.1395,3.1395,3.1395,3.1395,3.1395,3.1395,3.1395,3.1395,3.1395,3.1395,3.1395,3.1395,3.1395,3.1395,3.1395,3.1395,3.1395,3.1395,3.1379,3.1379,3.1188,3.102,3.0972,3.0845,3.0908,3.0956,3.1099,3.1227,3.1331,3.1395,3.1395,3.1433,2.4599,2.4599,2.4599,2.4599,2.4599,2.4599,2.4599,2.4599,2.4599,2.4599,2.4599,2.4599,2.4599,2.4599,2.4599,2.4599,2.4599,2.4653,2.4599,2.4613,2.4613,2.4626,2.4599,2.4599,2.4599,2.4599,2.4599,2.4599,2.4663,2.507,2.5507,2.5807,2.6395,2.7024,2.7382,2.8068,2.8353,2.8368,2.8471,2.8417,2.8495,2.8612,2.8783,2.8783,2.8886,2.8886,2.8886,2.8886,2.8886,2.8886,2.8886,2.8886,2.8886,2.8886,2.8886,2.8886,2.89,2.91,2.9262,2.9339,2.9511,2.9643,2.9599,2.9481,2.9325,2.9247,2.9144,2.9042,2.8944,2.893,2.9008,2.9227,2.9446,2.9601,2.9795,3.0183,3.0585,3.0933,3.1241,3.1318,3.1395,3.1395,3.1395,3.1395,3.1395,3.1395,3.1395,3.1395,3.1395,3.1395,3.1395,3.1395,3.1395,3.1395,3.1395,3.1395,3.1395,3.1395,3.1395,3.1395,3.1395,3.1379,3.1363,3.1115,3.0924,3.0972,3.0988,3.0924,3.1004,3.1179,3.1274,3.1363,3.1395,3.1395,3.1395,2.4599,2.4599,2.4599,2.4599,2.4599,2.4599,2.4599,2.4599,2.4599,2.4599,2.4599,2.4599,2.4599,2.4599,2.4599,2.4599,2.4626,2.4796,2.4693,2.4653,2.4693,2.4693,2.4666,2.4599,2.4599,2.4599,2.4599,2.4649,2.4764,2.5103,2.5517,2.616,2.6948,2.7488,2.7819,2.8384,2.8549,2.8588,2.8808,2.8886,2.8886,2.8886,2.8886,2.8886,2.8886,2.8886,2.8886,2.8886,2.8886,2.8886,2.8886,2.8886,2.8886,2.8886,2.8886,2.8886,2.8915,2.9013,2.9159,2.9262,2.932,2.9379,2.9379,2.9134,2.9159,2.9042,2.9003,2.8915,2.8915,2.89,2.9188,2.9407,2.9834,3.0105,3.0314,3.0585,3.0894,3.1187,3.1356,3.1356,3.1395,3.1395,3.1395,3.1395,3.1395,3.1395,3.1395,3.1395,3.1395,3.1395,3.1395,3.1395,3.1395,3.1395,3.1395,3.1395,3.1395,3.1395,3.1395,3.1395,3.1395,3.1395,3.1315,3.1195,3.1115,3.1163,3.1109,3.1083,3.1147,3.1322,3.1347,3.1379,3.1395,3.1395,3.1395,2.4599,2.4599,2.4599,2.4599,2.4599,2.4599,2.4599,2.4599,2.4599,2.4599,2.4599,2.4599,2.4599,2.4599,2.4599,2.4599,2.4639,2.4746,2.4719,2.4706,2.4826,2.4733,2.4639,2.4599,2.4599,2.4636,2.471,2.471,2.476,2.5432,2.6226,2.6842,2.7405,2.7911,2.8618,2.8886,2.8861,2.8822,2.8886,2.8886,2.8886,2.8886,2.8886,2.8886,2.8886,2.8886,2.8886,2.8886,2.8886,2.8886,2.8886,2.8886,2.8886,2.8886,2.8886,2.8886,2.8886,2.8915,2.8944,2.8959,2.8959,2.893,2.8886,2.89,2.8939,2.8939,2.8939,2.9017,2.9017,2.9134,2.9368,2.9772,3.0237,3.0547,3.074,3.0933,3.1164,3.1379,3.1395,3.1395,3.1395,3.1395,3.1395,3.1395,3.1395,3.1395,3.1395,3.1395,3.1395,3.1395,3.1395,3.1395,3.1395,3.1395,3.1395,3.1395,3.1395,3.1395,3.1395,3.1395,3.1395,3.1395,3.1395,3.1379,3.1331,3.1268,3.13,3.1284,3.1363,3.1379,3.1395,3.1395,3.1395,3.1395,3.1395,2.4599,2.4599,2.4599,2.4599,2.4599,2.4599,2.4599,2.4599,2.4599,2.4599,2.4599,2.4599,2.4599,2.4599,2.4599,2.4599,2.4613,2.4733,2.4693,2.4639,2.4834,2.473,2.4686,2.4784,2.4636,2.4747,2.4968,2.5079,2.5211,2.6196,2.6956,2.7245,2.8163,2.8603,2.8725,2.8886,2.8886,2.8886,2.8886,2.8886,2.8886,2.8886,2.8886,2.8886,2.8886,2.8886,2.8886,2.8886,2.8886,2.8886,2.8886,2.8886,2.8886,2.8886,2.8886,2.8886,2.8886,2.8886,2.8886,2.8886,2.8886,2.8886,2.8886,2.8886,2.8939,2.8978,2.9056,2.9329,2.9368,2.9446,2.9756,3.0237,3.0701,3.0856,3.101,3.1164,3.1356,3.1395,3.1395,3.1395,3.1395,3.1395,3.1395,3.1395,3.1395,3.1395,3.1395,3.1395,3.1395,3.1395,3.1395,3.1395,3.1395,3.1395,3.1395,3.1395,3.1395,3.1395,3.1347,3.1284,3.1284,3.1379,3.1379,3.1284,3.13,3.1284,3.1331,3.1347,3.1363,3.1363,3.1379,3.1395,3.1433,3.1609,3.1801]},{"header":{"parameterUnit":"m.s-1","parameterCategory":1,"la1":31.0,"la2":29.5877,"lo1":-88.7671,"lo2":-86.6584,"dy":0.0162,"dx":0.0185,"nx":115,"ny":88,"refTime":"2024-10-10T18:00:00:Z","depth":0,"parameterNumber":3,"parameterNumberName":"V-component_of_WINDS"},"data":[0.0,0.0,0.0,0.0,0.0,0.0,0.0,0.0,0.0,0.0,0.0,0.0,0.0,0.0,0.0,0.0,0.0,0.0,0.0,0.0,0.0,0.0,0.0,0.0,0.0,0.0,0.0,0.0,0.0,0.0,0.0,0.0,0.0,0.0,0.0,0.0,0.0,0.0,0.0,0.0,0.0,0.0,0.0,0.0,0.0,0.0,0.0,0.0,0.0,0.0,0.0,0.0,0.0,0.0,0.0,0.0,0.0,0.0,0.0,0.0,0.0,0.0,0.0,0.0,0.0,0.0,0.0,0.0,0.0,0.0,0.0,0.0,0.0,0.0,0.0,0.0,0.0,0.0,0.0,0.0,0.0,0.0,0.0,0.0,0.0,0.0,0.0,0.0,0.0,0.0,0.0,0.0,0.0,0.0,0.0,0.0,0.0,0.0,0.0,0.0,0.0,0.0,0.0,0.0,0.0,0.0,0.0,0.0,0.0,0.0,0.0,0.0,0.0,0.0,0.0,0.0,0.0,0.0,0.0,0.0,0.0,0.0,0.0,0.0,0.0,0.0,0.0,0.0,0.0,0.0,0.0,0.0,0.0,0.0,0.0,0.0,0.0,0.0,0.0,0.0,0.0,0.0,0.0,0.0,0.0,0.0,0.0,0.0,0.0,0.0,0.0,0.0,0.0,0.0,0.0,0.0,0.0,0.0,0.0,0.0,0.0,0.0,0.0,0.0,0.0,0.0,0.0,0.0,0.0,0.0,0.0,0.0,0.0,0.0,0.0,0.0,0.0,0.0,0.0,0.0,0.0,0.0,0.0,0.0,0.0,0.0,0.0,0.0,0.0,0.0,0.0,0.0,0.0,0.0,0.0,0.0,0.0,0.0,0.0,0.0,0.0,0.0,0.0,0.0,0.0,0.0,0.0,0.0,0.0,0.0,0.0,0.0,0.0,0.0,0.0,0.0,0.0,0.0,0.0,0.0,0.0,0.0,0.0,0.0,0.0,0.0,0.0,0.0,0.0,0.0,0.0,0.0,0.0,0.0,0.0,0.0,0.0,0.0,0.0,0.0,0.0,0.0,0.0,0.0,0.0,0.0,0.0,0.0,0.0,0.0,0.0,0.0,0.0,0.0,0.0,0.0,0.0,0.0,0.0,0.0,0.0,0.0,0.0,0.0,0.0,0.0,0.0,0.0,0.0,0.0,0.0,0.0,0.0,0.0,0.0,0.0,0.0,0.0,0.0,0.0,0.0,0.0,0.0,0.0,0.0,0.0,0.0,0.0,0.0,0.0,0.0,0.0,0.0,0.0,0.0,0.0,0.0,0.0,0.0,0.0,0.0,0.0,0.0,0.0,0.0,0.0,0.0,0.0,0.0,0.0,0.0,0.0,0.0,0.0,0.0,0.0,0.0,0.0,0.0,0.0,0.0,0.0,0.0,0.0,0.0,0.0,0.0,0.0,0.0,0.0,0.0,0.0,0.0,0.0,0.0,0.0,0.0,0.0,0.0,0.0,0.0,0.0,0.0,0.0,0.0,0.0,0.0,0.0,0.0,0.0,0.0,0.0,0.0,0.0,0.0,0.0,0.0,0.0,0.0,0.0,0.0,0.0,0.0,0.0,0.0,0.0,0.0,0.0,0.0,0.0,0.0,0.0,0.0,0.0,0.0,0.0,0.0,0.0,0.0,0.0,0.0,0.0,0.0,0.0,0.0,0.0,0.0,0.0,0.0,0.0,0.0,0.0,0.0,0.0,0.0,0.0,0.0,0.0,0.0,0.0,0.0,0.0,0.0,0.0,0.0,0.0,0.0,0.0,0.0,0.0,0.0,0.0,0.0,0.0,0.0,0.0,0.0,0.0,0.0,0.0,0.0,0.0,0.0,0.0,0.0,0.0,0.0,0.0,0.0,0.0,0.0,0.0,0.0,0.0,0.0,0.0,0.0,0.0,0.0,0.0,0.0,0.0,0.0,0.0,0.0,0.0,0.0,0.0,0.0,0.0,0.0,0.0,0.0,0.0,0.0,0.0,0.0,0.0,0.0,0.0,0.0,0.0,0.0,0.0,0.0,0.0,0.0,0.0,0.0,0.0,0.0,0.0,0.0,0.0,0.0,0.0,0.0,0.0,0.0,0.0,0.0,0.0,0.0,0.0,0.0,0.0,0.0,0.0,0.0,0.0,0.0,0.0,0.0,0.0,0.0,0.0,0.0,0.0,0.0,0.0,0.0,0.0,0.0,0.0,0.0,0.0,0.0,0.0,0.0,0.0,0.0,0.0,0.0,0.0,0.0,0.0,0.0,0.0,0.0,0.0,0.0,0.0,0.0,0.0,0.0,0.0,0.0,0.0,0.0,0.0,0.0,0.0,0.0,0.0,0.0,0.0,0.0,0.0,0.0,0.0,0.0,0.0,0.0,0.0,0.0,0.0,0.0,0.0,0.0,0.0,0.0,0.0,0.0,0.0,0.0,0.0,0.0,0.0,0.0,0.0,0.0,0.0,0.0,0.0,0.0,0.0,0.0,0.0,0.0,0.0,0.0,0.0,0.0,0.0,0.0,0.0,0.0,0.0,0.0,0.0,0.0,0.0,0.0,0.0,0.0,0.0,0.0,0.0,0.0,0.0,0.0,0.0,0.0,0.0,0.0,0.0,0.0,0.0,0.0,0.0,0.0,0.0,0.0,0.0,0.0,0.0,0.0,0.0,0.0,0.0,0.0,0.0,0.0,0.0,0.0,0.0,0.0,0.0,0.0,0.0,0.0,0.0,0.0,0.0,0.0,0.0,0.0,0.0,0.0,0.0,0.0,0.0,0.0,0.0,0.0,0.0,0.0,0.0,0.0,0.0,0.0,0.0,0.0,0.0,0.0,0.0,0.0,0.0,0.0,0.0,0.0,0.0,0.0,0.0,0.0,0.0,0.0,0.0,0.0,0.0,0.0,0.0,0.0,0.0,0.0,0.0,0.0,0.0,0.0,0.0,0.0,0.0,0.0,0.0,0.0,0.0,0.0,0.0,0.0,0.0,0.0,0.0,0.0,0.0,0.0,0.0,0.0,0.0,0.0,0.0,0.0,0.0,0.0,0.0,0.0,0.0,0.0,0.0,0.0,0.0,0.0,0.0,0.0,0.0,0.0,0.0,0.0,0.0,0.0,0.0,0.0,0.0,0.0,0.0,0.0,0.0,0.0,0.0,0.0,0.0,0.0,0.0,0.0,0.0,0.0,0.0,0.0,0.0,0.0,0.0,0.0,0.0,0.0,0.0,0.0,0.0,0.0,0.0,0.0,0.0,0.0,0.0,0.0,0.0,0.0,0.0,0.0,0.0,0.0,0.0,0.0,0.0,0.0,0.0,0.0,0.0,0.0,0.0,0.0,0.0,0.0,0.0,0.0,0.0,0.0,0.0,0.0,0.0,0.0,0.0,0.0,0.0,0.0,0.0,0.0,0.0,0.0,0.0,0.0,0.0,0.0,0.0,0.0,0.0,0.0,0.0,0.0,0.0,0.0,0.0,0.0,0.0,0.0,0.0,0.0,0.0,0.0,0.0,0.0,0.0,0.0,0.0,0.0,0.0,0.0,0.0,0.0,0.0,0.0,0.0,0.0,0.0,0.0,0.0,0.0,0.0,0.0,0.0,0.0,0.0,0.0,0.0,0.0,0.0,0.0,0.0,0.0,0.0,0.0,0.0,0.0,0.0,0.0,0.0,0.0,0.0,0.0,0.0,0.0,0.0,0.0,0.0,0.0,0.0,0.0,0.0,0.0,0.0,0.0,0.0,0.0,0.0,0.0,0.0,0.0,0.0,0.0,0.0,0.0,0.0,0.0,0.0,0.0,0.0,0.0,0.0,0.0,0.0,0.0,0.0,0.0,0.0,0.0,0.0,0.0,0.0,0.0,0.0,0.0,0.0,0.0,0.0,0.0,0.0,0.0,0.0,0.0,0.0,0.0,0.0,0.0,0.0,0.0,0.0,0.0,0.0,0.0,0.0,0.0,0.0,0.0,0.0,0.0,0.0,0.0,0.0,0.0,0.0,0.0,0.0,0.0,0.0,0.0,0.0,0.0,0.0,0.0,0.0,0.0,0.0,0.0,0.0,0.0,0.0,0.0,0.0,0.0,0.0,0.0,0.0,0.0,0.0,0.0,0.0,0.0,0.0,0.0,0.0,0.0,0.0,0.0,0.0,0.0,0.0,0.0,0.0,0.0,0.0,0.0,0.0,0.0,0.0,0.0,0.0,0.0,0.0,0.0,0.0,0.0,0.0,0.0,0.0,0.0,0.0,0.0,0.0,2.5267,0.0,0.0,0.0,0.0,0.0,0.0,0.0,0.0,0.0,0.0,0.0,0.0,0.0,0.0,0.0,0.0,0.0,0.0,0.0,0.0,0.0,0.0,0.0,0.0,0.0,0.0,0.0,0.0,0.0,0.0,0.0,0.0,0.0,0.0,0.0,0.0,0.0,0.0,0.0,0.0,0.0,0.0,0.0,0.0,0.0,0.0,0.0,0.0,0.0,0.0,0.0,0.0,0.0,0.0,0.0,0.0,0.0,0.0,0.0,0.0,0.0,0.0,0.0,0.0,0.0,0.0,0.0,0.0,0.0,0.0,0.0,0.0,0.0,0.0,0.0,0.0,0.0,0.0,0.0,0.0,0.0,0.0,0.0,0.0,0.0,0.0,0.0,0.0,0.0,0.0,0.0,0.0,0.0,0.0,0.0,0.0,0.0,0.0,0.0,0.0,0.0,0.0,0.0,0.0,0.0,0.0,0.0,0.0,0.0,0.0,2.5585,2.4759,2.656,2.6747,2.5001,0.0,0.0,0.0,0.0,0.0,0.0,0.0,0.0,0.0,0.0,0.0,0.0,0.0,0.0,0.0,0.0,0.0,0.0,0.0,0.0,0.0,0.0,0.0,0.0,0.0,0.0,0.0,0.0,0.0,0.0,0.0,0.0,0.0,0.0,0.0,0.0,0.0,0.0,0.0,0.0,0.0,0.0,0.0,0.0,0.0,0.0,0.0,0.0,0.0,0.0,0.0,0.0,0.0,0.0,0.0,0.0,0.0,0.0,0.0,0.0,0.0,0.0,0.0,0.0,0.0,0.0,0.0,0.0,0.0,0.0,0.0,0.0,0.0,0.0,0.0,0.0,0.0,0.0,0.0,0.0,0.0,0.0,0.0,0.0,0.0,0.0,0.0,0.0,0.0,0.0,0.0,0.0,0.0,0.0,0.0,0.0,0.0,0.0,0.0,0.0,0.0,0.0,0.0,0.0,0.0,0.0,0.0,0.0,0.0,0.0,0.0,0.0,2.6434,2.6588,2.5225,0.0,0.0,0.0,0.0,0.0,0.0,0.0,0.0,0.0,0.0,0.0,0.0,0.0,0.0,0.0,0.0,0.0,0.0,0.0,0.0,0.0,0.0,0.0,0.0,0.0,0.0,0.0,0.0,0.0,0.0,0.0,0.0,0.0,0.0,0.0,0.0,0.0,0.0,0.0,0.0,0.0,0.0,0.0,0.0,0.0,0.0,0.0,0.0,0.0,0.0,0.0,0.0,0.0,0.0,0.0,0.0,0.0,0.0,0.0,0.0,0.0,0.0,0.0,0.0,0.0,0.0,0.0,0.0,0.0,0.0,0.0,0.0,0.0,0.0,0.0,0.0,0.0,0.0,0.0,0.0,0.0,0.0,0.0,0.0,0.0,0.0,0.0,0.0,0.0,0.0,0.0,0.0,0.0,0.0,0.0,0.0,0.0,0.0,0.0,0.0,0.0,0.0,0.0,0.0,0.0,0.0,0.0,0.0,0.0,0.0,2.4999,2.5789,2.6076,0.0,2.6097,0.0,0.0,0.0,0.0,0.0,0.0,0.0,0.0,0.0,0.0,0.0,0.0,0.0,0.0,0.0,0.0,0.0,0.0,0.0,0.0,0.0,0.0,0.0,0.0,0.0,0.0,0.0,0.0,0.0,0.0,0.0,0.0,0.0,0.0,0.0,0.0,0.0,0.0,0.0,0.0,0.0,0.0,0.0,0.0,0.0,0.0,0.0,0.0,0.0,0.0,0.0,0.0,0.0,0.0,0.0,0.0,0.0,0.0,0.0,0.0,0.0,0.0,0.0,0.0,0.0,0.0,0.0,0.0,0.0,0.0,0.0,0.0,0.0,0.0,0.0,0.0,0.0,0.0,0.0,0.0,0.0,0.0,0.0,0.0,0.0,0.0,0.0,0.0,0.0,0.0,0.0,0.0,0.0,0.0,0.0,0.0,0.0,0.0,0.0,0.0,0.0,0.0,0.0,0.0,0.0,0.0,0.0,0.0,0.0,0.0,2.4713,2.5769,2.5951,2.5831,0.0,0.0,0.0,0.0,0.0,0.0,0.0,0.0,0.0,0.0,0.0,0.0,0.0,0.0,0.0,0.0,0.0,0.0,0.0,0.0,0.0,0.0,0.0,0.0,0.0,0.0,0.0,0.0,0.0,0.0,0.0,0.0,0.0,0.0,0.0,0.0,0.0,0.0,0.0,0.0,0.0,0.0,0.0,0.0,0.0,0.0,0.0,0.0,0.0,0.0,0.0,0.0,0.0,0.0,0.0,0.0,0.0,0.0,0.0,0.0,0.0,0.0,0.0,0.0,0.0,0.0,0.0,0.0,0.0,0.0,0.0,0.0,0.0,0.0,0.0,0.0,0.0,0.0,0.0,0.0,0.0,0.0,0.0,0.0,0.0,0.0,0.0,0.0,0.0,0.0,0.0,0.0,0.0,0.0,0.0,0.0,0.0,0.0,0.0,0.0,0.0,0.0,0.0,0.0,0.0,0.0,0.0,0.0,0.0,0.0,2.462,2.5005,2.6065,2.5752,2.5401,2.5096,0.0,0.0,0.0,0.0,0.0,0.0,0.0,0.0,0.0,0.0,0.0,0.0,0.0,0.0,0.0,0.0,0.0,0.0,0.0,0.0,0.0,0.0,0.0,0.0,0.0,0.0,0.0,0.0,0.0,0.0,0.0,0.0,0.0,0.0,0.0,0.0,0.0,0.0,0.0,0.0,0.0,0.0,0.0,0.0,0.0,0.0,0.0,0.0,0.0,0.0,0.0,0.0,0.0,0.0,0.0,0.0,0.0,0.0,0.0,0.0,0.0,0.0,0.0,0.0,0.0,0.0,0.0,0.0,0.0,0.0,0.0,0.0,0.0,0.0,0.0,0.0,0.0,0.0,0.0,0.0,0.0,0.0,0.0,0.0,0.0,0.0,0.0,0.0,0.0,0.0,0.0,0.0,0.0,0.0,0.0,0.0,0.0,0.0,0.0,0.0,0.0,0.0,0.0,0.0,0.0,0.0,0.0,0.0,0.0,2.6065,2.6134,2.7099,2.5448,2.4987,0.0,0.0,0.0,0.0,0.0,0.0,0.0,0.0,0.0,0.0,0.0,0.0,0.0,0.0,0.0,0.0,0.0,0.0,0.0,0.0,0.0,0.0,0.0,0.0,0.0,0.0,0.0,0.0,0.0,0.0,0.0,0.0,0.0,0.0,0.0,0.0,0.0,0.0,0.0,0.0,0.0,0.0,0.0,0.0,0.0,0.0,0.0,0.0,0.0,0.0,0.0,0.0,0.0,0.0,0.0,0.0,0.0,0.0,0.0,0.0,0.0,0.0,0.0,0.0,0.0,0.0,0.0,0.0,0.0,0.0,0.0,0.0,0.0,0.0,0.0,0.0,0.0,0.0,0.0,0.0,0.0,0.0,0.0,0.0,0.0,0.0,0.0,0.0,0.0,0.0,0.0,0.0,0.0,0.0,0.0,0.0,0.0,0.0,0.0,0.0,0.0,0.0,0.0,0.0,0.0,0.0,0.0,0.0,0.0,2.4874,2.5917,2.6415,2.6173,2.6226,2.6218,0.0,0.0,0.0,0.0,0.0,0.0,0.0,0.0,0.0,0.0,0.0,0.0,0.0,0.0,0.0,0.0,0.0,0.0,0.0,0.0,0.0,0.0,0.0,0.0,0.0,0.0,0.0,0.0,0.0,0.0,0.0,0.0,0.0,0.0,0.0,0.0,0.0,0.0,0.0,0.0,0.0,0.0,0.0,0.0,0.0,0.0,0.0,0.0,0.0,0.0,0.0,0.0,0.0,0.0,0.0,0.0,0.0,0.0,0.0,0.0,0.0,0.0,0.0,0.0,0.0,0.0,0.0,0.0,0.0,0.0,0.0,0.0,0.0,0.0,0.0,0.0,0.0,0.0,0.0,0.0,0.0,0.0,0.0,0.0,0.0,0.0,0.0,0.0,0.0,0.0,0.0,0.0,0.0,0.0,0.0,0.0,0.0,0.0,0.0,0.0,0.0,0.0,0.0,0.0,0.0,0.0,0.0,0.0,0.0,2.5142,0.0,2.7825,0.0,2.7144,2.6863,0.0,0.0,0.0,0.0,0.0,0.0,0.0,0.0,0.0,0.0,0.0,0.0,0.0,0.0,0.0,0.0,0.0,0.0,0.0,0.0,0.0,0.0,0.0,0.0,0.0,0.0,0.0,0.0,0.0,0.0,0.0,0.0,0.0,0.0,0.0,0.0,0.0,0.0,0.0,0.0,0.0,0.0,0.0,0.0,0.0,0.0,0.0,0.0,0.0,0.0,0.0,0.0,0.0,0.0,0.0,0.0,0.0,0.0,0.0,0.0,0.0,0.0,0.0,0.0,0.0,0.0,0.0,0.0,0.0,0.0,0.0,0.0,0.0,0.0,0.0,0.0,0.0,0.0,0.0,0.0,0.0,0.0,0.0,0.0,0.0,0.0,0.0,0.0,0.0,0.0,0.0,0.0,0.0,0.0,0.0,0.0,0.0,0.0,0.0,0.0,0.0,0.0,0.0,0.0,0.0,0.0,0.0,0.0,2.5353,2.8138,2.9894,3.0359,2.9692,2.8042,2.6795,0.0,0.0,0.0,0.0,0.0,0.0,0.0,0.0,0.0,0.0,0.0,0.0,0.0,0.0,0.0,0.0,0.0,0.0,0.0,0.0,0.0,0.0,0.0,0.0,0.0,0.0,0.0,0.0,0.0,0.0,0.0,0.0,0.0,0.0,0.0,0.0,0.0,0.0,0.0,0.0,0.0,0.0,0.0,0.0,0.0,0.0,0.0,0.0,0.0,0.0,0.0,0.0,0.0,0.0,0.0,0.0,0.0,0.0,0.0,0.0,0.0,0.0,0.0,0.0,0.0,0.0,0.0,0.0,0.0,0.0,0.0,0.0,0.0,0.0,0.0,0.0,0.0,0.0,0.0,0.0,0.0,0.0,0.0,0.0,0.0,0.0,0.0,0.0,0.0,0.0,0.0,0.0,0.0,0.0,0.0,0.0,0.0,0.0,0.0,0.0,0.0,0.0,0.0,0.0,0.0,0.0,0.0,0.0,0.0,2.7274,2.9659,3.086,3.0611,2.902,2.8059,0.0,0.0,0.0,0.0,0.0,0.0,0.0,0.0,0.0,0.0,0.0,0.0,0.0,0.0,0.0,0.0,0.0,0.0,0.0,0.0,0.0,0.0,0.0,0.0,0.0,0.0,0.0,0.0,0.0,0.0,0.0,0.0,0.0,0.0,0.0,0.0,0.0,0.0,0.0,0.0,0.0,0.0,0.0,0.0,0.0,0.0,0.0,0.0,0.0,0.0,0.0,0.0,0.0,0.0,0.0,0.0,0.0,0.0,0.0,0.0,0.0,0.0,0.0,0.0,0.0,0.0,0.0,0.0,0.0,0.0,0.0,0.0,0.0,0.0,0.0,0.0,0.0,0.0,0.0,0.0,0.0,0.0,0.0,0.0,0.0,0.0,0.0,0.0,0.0,0.0,0.0,0.0,0.0,0.0,0.0,0.0,0.0,0.0,0.0,0.0,0.0,0.0,0.0,0.0,0.0,0.0,0.0,0.0,0.0,2.9249,3.1234,3.2227,3.1939,3.0323,2.9183,2.8608,0.0,0.0,0.0,0.0,0.0,0.0,0.0,0.0,0.0,0.0,0.0,0.0,0.0,0.0,0.0,0.0,0.0,0.0,0.0,0.0,0.0,0.0,0.0,0.0,0.0,0.0,0.0,0.0,0.0,0.0,0.0,0.0,0.0,0.0,0.0,0.0,0.0,0.0,0.0,0.0,0.0,0.0,0.0,0.0,0.0,0.0,0.0,0.0,0.0,0.0,0.0,0.0,0.0,0.0,0.0,0.0,0.0,0.0,0.0,0.0,0.0,0.0,0.0,0.0,0.0,0.0,0.0,0.0,0.0,0.0,0.0,0.0,0.0,0.0,0.0,0.0,0.0,0.0,0.0,0.0,0.0,0.0,0.0,0.0,0.0,0.0,0.0,0.0,0.0,0.0,0.0,0.0,0.0,0.0,0.0,0.0,0.0,0.0,0.0,0.0,0.0,0.0,0.0,0.0,0.0,0.0,0.0,0.0,3.3162,3.4207,3.4352,3.3563,3.1827,3.0161,0.0,0.0,0.0,0.0,0.0,0.0,0.0,0.0,0.0,0.0,0.0,0.0,0.0,0.0,0.0,0.0,0.0,0.0,0.0,0.0,0.0,0.0,0.0,0.0,0.0,0.0,0.0,0.0,0.0,0.0,0.0,0.0,0.0,0.0,0.0,0.0,0.0,0.0,0.0,0.0,0.0,0.0,0.0,0.0,0.0,0.0,0.0,0.0,0.0,0.0,0.0,0.0,0.0,0.0,0.0,0.0,0.0,0.0,0.0,0.0,0.0,0.0,0.0,0.0,0.0,0.0,0.0,0.0,0.0,0.0,0.0,0.0,0.0,0.0,0.0,0.0,0.0,0.0,0.0,0.0,0.0,0.0,0.0,0.0,0.0,0.0,0.0,0.0,0.0,0.0,0.0,0.0,0.0,0.0,0.0,0.0,0.0,0.0,0.0,0.0,0.0,0.0,0.0,0.0,0.0,0.0,0.0,0.0,0.0,3.3114,3.5346,3.6268,3.55,3.3218,3.1571,0.0,0.0,0.0,0.0,0.0,0.0,0.0,0.0,0.0,0.0,0.0,0.0,0.0,0.0,0.0,0.0,0.0,0.0,0.0,0.0,0.0,0.0,0.0,0.0,0.0,0.0,0.0,0.0,0.0,0.0,0.0,0.0,0.0,0.0,0.0,0.0,0.0,0.0,0.0,0.0,0.0,0.0,0.0,0.0,0.0,0.0,0.0,0.0,0.0,0.0,0.0,0.0,0.0,0.0,0.0,0.0,0.0,0.0,0.0,0.0,0.0,0.0,0.0,0.0,0.0,0.0,0.0,0.0,0.0,0.0,0.0,0.0,0.0,0.0,0.0,0.0,0.0,0.0,0.0,0.0,0.0,0.0,0.0,0.0,0.0,0.0,0.0,0.0,0.0,0.0,0.0,0.0,0.0,0.0,0.0,0.0,0.0,0.0,0.0,0.0,0.0,0.0,0.0,0.0,0.0,0.0,0.0,0.0,3.3821,3.5226,3.7349,3.8092,3.7371,3.522,3.3358,0.0,0.0,0.0,0.0,0.0,0.0,0.0,0.0,0.0,0.0,0.0,0.0,0.0,0.0,0.0,0.0,0.0,0.0,0.0,0.0,0.0,0.0,0.0,0.0,0.0,0.0,0.0,0.0,0.0,0.0,0.0,0.0,0.0,0.0,0.0,0.0,0.0,0.0,0.0,0.0,0.0,0.0,0.0,0.0,0.0,0.0,0.0,0.0,0.0,0.0,0.0,0.0,0.0,0.0,0.0,0.0,0.0,0.0,0.0,0.0,0.0,0.0,0.0,0.0,0.0,0.0,0.0,0.0,0.0,0.0,0.0,0.0,0.0,0.0,0.0,0.0,0.0,0.0,0.0,0.0,0.0,0.0,0.0,0.0,0.0,0.0,0.0,0.0,0.0,0.0,0.0,0.0,0.0,0.0,0.0,0.0,0.0,0.0,0.0,0.0,0.0,0.0,0.0,0.0,0.0,0.0,0.0,0.0,3.5479,3.8213,3.9413,3.9655,3.8922,3.7309,3.5278,0.0,0.0,0.0,0.0,0.0,0.0,0.0,0.0,0.0,0.0,0.0,0.0,0.0,0.0,0.0,0.0,0.0,0.0,0.0,0.0,0.0,0.0,0.0,0.0,0.0,0.0,0.0,0.0,0.0,0.0,0.0,0.0,0.0,0.0,0.0,0.0,0.0,0.0,0.0,0.0,0.0,0.0,0.0,0.0,0.0,0.0,0.0,0.0,0.0,0.0,0.0,0.0,0.0,0.0,0.0,0.0,0.0,0.0,0.0,0.0,0.0,0.0,0.0,0.0,0.0,0.0,0.0,0.0,0.0,0.0,0.0,0.0,0.0,0.0,0.0,0.0,0.0,0.0,0.0,0.0,0.0,0.0,0.0,0.0,0.0,0.0,0.0,0.0,0.0,0.0,0.0,0.0,0.0,0.0,0.0,0.0,0.0,0.0,0.0,0.0,0.0,0.0,0.0,0.0,0.0,0.0,0.0,0.0,3.5972,3.8245,3.9407,3.9941,3.9746,3.8283,3.6281,0.0,0.0,0.0,0.0,0.0,0.0,0.0,0.0,0.0,0.0,0.0,0.0,0.0,0.0,0.0,0.0,0.0,0.0,0.0,0.0,0.0,0.0,0.0,0.0,0.0,0.0,0.0,0.0,0.0,0.0,0.0,0.0,0.0,0.0,0.0,0.0,0.0,0.0,0.0,0.0,0.0,0.0,0.0,0.0,0.0,0.0,0.0,0.0,3.5033,0.0,0.0,0.0,0.0,0.0,0.0,0.0,0.0,0.0,0.0,0.0,0.0,0.0,0.0,0.0,0.0,0.0,0.0,0.0,0.0,0.0,0.0,0.0,0.0,0.0,0.0,0.0,0.0,0.0,0.0,0.0,0.0,0.0,0.0,0.0,0.0,0.0,0.0,0.0,0.0,0.0,0.0,0.0,0.0,0.0,0.0,0.0,0.0,0.0,0.0,0.0,0.0,0.0,0.0,0.0,0.0,0.0,0.0,0.0,3.6856,3.8863,3.9623,3.9996,3.9969,3.9355,3.7772,0.0,0.0,0.0,0.0,0.0,0.0,0.0,0.0,0.0,0.0,0.0,0.0,0.0,0.0,0.0,0.0,0.0,0.0,0.0,0.0,0.0,0.0,0.0,0.0,0.0,0.0,0.0,0.0,0.0,0.0,0.0,0.0,0.0,0.0,0.0,0.0,0.0,0.0,0.0,0.0,0.0,0.0,0.0,0.0,0.0,0.0,0.0,0.0,0.0,0.0,0.0,0.0,0.0,0.0,0.0,0.0,0.0,0.0,0.0,0.0,0.0,0.0,0.0,0.0,0.0,0.0,0.0,0.0,0.0,0.0,0.0,0.0,0.0,0.0,0.0,0.0,0.0,0.0,0.0,0.0,0.0,0.0,0.0,0.0,0.0,0.0,0.0,0.0,0.0,0.0,0.0,0.0,0.0,0.0,0.0,0.0,0.0,0.0,0.0,0.0,0.0,0.0,0.0,0.0,0.0,0.0,0.0,3.654,3.786,3.9702,3.9898,4.0046,4.0181,4.0291,3.9153,3.6591,0.0,0.0,0.0,0.0,0.0,0.0,0.0,0.0,0.0,0.0,0.0,0.0,0.0,0.0,0.0,0.0,0.0,0.0,0.0,0.0,0.0,0.0,0.0,0.0,0.0,0.0,0.0,0.0,0.0,0.0,0.0,0.0,0.0,0.0,0.0,0.0,0.0,0.0,3.3601,3.4535,0.0,0.0,0.0,0.0,0.0,0.0,0.0,0.0,3.7602,0.0,0.0,0.0,0.0,0.0,0.0,0.0,0.0,0.0,0.0,0.0,0.0,0.0,0.0,0.0,0.0,0.0,0.0,0.0,0.0,0.0,0.0,0.0,0.0,0.0,0.0,0.0,0.0,0.0,0.0,0.0,0.0,0.0,0.0,0.0,0.0,0.0,0.0,0.0,0.0,0.0,0.0,0.0,0.0,0.0,0.0,0.0,0.0,0.0,0.0,0.0,0.0,0.0,0.0,0.0,0.0,3.7299,3.7529,3.8622,4.0516,4.0041,4.0136,4.0962,4.0439,3.9261,3.7381,0.0,0.0,0.0,0.0,0.0,0.0,0.0,0.0,0.0,0.0,0.0,0.0,0.0,0.0,0.0,0.0,0.0,0.0,0.0,0.0,0.0,0.0,0.0,0.0,0.0,0.0,0.0,0.0,0.0,0.0,0.0,0.0,0.0,0.0,0.0,0.0,0.0,0.0,0.0,3.6278,3.6999,0.0,0.0,0.0,0.0,0.0,0.0,0.0,0.0,3.7052,0.0,0.0,0.0,0.0,0.0,0.0,0.0,0.0,0.0,0.0,0.0,0.0,0.0,0.0,0.0,0.0,0.0,0.0,0.0,0.0,0.0,0.0,0.0,0.0,0.0,0.0,0.0,0.0,0.0,0.0,0.0,0.0,0.0,0.0,0.0,0.0,0.0,0.0,0.0,0.0,0.0,0.0,0.0,0.0,0.0,0.0,0.0,0.0,0.0,0.0,0.0,0.0,0.0,0.0,0.0,3.7699,3.9202,4.0248,4.0778,4.0533,4.0632,4.1173,4.0473,3.9307,0.0,0.0,0.0,0.0,0.0,0.0,0.0,0.0,0.0,0.0,0.0,0.0,0.0,0.0,0.0,0.0,0.0,0.0,0.0,0.0,0.0,0.0,0.0,0.0,0.0,0.0,0.0,0.0,0.0,0.0,0.0,0.0,0.0,0.0,0.0,0.0,0.0,0.0,0.0,0.0,3.5937,3.676,3.7381,0.0,0.0,0.0,0.0,0.0,0.0,3.9113,3.8999,0.0,0.0,0.0,0.0,0.0,0.0,0.0,0.0,0.0,0.0,0.0,0.0,0.0,0.0,0.0,0.0,0.0,0.0,0.0,0.0,0.0,0.0,0.0,0.0,0.0,0.0,0.0,0.0,0.0,0.0,0.0,0.0,0.0,0.0,0.0,0.0,0.0,0.0,0.0,0.0,0.0,0.0,0.0,0.0,0.0,0.0,0.0,0.0,0.0,0.0,0.0,0.0,0.0,0.0,0.0,3.8247,4.0639,4.1733,4.1285,4.1237,4.134,4.1666,4.0919,3.9685,0.0,0.0,0.0,0.0,0.0,0.0,0.0,0.0,0.0,0.0,0.0,0.0,0.0,0.0,0.0,0.0,0.0,0.0,0.0,0.0,0.0,0.0,0.0,0.0,0.0,0.0,0.0,0.0,0.0,0.0,0.0,0.0,0.0,0.0,0.0,0.0,0.0,0.0,0.0,0.0,0.0,3.6607,3.7473,3.848,0.0,0.0,0.0,0.0,4.0957,4.0957,0.0,0.0,0.0,0.0,0.0,0.0,0.0,0.0,0.0,0.0,0.0,0.0,0.0,0.0,0.0,0.0,0.0,0.0,0.0,0.0,0.0,0.0,0.0,0.0,0.0,0.0,0.0,0.0,0.0,0.0,0.0,0.0,0.0,0.0,0.0,0.0,0.0,0.0,0.0,0.0,0.0,0.0,0.0,0.0,0.0,0.0,0.0,0.0,0.0,0.0,0.0,0.0,0.0,0.0,0.0,0.0,3.9741,4.1051,4.2116,4.2854,4.2163,4.2303,4.3372,4.2464,4.0959,0.0,0.0,0.0,0.0,0.0,0.0,0.0,0.0,0.0,0.0,0.0,0.0,0.0,0.0,0.0,0.0,0.0,0.0,0.0,0.0,0.0,0.0,0.0,0.0,0.0,0.0,0.0,0.0,0.0,0.0,0.0,0.0,0.0,0.0,0.0,0.0,0.0,0.0,0.0,0.0,0.0,3.8065,3.8271,3.9768,4.0777,0.0,0.0,4.0928,4.1659,4.1177,0.0,0.0,0.0,0.0,0.0,0.0,0.0,0.0,0.0,0.0,0.0,0.0,0.0,0.0,0.0,0.0,0.0,0.0,0.0,0.0,0.0,0.0,0.0,0.0,0.0,0.0,0.0,0.0,0.0,0.0,0.0,0.0,0.0,0.0,0.0,0.0,0.0,0.0,0.0,0.0,0.0,0.0,0.0,0.0,0.0,0.0,0.0,0.0,0.0,0.0,0.0,0.0,0.0,0.0,0.0,3.9645,4.0721,4.2783,4.3833,4.3787,4.309,4.2975,4.3583,4.2753,4.1459,0.0,0.0,0.0,0.0,0.0,0.0,0.0,0.0,0.0,0.0,0.0,0.0,0.0,0.0,0.0,0.0,0.0,0.0,0.0,0.0,0.0,0.0,0.0,0.0,0.0,0.0,0.0,0.0,0.0,0.0,0.0,0.0,0.0,0.0,0.0,0.0,0.0,0.0,0.0,0.0,0.0,0.0,3.9565,4.1258,0.0,0.0,0.0,4.2932,4.3369,0.0,0.0,0.0,0.0,0.0,0.0,0.0,0.0,0.0,0.0,0.0,0.0,0.0,0.0,0.0,0.0,0.0,0.0,0.0,0.0,0.0,0.0,0.0,0.0,0.0,0.0,0.0,0.0,0.0,0.0,0.0,0.0,0.0,0.0,0.0,0.0,0.0,0.0,0.0,0.0,0.0,0.0,0.0,0.0,0.0,0.0,0.0,0.0,0.0,0.0,0.0,0.0,0.0,0.0,0.0,0.0,0.0,4.1525,4.4129,4.5147,4.4603,4.3929,4.3673,4.3793,4.3324,0.0,0.0,0.0,0.0,0.0,0.0,0.0,0.0,0.0,0.0,0.0,0.0,0.0,0.0,0.0,0.0,0.0,0.0,0.0,0.0,0.0,0.0,0.0,0.0,0.0,0.0,0.0,2.9516,0.0,0.0,0.0,0.0,0.0,0.0,0.0,0.0,0.0,0.0,0.0,0.0,0.0,0.0,3.9329,4.0726,4.2686,4.4136,0.0,0.0,4.4699,4.483,4.4601,4.4145,0.0,0.0,0.0,0.0,0.0,0.0,0.0,0.0,0.0,0.0,0.0,0.0,0.0,0.0,0.0,0.0,0.0,0.0,0.0,0.0,0.0,0.0,0.0,0.0,0.0,0.0,0.0,0.0,0.0,0.0,0.0,0.0,0.0,0.0,0.0,0.0,0.0,0.0,0.0,0.0,0.0,0.0,0.0,0.0,0.0,0.0,0.0,0.0,0.0,0.0,0.0,0.0,0.0,0.0,0.0,4.2357,4.43,4.535,4.5317,4.475,4.4523,4.4695,4.4726,4.3623,0.0,0.0,0.0,0.0,0.0,0.0,0.0,0.0,0.0,0.0,0.0,0.0,0.0,0.0,0.0,0.0,0.0,0.0,0.0,0.0,0.0,0.0,0.0,0.0,0.0,0.0,0.0,0.0,0.0,0.0,0.0,0.0,0.0,0.0,0.0,0.0,0.0,0.0,0.0,0.0,0.0,4.0682,4.1432,4.3776,4.5466,0.0,0.0,4.5512,4.5521,4.4901,4.4145,4.336,0.0,0.0,0.0,0.0,0.0,0.0,0.0,0.0,0.0,0.0,0.0,0.0,0.0,0.0,0.0,0.0,0.0,0.0,0.0,0.0,0.0,0.0,0.0,0.0,0.0,0.0,0.0,0.0,0.0,0.0,0.0,0.0,0.0,0.0,0.0,0.0,0.0,0.0,0.0,0.0,0.0,0.0,0.0,0.0,0.0,0.0,0.0,0.0,0.0,0.0,0.0,0.0,0.0,4.2482,4.3205,4.558,4.6566,4.6094,4.5588,4.5166,4.4679,4.4877,4.378,0.0,0.0,0.0,0.0,0.0,0.0,0.0,0.0,0.0,0.0,0.0,0.0,0.0,0.0,0.0,0.0,0.0,0.0,0.0,0.0,0.0,0.0,0.0,0.0,0.0,0.0,0.0,0.0,3.4693,3.5755,3.7569,0.0,0.0,0.0,0.0,0.0,0.0,0.0,0.0,0.0,0.0,4.3703,4.3973,4.5312,0.0,0.0,4.663,4.6484,4.7085,4.6091,4.5177,4.4848,4.4364,0.0,0.0,0.0,0.0,0.0,0.0,0.0,0.0,0.0,0.0,0.0,0.0,0.0,0.0,0.0,0.0,0.0,0.0,0.0,0.0,0.0,0.0,0.0,0.0,0.0,0.0,0.0,0.0,0.0,0.0,0.0,0.0,0.0,0.0,0.0,0.0,0.0,0.0,0.0,0.0,0.0,0.0,0.0,0.0,0.0,0.0,0.0,0.0,0.0,0.0,0.0,0.0,4.3594,4.4128,4.6726,4.7664,4.6847,4.621,4.5581,4.4982,4.5003,4.402,0.0,0.0,0.0,0.0,0.0,0.0,0.0,0.0,0.0,0.0,0.0,0.0,0.0,0.0,0.0,0.0,0.0,0.0,0.0,0.0,0.0,0.0,0.0,0.0,0.0,0.0,0.0,0.0,3.709,3.8041,3.9443,0.0,0.0,0.0,0.0,0.0,0.0,0.0,0.0,0.0,0.0,4.5879,4.585,4.6779,4.7593,4.7995,4.7544,4.7372,4.8097,4.7284,4.6478,4.6222,0.0,0.0,0.0,0.0,0.0,0.0,0.0,0.0,0.0,0.0,0.0,0.0,0.0,0.0,0.0,0.0,0.0,0.0,0.0,0.0,0.0,0.0,0.0,0.0,0.0,0.0,0.0,0.0,0.0,0.0,0.0,0.0,0.0,0.0,0.0,0.0,0.0,0.0,0.0,0.0,0.0,0.0,0.0,0.0,0.0,0.0,0.0,0.0,0.0,0.0,0.0,0.0,0.0,4.5033,4.5107,4.7548,4.8481,4.7673,4.645,4.5827,4.5752,4.5343,4.4575,4.3448,0.0,0.0,0.0,0.0,0.0,0.0,0.0,0.0,0.0,0.0,0.0,0.0,0.0,0.0,0.0,0.0,0.0,0.0,0.0,0.0,0.0,0.0,0.0,0.0,0.0,0.0,3.7789,3.9337,4.0266,0.0,0.0,0.0,0.0,0.0,0.0,0.0,0.0,0.0,0.0,4.6111,4.6696,4.6733,4.8077,4.8898,4.8314,4.8224,4.8253,4.836,4.8296,4.8003,0.0,0.0,0.0,0.0,0.0,0.0,0.0,0.0,0.0,0.0,0.0,0.0,0.0,0.0,0.0,0.0,0.0,0.0,0.0,0.0,0.0,0.0,0.0,0.0,0.0,0.0,0.0,3.476,3.471,0.0,0.0,0.0,0.0,0.0,0.0,0.0,0.0,0.0,0.0,0.0,4.1388,4.3053,0.0,0.0,0.0,0.0,0.0,0.0,0.0,0.0,0.0,0.0,0.0,0.0,4.4559,4.5181,4.763,4.8519,4.771,4.7537,4.6889,4.5787,4.6281,4.5746,4.4065,0.0,0.0,0.0,0.0,0.0,0.0,0.0,0.0,0.0,0.0,0.0,0.0,0.0,0.0,0.0,0.0,0.0,0.0,0.0,0.0,0.0,0.0,0.0,0.0,0.0,3.9637,0.0,0.0,0.0,0.0,0.0,0.0,0.0,0.0,0.0,0.0,0.0,4.5609,4.62,4.84,4.9773,4.9253,4.9659,4.9961,0.0,0.0,0.0,0.0,0.0,0.0,0.0,0.0,0.0,0.0,0.0,0.0,0.0,0.0,5.0947,4.8895,4.9789,5.0828,5.0771,0.0,0.0,0.0,0.0,0.0,0.0,0.0,0.0,0.0,0.0,0.0,0.0,0.0,0.0,0.0,0.0,3.7284,0.0,0.0,0.0,0.0,0.0,0.0,0.0,0.0,4.254,4.3452,4.3935,4.5292,4.5912,0.0,4.6225,4.5399,0.0,0.0,0.0,0.0,0.0,0.0,0.0,0.0,4.5589,4.6475,4.8569,4.9329,4.8564,4.8282,4.7635,4.6533,4.6875,4.647,4.5178,4.3333,4.2082,0.0,0.0,0.0,0.0,0.0,0.0,0.0,0.0,0.0,0.0,0.0,0.0,0.0,0.0,0.0,0.0,0.0,0.0,0.0,0.0,0.0,0.0,0.0,4.1749,0.0,0.0,0.0,0.0,0.0,0.0,0.0,0.0,0.0,4.5882,4.7199,4.8343,4.84,5.0252,5.1387,5.0941,0.0,0.0,0.0,0.0,0.0,0.0,0.0,5.2401,5.3008,5.2867,5.2696,5.2872,5.3482,5.3792,5.3471,0.0,0.0,5.1731,5.2358,5.3393,5.3382,5.3277,5.3182,5.317,5.2734,5.2329,0.0,0.0,0.0,0.0,0.0,0.0,0.0,0.0,3.9493,3.9496,0.0,3.9463,0.0,0.0,0.0,0.0,0.0,0.0,0.0,0.0,4.5918,4.6426,4.635,4.7213,4.7659,4.7701,4.8475,4.8467,4.7536,4.4514,0.0,0.0,0.0,0.0,0.0,0.0,4.7998,4.891,5.0379,5.0861,5.0116,4.8791,4.8023,4.7949,4.7202,4.6799,4.6663,4.4981,4.3963,4.3876,4.0082,0.0,0.0,0.0,0.0,0.0,0.0,0.0,0.0,0.0,0.0,0.0,0.0,0.0,0.0,0.0,0.0,0.0,0.0,0.0,0.0,4.1532,0.0,0.0,0.0,0.0,0.0,0.0,0.0,0.0,0.0,0.0,5.0592,4.9815,4.9856,5.1445,0.0,0.0,0.0,0.0,5.3133,5.3277,5.3403,5.3791,5.4565,5.4665,5.4665,5.4733,0.0,0.0,5.4667,5.5181,5.55,5.473,5.6517,5.7313,5.4843,5.5043,5.5581,5.5581,5.5418,5.5253,5.5003,5.4667,5.4183,4.4423,0.0,0.0,0.0,0.0,4.234,4.3009,4.3808,4.4362,4.4682,4.4738,4.4681,0.0,0.0,0.0,0.0,0.0,0.0,4.4074,4.5119,4.6063,4.6467,4.6479,4.7321,4.7981,4.8558,4.9364,4.9923,5.0092,4.8709,4.6814,4.4623,0.0,0.0,0.0,0.0,4.8852,4.9694,5.0704,5.1158,5.1045,5.0701,5.0238,4.9611,4.8791,4.7955,4.722,4.6637,4.5801,4.4699,4.2877,0.0,0.0,0.0,0.0,0.0,0.0,0.0,0.0,0.0,0.0,0.0,0.0,0.0,0.0,0.0,0.0,0.0,0.0,0.0,4.2805,4.4032,4.543,0.0,0.0,0.0,0.0,0.0,0.0,0.0,0.0,0.0,5.3959,5.3178,5.2893,0.0,0.0,5.4293,5.436,5.4631,5.4855,5.4913,0.0,0.0,0.0,5.6311,5.6554,5.7205,5.7365,5.7361,5.714,5.7686,5.8095,5.7838,5.8841,5.9453,5.8831,5.864,5.8604,5.8542,5.7982,5.7675,5.8032,5.7191,5.617,4.7454,4.6556,4.547,4.4925,4.4852,4.5261,4.5749,4.6273,4.6819,4.7078,4.7133,4.7092,4.6635,4.5963,4.6118,0.0,0.0,0.0,4.6783,4.7605,4.8167,4.8444,4.8481,4.8964,4.941,4.993,5.0331,5.0759,5.1222,5.1065,4.9869,4.7716,0.0,0.0,4.7797,4.9021,5.0074,5.0897,5.134,5.1647,5.1797,5.1573,5.1191,5.0654,5.0135,4.9378,4.8475,4.7979,4.7232,4.6091,4.4756,4.3244,0.0,0.0,0.0,0.0,0.0,0.0,0.0,0.0,0.0,0.0,0.0,3.9292,3.7888,0.0,0.0,0.0,4.2664,4.4647,4.6264,4.7348,0.0,0.0,0.0,0.0,0.0,0.0,0.0,5.4962,5.6353,5.7169,5.6836,5.6443,5.5761,5.4675,5.4989,5.546,5.5834,0.0,5.6116,5.6492,5.7271,5.7952,5.8351,5.8436,5.8584,5.9085,5.915,5.9067,5.9092,5.939,5.9673,5.9747,6.0346,6.086,6.086,6.0908,6.0657,5.9998,5.9219,5.8874,5.9254,5.8203,5.7308,4.9769,5.0974,4.8648,4.7631,4.7504,4.7481,4.7516,4.7511,4.7704,4.7699,4.7595,4.7633,4.7464,4.7113,4.7505,0.0,0.0,5.0138,5.0518,5.137,5.1379,5.1379,5.1379,5.1379,5.1407,5.1472,5.1371,5.1315,5.1416,5.2052,5.2089,5.1472,4.9945,4.95,5.0204,5.0801,5.1526,5.2373,5.2264,5.2304,5.249,5.1759,5.1361,5.1315,5.1165,5.0758,5.001,4.9104,4.8311,4.764,4.6005,4.4684,4.3821,0.0,0.0,0.0,0.0,0.0,0.0,0.0,0.0,0.0,0.0,0.0,0.0,0.0,0.0,0.0,4.5498,0.0,4.9522,5.0779,0.0,0.0,0.0,5.4166,5.433,5.5907,5.6923,5.6832,0.0,0.0,0.0,0.0,5.8406,5.5751,5.553,5.5902,5.6699,5.6905,5.7221,5.8058,5.8897,5.9725,6.018,6.0364,6.0318,6.0271,6.0407,6.0309,6.0309,6.0456,6.0481,6.0493,6.1153,6.1704,6.1704,6.2016,6.1946,6.0488,5.9671,5.9189,5.9229,5.8503,5.7794,5.151,5.1805,5.1156,5.0877,5.0824,5.0938,5.0523,4.9875,5.0687,5.0662,5.0009,5.0681,5.0793,5.0505,5.0484,5.062,5.0917,5.1055,5.113,5.126,5.1343,5.1379,5.1379,5.1379,5.1668,5.214,5.2111,5.2396,5.2929,5.3131,5.3494,5.3953,5.2922,5.2219,5.187,5.254,5.2981,5.3232,5.3165,5.3212,5.3225,5.3146,5.2776,5.2042,5.1462,5.0768,4.9945,4.9601,4.9066,4.8329,4.7776,4.6829,4.5396,4.3784,0.0,0.0,0.0,0.0,0.0,0.0,0.0,0.0,0.0,4.3347,4.2868,0.0,4.8615,0.0,4.8468,4.9368,5.0281,5.0649,0.0,0.0,5.519,5.5834,5.7711,5.8342,5.8597,5.8611,5.9857,6.053,6.0018,6.0579,6.0542,5.914,5.9078,5.9015,5.8672,5.9124,5.9576,5.9758,6.0002,6.0235,6.0467,6.0455,6.0492,6.0419,6.0407,6.0407,6.0407,6.0933,6.1312,6.1374,6.1961,6.2437,6.235,6.2391,6.2248,6.1729,6.0811,6.0172,6.0605,5.9623,5.8589,5.2097,5.2435,5.2415,5.2586,5.2874,5.232,5.1718,5.1263,5.188,5.1866,5.1398,5.1771,5.2056,5.2197,5.1972,5.201,5.2296,5.239,5.2362,5.2239,5.2371,5.24,5.2362,5.2325,5.2546,5.2895,5.3215,5.3534,5.3963,5.4332,5.4796,5.5291,5.4769,5.4336,5.3947,5.3659,5.3491,5.3491,5.385,5.382,5.3457,5.3917,5.3588,5.2395,5.1858,5.1229,5.0481,4.9638,4.8917,4.8438,4.7748,4.6875,4.5846,4.5352,4.4464,0.0,0.0,0.0,0.0,0.0,0.0,0.0,0.0,0.0,0.0,0.0,5.1271,0.0,5.193,0.0,5.3723,5.4206,5.5485,5.8014,5.7904,5.8184,5.96,5.9747,5.9747,5.9747,6.0529,6.1019,6.0836,6.1264,6.1423,6.0872,6.1215,6.1031,6.004,6.015,6.0407,6.0407,6.0713,6.108,6.1398,6.1471,6.1471,6.1471,6.1471,6.1471,6.1471,6.1814,6.2144,6.2169,6.2462,6.2692,6.2616,6.2436,6.2301,6.2122,6.147,6.092,6.0915,6.0019,5.9171,5.2671,5.3372,5.3363,5.3774,5.4278,5.3017,5.229,5.2007,5.2261,5.2346,5.2298,5.2069,5.2341,5.2988,5.2679,5.2934,5.3627,5.3795,5.3746,5.3655,5.3857,5.394,5.3823,5.3813,5.3813,5.383,5.4401,5.467,5.4659,5.5385,5.5837,5.5958,5.5848,5.5902,5.5971,5.4542,5.3786,5.3665,5.4336,5.4285,5.3502,5.4195,5.3937,5.2647,5.2299,5.191,5.1342,4.9824,4.8871,4.8611,4.7546,4.6737,4.6318,4.7103,4.7048,0.0,4.6814,0.0,0.0,0.0,0.0,0.0,0.0,0.0,0.0,5.1267,5.3118,5.4237,5.5378,5.6593,5.7882,5.8722,5.9551,6.0456,6.0566,6.0566,6.0566,6.0627,6.0676,6.0566,6.0639,6.1006,6.163,6.1741,6.1741,6.1777,6.2242,6.2169,6.1043,6.0774,6.0811,6.0713,6.13,6.1998,6.2732,6.2903,6.2903,6.2939,6.305,6.3086,6.2939,6.305,6.3123,6.3085,6.2973,6.281,6.2808,6.2636,6.2367,6.2376,6.1998,6.1422,6.0707,6.01,5.9536,5.5735,5.5875,5.579,5.5836,5.5938,5.5629,5.4354,5.2618,5.3438,5.3676,5.3488,5.3358,5.3403,5.3541,5.3358,5.3313,5.3416,5.4152,5.4437,5.4354,5.5112,5.5486,5.5428,5.5428,5.5412,5.5365,5.5527,5.551,5.5397,5.5544,5.6029,5.6731,5.6106,5.616,5.6783,0.0,0.0,0.0,5.4496,5.4444,5.4275,5.4018,5.3748,5.3444,5.2826,0.0,5.2176,5.1774,5.1224,5.048,5.0698,0.0,0.0,0.0,0.0,0.0,0.0,0.0,0.0,0.0,0.0,0.0,5.4411,5.4162,5.2229,5.4849,5.6553,5.6189,5.7586,5.8634,5.8904,5.9099,5.9783,6.119,6.1374,6.1374,6.141,6.1961,6.2095,6.1447,6.1961,6.2389,6.2572,6.2572,6.2572,6.2609,6.2719,6.2683,6.2426,6.2316,6.2352,6.2389,6.2499,6.2879,6.3723,6.3809,6.3833,6.3906,6.4444,6.4481,6.398,6.4334,6.4699,6.4535,6.4007,6.3706,6.4089,6.3666,6.3126,6.303,6.2737,6.2068,6.0783,6.0227,5.9781,5.6441,0.0,5.6382,5.6362,0.0,5.6303,5.5607,5.4502,5.5016,5.5155,5.501,5.4939,5.4889,5.4879,5.4741,5.4658,5.4617,5.5137,5.528,5.517,5.5681,5.5845,5.5748,5.5748,5.5716,5.5698,5.6092,5.6253,5.6235,5.6613,5.7039,5.75,5.7095,5.7118,5.7505,5.7136,5.6396,5.5223,5.5549,5.5532,5.5095,5.5249,5.4828,5.3704,0.0,0.0,0.0,0.0,0.0,0.0,0.0,0.0,0.0,0.0,0.0,5.1156,5.193,5.2401,5.2485,5.3935,5.5236,5.6113,5.762,5.7736,5.5927,5.781,5.893,5.8527,5.9319,5.9967,6.0346,6.0382,6.0848,6.2034,6.2181,6.2181,6.2254,6.2952,6.3246,6.3025,6.3539,6.404,6.404,6.404,6.404,6.404,6.404,6.4004,6.4004,6.3686,6.3429,6.3429,6.3429,6.3429,6.3503,6.4237,6.431,6.3833,6.4163,6.4431,6.4037,6.4281,6.4632,6.4792,6.4479,6.4298,6.4466,6.4188,6.3864,6.3794,6.3667,6.3055,6.1786,6.0945,6.0246,5.6729,5.6729,5.6729,5.6729,5.6729,5.6719,5.6729,5.6729,0.0,0.0,0.0,5.6125,5.6084,5.6111,5.5939,5.5876,5.5876,5.6119,5.6129,5.5995,5.6181,5.619,5.6025,5.6172,5.6246,5.6282,5.7079,5.7361,5.7251,5.8033,5.8327,5.8253,5.8327,5.8364,5.8217,5.8217,5.7565,5.6294,5.6731,5.6625,5.5886,5.6571,5.6008,5.4064,5.3994,5.3984,5.396,5.1925,5.1303,5.2349,5.1564,5.1213,5.161,5.3203,5.4358,5.4877,5.575,5.6246,5.6246,5.6969,5.7776,5.8595,5.9869,6.0224,5.9322,6.0102,6.0603,6.0603,6.075,6.1153,6.1973,6.2047,6.2365,6.316,6.3233,6.3233,6.3306,6.3833,6.431,6.4396,6.4824,6.5288,6.5215,6.5215,6.5325,6.5288,6.5141,6.5362,6.5362,6.4787,6.4323,6.431,6.4127,6.3833,6.3637,6.4334,6.4664,6.3635,6.4162,6.4563,6.4323,6.4307,6.4583,6.525,6.5017,6.4897,6.4964,6.4843,6.4627,6.4613,6.4613,6.426,6.3069,6.1986,6.1011,5.8364,5.8353,5.8353,5.8364,5.8353,5.8353,5.839,5.8242,5.6915,5.632,5.631,5.6183,5.6105,5.6095,5.5876,5.5817,5.5854,5.6419,5.6694,0.0,5.7381,5.77,5.7703,5.8364,5.8682,5.8756,5.949,5.9526,5.9013,5.9636,5.971,5.9196,5.971,5.971,5.9074,5.9049,5.8584,5.77,5.7239,5.6952,5.6794,5.642,5.6101,5.5778,5.5731,5.5679,5.556,5.5138,5.4985,5.506,5.5511,5.5831,5.5933,5.6785,5.7384,5.7496,5.8242,5.8719,5.8719,5.9453,6.0236,6.1006,6.13,6.108,6.0322,6.0958,6.1459,6.1484,6.2059,6.2793,6.3625,6.3699,6.4029,6.4751,6.4921,6.4921,6.4884,6.5031,6.5141,6.5141,6.5215,6.5362,6.5409,6.5385,6.5422,6.5362,6.5545,6.5582,6.6059,6.5655,6.5178,6.5044,6.453,6.4383,6.4651,6.5068,6.5126,6.4765,6.585,6.6395,6.5597,6.5948,6.6344,6.664,6.6038,6.5872,6.6229,6.5895,6.5518,6.5446,6.541,6.5113,6.4217,6.3365,6.2263,6.0062,6.0072,6.0062,6.0025,6.0062,6.0062,6.0035,5.9998,5.9282,5.8396,5.7528,5.7439,5.7577,5.7876,5.7869,5.8061,5.8436,5.8816,5.8929,5.8897,5.9228,5.9352,5.9318,5.9673,5.9857,5.9857,6.0236,6.0236,5.993,6.0224,6.0236,5.9893,6.0236,6.0236,5.9893,5.9857,5.9673,5.9281,5.8153,5.7596,5.7626,5.7459,5.7138,5.6647,5.6694,5.6863,5.7114,5.6625,5.672,5.7519,5.809,5.8375,5.8412,5.9124,5.9567,5.9556,5.9766,5.9857,5.9857,6.0603,6.1594,6.2818,6.2964,6.2989,6.3062,6.2989,6.2952,6.3001,6.3686,6.4297,6.4714,6.4751,6.4897,6.5251,6.5325,6.5325,6.5362,6.5742,6.5886,6.5856,6.621,6.6439,6.6358,6.6426,6.6466,6.6516,6.6533,6.6706,6.6956,6.6736,6.636,6.6009,6.5632,6.5299,6.527,6.5953,6.5973,6.5107,6.5884,6.6363,6.5969,6.6268,6.6539,6.6809,6.6577,6.6511,6.6786,6.6533,6.6279,6.6279,6.6243,6.5917,6.5192,6.4049,6.2537,6.1187,6.1187,6.1187,6.1187,6.1187,6.1187,6.1187,6.1187,6.1187,6.0369,5.9126,5.9063,5.932,5.9754,5.9788,6.01,6.0572,6.0655,6.0644,6.0562,6.055,6.0503,6.0419,6.0566,6.0676,6.0713,6.0811,6.0848,6.0713,6.086,6.0958,6.0921,6.0958,6.086,6.0676,6.0676,6.0566,6.0334,5.9171,5.8593,5.8697,5.8869,5.8593,5.798,5.7965,5.8227,5.8669,5.8017,5.8168,5.9391,5.9891,6.0134,6.0171,6.0862,6.1417,6.1542,6.1358,6.1337,6.1508,6.2071,6.2989,6.4237,6.436,6.464,6.5141,6.4897,6.4543,6.447,6.4897,6.5325,6.5521,6.5595,6.5618,6.5802,6.5852,6.5925,6.5925,6.6376,6.669,6.6605,6.704,6.735,6.7266,6.7322,6.7355,6.7332,6.7524,6.7538,6.7456,6.7428,6.719,6.6819,6.6516,6.6073,6.5417,6.6171,6.6373,6.5164,6.5755,6.6195,6.6169,6.6075,6.6214,6.6707,6.6786,6.675,6.6786,6.6786,6.675,6.6714,6.6714,6.6496,6.5663,6.4498,6.2897,6.1213,6.1187,6.1261,6.1187,6.1261,6.1261,6.1261,6.1261,6.1224,6.0981,6.0629,6.0707,6.0767,6.0807,6.0603,6.0572,6.0659,6.0491,6.048,6.0505,6.0394,6.0419,6.0554,6.1153,6.1484,6.1569,6.2169,6.2095,6.1557,6.2169,6.2536,6.2572,6.2572,6.2169,6.1606,6.1496,6.1153,6.0407,6.0272,6.0199,6.0223,6.0457,6.049,6.0289,6.0367,6.0441,6.0303,6.0185,6.0126,6.0309,6.1018,6.1446,6.1483,6.2206,6.2977,6.3701,6.3724,6.4053,6.4701,6.4921,6.4958,6.5141,6.5178,6.5264,6.5398,6.5912,6.5962,6.5435,6.5288,6.5692,6.6292,6.6366,6.6659,6.7173,6.732,6.748,6.7343,6.7432,6.7424,6.7373,6.7235,6.7224,6.7182,6.721,6.7238,6.7252,6.7294,6.7294,6.7238,6.7238,6.7224,6.6983,6.6545,6.6144,6.5934,6.597,6.6134,6.5826,6.6365,6.6671,6.6656,6.6598,6.675,6.6728,6.6822,6.6822,6.6822,6.6822,6.6822,6.6822,6.675,6.6569,6.5765,6.5045,6.3902,6.2625,6.2625,6.2625,6.2625,6.2625,6.2625,6.2625,6.2625,6.2636,6.2498,6.235,6.2316,6.1976,6.1392,6.132,6.1518,6.1875,6.1826,6.1802,6.1814,6.1802,6.1802,6.1875,6.2144,6.2328,6.2316,6.2646,6.2609,6.2426,6.2646,6.2793,6.2793,6.2793,6.2646,6.2328,6.2377,6.2267,6.1973,6.2033,6.2032,6.1933,6.1146,6.0655,6.0609,6.0655,6.089,6.1128,6.1141,6.1337,6.179,6.2363,6.2679,6.2679,6.3417,6.4008,6.4402,6.4657,6.4971,6.5288,6.5325,6.5508,6.5962,6.5999,6.6182,6.6696,6.696,6.6942,6.6686,6.6693,6.688,6.7136,6.7187,6.737,6.7614,6.762,6.7579,6.7565,6.7428,6.728,6.7233,6.7148,6.704,6.7019,6.7026,6.7111,6.7182,6.721,6.7168,6.7097,6.7069,6.704,6.6968,6.6634,6.6532,6.6531,6.6596,6.6524,6.6482,6.6656,6.683,6.6852,6.6822,6.6786,6.6822,6.6822,6.6822,6.6822,6.6822,6.6822,6.6822,6.6786,6.6569,6.5772,6.5387,6.4635,6.359,6.359,6.359,6.359,6.359,6.359,6.359,6.3579,6.3557,6.344,6.3324,6.3194,6.272,6.2034,6.2059,6.2328,6.2768,6.2793,6.2793,6.2793,6.2793,6.2793,6.2793,6.2793,6.2793,6.2793,6.2793,6.2818,6.2842,6.2855,6.2867,6.2892,6.2904,6.288,6.2867,6.299,6.3039,6.299,6.3123,6.3183,6.3023,6.192,6.126,6.126,6.126,6.147,6.1887,6.1924,6.2181,6.2768,6.3308,6.3563,6.3637,6.4339,6.4881,6.5164,6.5652,6.5962,6.5949,6.5962,6.6219,6.6733,6.6856,6.7076,6.7527,6.7565,6.752,6.7447,6.7538,6.7492,6.7579,6.7579,6.7542,6.7529,6.747,6.7414,6.7414,6.7275,6.7111,6.6997,6.699,6.6918,6.6866,6.6889,6.6954,6.704,6.7069,6.7054,6.699,6.6947,6.6903,6.6801,6.6786,6.683,6.6932,6.6874,6.6889,6.683,6.6822,6.6837,6.6822,6.6822,6.6822,6.6822,6.6822,6.6822,6.6822,6.6822,6.6822,6.6822,6.6786,6.6641,6.617,6.5851,6.5605,6.359,6.359,6.359,6.359,6.359,6.359,6.359,6.3568,6.3488,6.3324,6.3183,6.3075,6.2892,6.2695,6.2695,6.2768,6.2793,6.2793,6.2793,6.2793,6.2793,6.2793,6.2793,6.2793,6.2793,6.2818,6.283,6.288,6.299,6.3002,6.3051,6.3184,6.3147,6.3099,6.3026,6.3111,6.3123,6.3051,6.3184,6.3194,6.322,6.2964,6.2867,6.283,6.2855,6.2745,6.2781,6.2756,6.2793,6.2829,6.365,6.4104,6.4177,6.4862,6.561,6.6332,6.7126,6.7554,6.748,6.7444,6.7517,6.759,6.7554,6.7614,6.7637,6.7538,6.7492,6.747,6.7294,6.7238,6.7238,6.7266,6.7266,6.7252,6.7238,6.7224,6.7224,6.7119,6.6997,6.699,6.6889,6.6815,6.6822,6.6786,6.6815,6.683,6.6815,6.6815,6.683,6.6801,6.6801,6.6786,6.6822,6.6822,6.6801,6.683,6.6815,6.6822,6.6822,6.6822,6.6822,6.6822,6.6822,6.6822,6.6822,6.6822,6.6822,6.6822,6.6822,6.6822,6.6822,6.6641,6.6496,6.6677,6.6467,6.359,6.359,6.359,6.359,6.359,6.359,6.3557,6.3488,6.3405,6.3265,6.3087,6.3026,6.2929,6.2793,6.2793,6.2793,6.2793,6.2793,6.2793,6.2793,6.2793,6.2793,6.2805,6.288,6.2929,6.2941,6.3002,6.3075,6.3111,6.316,6.3135,6.3171,6.3183,6.3196,6.3147,6.3254,6.3289,6.3265,6.3396,6.3454,6.3542,6.3747,6.3898,6.3849,6.3211,6.3112,6.3613,6.3613,6.387,6.4371,6.4701,6.4861,6.4971,6.5632,6.6402,6.7187,6.7554,6.77,6.77,6.77,6.77,6.77,6.77,6.766,6.7565,6.7414,6.7252,6.719,6.7048,6.691,6.6954,6.7083,6.721,6.7196,6.7126,6.7069,6.704,6.6961,6.6874,6.6859,6.6852,6.6822,6.6822,6.6822,6.6822,6.6822,6.6822,6.6822,6.6822,6.6822,6.6858,6.6822,6.6822,6.6822,6.6822,6.6822,6.6822,6.6822,6.6822,6.6822,6.6822,6.6822,6.6822,6.6822,6.6822,6.6822,6.6822,6.6822,6.6822,6.6822,6.6822,6.6822,6.6822,6.6822,6.6793,6.359,6.359,6.359,6.359,6.359,6.3545,6.35,6.337,6.3301,6.3171,6.3014,6.2953,6.288,6.2805,6.2793,6.2793,6.2793,6.2793,6.2793,6.2793,6.2793,6.2793,6.2818,6.2941,6.3002,6.3026,6.3123,6.3194,6.3291,6.3512,6.3672,6.3719,6.3978,6.414,6.4091,6.4197,6.4244,6.4232,6.4325,6.4396,6.4364,6.4657,6.4795,6.4648,6.402,6.3857,6.4457,6.4457,6.4714,6.5215,6.5545,6.5815,6.6109,6.6586,6.71,6.7627,6.77,6.77,6.77,6.77,6.77,6.77,6.77,6.7647,6.7497,6.7345,6.7154,6.7033,6.6874,6.6822,6.6815,6.6976,6.7054,6.7054,6.6968,6.6947,6.6932,6.6845,6.6837,6.6822,6.6822,6.6822,6.6822,6.6822,6.6931,6.7112,6.7003,6.6858,6.7112,6.7184,6.704,6.688,6.7112,6.704,6.6931,6.6822,6.6822,6.6822,6.6822,6.6822,6.6822,6.6822,6.6822,6.6822,6.6822,6.6822,6.6822,6.6822,6.6822,6.6822,6.6822,6.6822,6.6822,6.6822,6.6793,6.359,6.359,6.359,6.359,6.3557,6.3477,6.3382,6.3324,6.3123,6.3014,6.2966,6.2867,6.2805,6.2793,6.2793,6.2793,6.2793,6.2793,6.2793,6.2793,6.2793,6.2793,6.2805,6.2953,6.3051,6.3063,6.3184,6.3339,6.353,6.4234,6.4688,6.493,6.5499,6.5663,6.5802,6.5749,6.5872,6.575,6.5784,6.5835,6.5803,6.5694,6.5644,6.5519,6.5366,6.5338,6.5362,6.5325,6.5375,6.5508,6.6145,6.6893,6.737,6.759,6.7664,6.7664,6.77,6.77,6.77,6.77,6.77,6.77,6.77,6.7633,6.747,6.7294,6.714,6.7005,6.6874,6.6822,6.6822,6.6852,6.683,6.6786,6.6815,6.6815,6.6801,6.6822,6.6822,6.6895,6.7003,6.6858,6.6858,6.7076,6.7366,6.7764,6.751,6.7329,6.7873,6.8017,6.7655,6.7329,6.7402,6.7547,6.7148,6.6822,6.6822,6.6822,6.6822,6.6822,6.6822,6.6822,6.6822,6.6822,6.6822,6.6822,6.6822,6.6822,6.6822,6.6822,6.6822,6.6858,6.6822,6.6858,6.6895,6.359,6.359,6.359,6.3545,6.344,6.3442,6.3289,6.3123,6.3026,6.2953,6.2855,6.2818,6.2793,6.2793,6.2793,6.2793,6.2793,6.2793,6.2793,6.2793,6.2793,6.2793,6.283,6.3026,6.3218,6.3481,6.4021,6.4316,6.4499,6.5215,6.5647,6.5745,6.5968,6.6067,6.6106,6.6067,6.6056,6.6044,6.6105,6.5971,6.5877,6.6285,6.6456,6.6403,6.6702,6.6953,6.693,6.6402,6.6402,6.6893,6.7173,6.7444,6.7627,6.77,6.77,6.77,6.77,6.77,6.77,6.77,6.7737,6.77,6.77,6.7529,6.7322,6.7275,6.7134,6.6954,6.6801,6.6822,6.6822,6.6822,6.6822,6.6822,6.6822,6.6858,6.7003,6.7329,6.7568,6.7713,6.809,6.8199,6.7909,6.7981,6.8431,6.8721,6.854,6.854,6.8757,6.8829,6.8829,6.854,6.8416,6.7909,6.7402,6.6967,6.6822,6.6822,6.6822,6.6822,6.6822,6.6822,6.6822,6.6822,6.6822,6.6822,6.6822,6.6822,6.6822,6.704,6.7206,6.7133,6.6916,6.7076,6.7366,6.3568,6.3534,6.3534,6.3454,6.3301,6.3265,6.3159,6.3002,6.2953,6.288,6.2805,6.2793,6.2793,6.2793,6.2793,6.2793,6.2793,6.2793,6.2793,6.2793,6.2793,6.2793,6.283,6.3063,6.3534,6.4039,6.4556,6.4965,6.5336,6.6116,6.6562,6.6562,6.6822,6.7008,6.6971,6.6971,6.6971,6.7008,6.696,6.6839,6.6791,6.7073,6.7204,6.7135,6.7484,6.7664,6.7664,6.7173,6.7187,6.759,6.77,6.77,6.77,6.77,6.77,6.77,6.77,6.77,6.77,6.8031,6.8128,6.8164,6.838,6.8243,6.7887,6.7788,6.7833,6.7338,6.7278,6.7242,6.7242,6.7242,6.7148,6.6822,6.7112,6.7366,6.7655,6.8126,6.8416,6.8561,6.8866,6.8866,6.8757,6.8793,6.9337,6.9518,6.9373,6.9424,6.9518,6.9626,6.9481,6.9192,6.8721,6.8162,6.7583,6.7184,6.6858,6.6822,6.6822,6.6822,6.6822,6.6822,6.6822,6.6822,6.6822,6.6822,6.6822,6.6822,6.6822,6.7206,6.764,6.7764,6.78,6.8126,6.8358,6.3511,6.3382,6.337,6.3301,6.3171,6.3075,6.3014,6.2966,6.2855,6.2805,6.2793,6.2793,6.2793,6.2793,6.2793,6.2793,6.2793,6.2793,6.2793,6.2793,6.2793,6.2805,6.2892,6.3234,6.3867,6.4596,6.4965,6.5485,6.6191,6.6971,6.7379,6.7453,6.7973,6.8456,6.8271,6.8456,6.8296,6.8222,6.821,6.8061,6.7935,6.788,6.7786,6.7654,6.7664,6.77,6.7664,6.7627,6.7627,6.77,6.77,6.77,6.77,6.7737,6.7847,6.7884,6.7811,6.7994,6.8054,6.8605,6.8972,6.8995,6.9361,6.9535,6.8698,6.883,6.8813,6.8156,6.809,6.8039,6.8054,6.809,6.78,6.7293,6.7655,6.8199,6.9083,6.9264,6.9264,6.93,6.93,6.93,6.9337,6.9373,6.9844,7.0134,6.9952,6.9989,7.0242,7.0278,6.9699,6.9445,6.9321,6.8721,6.8235,6.7583,6.7221,6.6822,6.6822,6.6822,6.6808,6.6844,6.7025,6.6989,6.6829,6.6829,6.6808,6.6808,6.7112,6.7619,6.8054,6.8416,6.8757,6.8974,6.9047,6.3302,6.3242,6.3242,6.3171,6.3063,6.3014,6.2941,6.2855,6.2818,6.2793,6.2793,6.2793,6.2793,6.2793,6.2793,6.2793,6.2866,6.2829,6.2793,6.2793,6.2793,6.2917,6.3235,6.3811,6.4348,6.4967,6.5968,6.6785,6.7045,6.7751,6.8122,6.8196,6.8345,6.8531,6.8531,6.8518,6.8445,6.8358,6.8321,6.8183,6.7991,6.7939,6.7847,6.7714,6.77,6.77,6.77,6.77,6.77,6.77,6.77,6.77,6.7774,6.8238,6.8531,6.8641,6.9082,6.9412,6.9449,6.9633,6.9779,6.9765,6.9919,6.9718,6.934,6.9346,6.9234,6.8896,6.8902,6.8866,6.8866,6.8866,6.8938,6.93,6.8706,6.8669,6.9735,7.0097,7.0061,7.0134,7.0517,7.048,7.0315,7.048,7.0842,7.1024,7.0951,7.077,7.0987,7.106,7.0553,7.0589,7.0408,6.9626,6.8902,6.8162,6.7532,6.6967,6.6822,6.6895,6.688,6.688,6.7242,6.7496,6.7095,6.6972,6.685,6.6808,6.7351,6.787,6.8443,6.8826,6.9234,6.9518,6.959,6.3159,6.3111,6.3111,6.3039,6.2929,6.2917,6.2867,6.2805,6.2793,6.2793,6.2793,6.2793,6.2793,6.2793,6.2793,6.3013,6.3319,6.3356,6.3539,6.3857,6.3894,6.3823,6.3911,6.4512,6.5224,6.5836,6.6798,6.7416,6.7788,6.8308,6.8493,6.8481,6.8445,6.8445,6.8481,6.8383,6.8334,6.8284,6.8208,6.8055,6.7926,6.786,6.7781,6.7714,6.77,6.77,6.77,6.77,6.77,6.77,6.77,6.7847,6.8201,6.8605,6.9032,6.9376,6.9853,7.0073,7.0183,7.0403,7.0596,7.0598,7.0616,7.0493,7.0221,7.013,7.0195,6.975,6.9699,6.9699,6.9626,6.9409,6.9771,7.0408,6.9756,6.9539,7.0749,7.0879,7.0858,7.0967,7.1205,7.1386,7.0879,7.1277,7.1422,7.1494,7.1422,7.1386,7.1458,7.1494,7.1386,7.1132,7.0842,7.0061,6.9409,6.8742,6.8168,6.7553,6.7321,6.7263,6.7327,6.7363,6.7659,6.7918,6.7403,6.7099,6.7114,6.7129,6.7285,6.7868,6.8579,6.9312,6.9813,7.0092,7.0144,6.3271,6.2978,6.31,6.299,6.2842,6.2793,6.2805,6.2793,6.2793,6.2793,6.2793,6.2793,6.2793,6.2793,6.2829,6.3196,6.387,6.387,6.4494,6.4884,6.5154,6.5072,6.4732,6.5385,6.6125,6.6827,6.7233,6.7801,6.8258,6.8456,6.8493,6.8469,6.8371,6.8358,6.8396,6.8259,6.8183,6.8183,6.8043,6.8036,6.8007,6.7891,6.7787,6.7958,6.7737,6.77,6.77,6.77,6.7737,6.7847,6.7847,6.8201,6.8811,6.8972,6.9522,7.0146,7.044,7.055,7.0499,7.1109,7.1346,7.1326,7.164,7.1657,7.1011,7.1039,7.1039,7.0532,7.0496,7.0496,7.0423,6.988,7.0206,7.1024,7.077,7.0879,7.1313,7.1494,7.1494,7.1494,7.1494,7.1494,7.1494,7.1494,7.1494,7.1494,7.1494,7.1494,7.1494,7.1494,7.1277,7.0951,7.0641,7.0315,6.9808,6.9337,6.882,6.8283,6.8108,6.8057,6.8197,6.8275,6.8409,6.8378,6.8095,6.7817,6.7677,6.7662,6.7631,6.8166,6.9109,6.9933,7.065,7.0746,7.083,6.4067,6.2879,6.359,6.3454,6.2866,6.2793,6.2829,6.2793,6.2793,6.2793,6.2793,6.2793,6.2793,6.2793,6.2793,6.2939,6.3392,6.398,6.453,6.5288,6.5999,6.6159,6.6027,6.6377,6.6666,6.7198,6.779,6.8198,6.8457,6.8457,6.8531,6.8457,6.8334,6.8296,6.8296,6.8183,6.8031,6.8004,6.7926,6.8141,6.8355,6.7984,6.7958,6.8348,6.7994,6.7737,6.77,6.77,6.7981,6.8458,6.8715,6.8862,6.9229,7.0096,7.072,7.105,7.1615,7.1908,7.1953,7.1955,7.205,7.1941,7.1827,7.1775,7.1635,7.1443,7.1438,7.1277,7.1241,7.1168,7.1132,7.1096,7.1096,7.135,7.135,7.1277,7.1458,7.1494,7.1494,7.1494,7.1494,7.1494,7.1494,7.1494,7.1494,7.1494,7.1494,7.1494,7.1494,7.1494,7.1313,7.1024,7.0951,7.0734,7.0372,6.9906,6.9374,6.9002,6.8811,6.8698,6.8888,6.9109,6.9205,6.9065,6.8838,6.8558,6.8299,6.8203,6.8167,6.8918,6.9545,7.0116,7.0633,7.1018,7.1292,6.4457,6.404,6.4481,6.4163,6.3503,6.338,6.3172,6.2866,6.2793,6.2793,6.2793,6.2793,6.2793,6.2793,6.2866,6.316,6.415,6.5228,6.6012,6.6512,6.6916,6.7026,6.7076,6.7156,6.7299,6.7553,6.7924,6.8222,6.8309,6.8284,6.8309,6.8309,6.8196,6.8158,6.817,6.803,6.7889,6.7913,6.7847,6.7988,6.8178,6.7994,6.7811,6.8214,6.7958,6.7847,6.8238,6.8288,6.8715,6.9339,6.9765,6.9986,7.0059,7.083,7.1417,7.1894,7.2202,7.2496,7.2452,7.2351,7.2248,7.2159,7.1918,7.1765,7.1672,7.1562,7.1494,7.1494,7.1494,7.1494,7.1494,7.1494,7.1494,7.1494,7.1494,7.1494,7.1494,7.1494,7.1494,7.1494,7.1494,7.1494,7.1494,7.1494,7.1494,7.1494,7.1494,7.1494,7.1494,7.1494,7.1494,7.1386,7.1422,7.1277,7.0935,7.049,6.9963,6.9631,6.9429,6.9337,6.9353,6.9656,6.996,6.9731,6.947,6.9121,6.8857,6.8779,6.874,6.9105,6.9587,7.0083,7.0508,7.0878,7.115,6.4897,6.5325,6.5325,6.4824,6.4139,6.3906,6.3539,6.3086,6.2829,6.2903,6.2939,6.2903,6.2793,6.2829,6.3025,6.3967,6.5398,6.6512,6.7113,6.7444,6.748,6.7554,6.759,6.758,6.767,6.7886,6.803,6.8094,6.8095,6.8083,6.8133,6.8083,6.7954,6.8004,6.798,6.786,6.7767,6.7834,6.7767,6.7898,6.7958,6.7884,6.7737,6.7774,6.8031,6.8238,6.8715,6.9009,6.9449,7.0257,7.094,7.1307,7.1454,7.1527,7.1711,7.2445,7.2496,7.2467,7.2409,7.2307,7.2159,7.1973,7.1842,7.1687,7.1578,7.1531,7.1494,7.1494,7.1494,7.1494,7.1494,7.1494,7.1494,7.1494,7.1494,7.1494,7.1494,7.1494,7.1494,7.1494,7.1494,7.1494,7.1494,7.1494,7.1494,7.1494,7.1494,7.1494,7.1494,7.1494,7.1494,7.1494,7.1494,7.1452,7.1146,7.0875,7.0362,7.0158,6.9989,6.9895,6.9854,7.0052,7.0284,7.0305,7.0095,6.9706,6.9458,6.9366,6.9385,6.9444,6.9691,7.0202,7.0503,7.0716,7.0952,6.6402,6.5325,6.5325,6.4861,6.4066,6.3356,6.3466,6.3723,6.3196,6.3233,6.3759,6.316,6.2866,6.3013,6.3613,6.4787,6.6035,6.6806,6.7187,6.7627,6.77,6.77,6.77,6.77,6.7714,6.7767,6.7886,6.7954,6.8031,6.8083,6.8031,6.8044,6.7928,6.7926,6.7886,6.7794,6.7714,6.7754,6.7714,6.7958,6.8201,6.7981,6.7774,6.7847,6.8311,6.8788,6.9082,6.9633,7.0257,7.0977,7.1197,7.1674,7.2041,7.2224,7.2298,7.2459,7.2496,7.2452,7.2336,7.2174,7.2009,7.1826,7.1687,7.1593,7.1494,7.1494,7.1494,7.1494,7.1494,7.1494,7.1494,7.1494,7.1494,7.1494,7.1494,7.1494,7.1494,7.1494,7.1494,7.1494,7.1494,7.1494,7.1494,7.1494,7.1494,7.1494,7.1494,7.1494,7.1494,7.1494,7.1494,7.1494,7.1494,7.1436,7.1268,7.1054,7.0744,7.0593,7.0422,7.0339,7.0329,7.0404,7.0477,7.0475,7.0475,7.0263,7.005,6.9943,6.9979,7.0015,7.0157,7.03,7.0475,7.0667,7.0752,6.6476,6.6512,6.6109,6.5705,6.5228,6.4444,6.4297,6.464,6.4297,6.4334,6.4383,6.387,6.371,6.4004,6.398,6.5007,6.6256,6.7003,6.7333,6.7664,6.77,6.77,6.77,6.77,6.77,6.7714,6.7781,6.7834,6.7899,6.7899,6.7926,6.7886,6.782,6.7807,6.7794,6.7741,6.77,6.77,6.7737,6.7884,6.8238,6.7847,6.7921,6.8348,6.8752,6.9288,7.0132,7.044,7.1101,7.1711,7.1931,7.2114,7.2386,7.2532,7.2496,7.2496,7.2481,7.2423,7.2314,7.2129,7.1927,7.1796,7.1625,7.151,7.1494,7.1494,7.1531,7.1531,7.1494,7.1494,7.1494,7.1531,7.1494,7.1494,7.1531,7.1531,7.1531,7.1531,7.1567,7.1567,7.1531,7.1531,7.1494,7.1494,7.1494,7.1494,7.1494,7.1494,7.1494,7.1494,7.1494,7.1467,7.1436,7.1276,7.1162,7.0999,7.0867,7.0785,7.0701,7.0616,7.0565,7.0531,7.0514,7.0496,7.0514,7.0514,7.0443,7.0229,7.0407,7.0514,7.0443,7.0407,7.0496,7.0582,7.0667,6.6549,6.7627,6.6843,6.6512,6.6366,6.5448,6.5215,6.5435,6.5105,6.5154,6.5448,6.4751,6.4677,6.5044,6.5044,6.5411,6.6733,6.7444,6.7627,6.7664,6.77,6.77,6.77,6.77,6.77,6.77,6.7714,6.77,6.7741,6.7741,6.7714,6.7727,6.7714,6.77,6.77,6.77,6.77,6.77,6.77,6.77,6.77,6.7884,6.8201,6.8935,6.9178,7.0059,7.0977,7.1417,7.1784,7.2239,7.2459,7.2496,7.2496,7.2532,7.2481,7.2452,7.2489,7.2402,7.2218,7.2069,7.1851,7.1703,7.1609,7.1546,7.1494,7.1531,7.1567,7.1675,7.1531,7.1675,7.1784,7.1639,7.1639,7.182,7.1805,7.182,7.2038,7.2074,7.1913,7.182,7.1639,7.1531,7.1494,7.1494,7.1494,7.1494,7.1494,7.1494,7.1494,7.1494,7.1463,7.1404,7.1292,7.1114,7.1002,7.0852,7.0716,7.0684,7.0616,7.0548,7.0531,7.0514,7.0478,7.0478,7.0514,7.0514,7.0514,7.0514,7.0514,7.0514,7.0514,7.0514,7.0514,7.0531,7.0582,6.7517,6.7627,6.6843,6.6512,6.6292,6.4971,6.5118,6.6145,6.5007,6.5081,6.6292,6.5521,6.5191,6.5448,6.5999,6.6696,6.7333,6.759,6.77,6.77,6.77,6.77,6.77,6.77,6.77,6.77,6.77,6.77,6.77,6.77,6.77,6.77,6.77,6.77,6.77,6.77,6.77,6.77,6.77,6.77,6.7811,6.8311,6.8752,6.9265,7.0132,7.1013,7.1454,7.1894,7.2386,7.2422,7.2532,7.2532,7.2532,7.2532,7.2409,7.2336,7.2277,7.2218,7.2054,7.1918,7.1765,7.1625,7.151,7.1494,7.1494,7.1567,7.1748,7.2509,7.2001,7.1949,7.2311,7.1949,7.2022,7.2239,7.2456,7.2818,7.3072,7.211,7.1986,7.1913,7.1712,7.1567,7.1494,7.1494,7.1494,7.1494,7.1494,7.1479,7.1447,7.1415,7.1356,7.1227,7.1114,7.0969,7.0852,7.0684,7.065,7.0582,7.0548,7.0478,7.03,7.0264,7.0407,7.0407,7.0443,7.0478,7.0514,7.0514,7.0514,7.0514,7.0514,7.0514,7.0514,7.0514,7.0531,6.77,6.759,6.6366,6.6366,6.6916,6.5448,6.5668,6.6696,6.5999,6.6122,6.6769,6.5852,6.5508,6.6072,6.6806,6.7333,6.7664,6.77,6.77,6.77,6.77,6.77,6.77,6.77,6.77,6.77,6.77,6.77,6.77,6.77,6.77,6.77,6.77,6.77,6.77,6.77,6.77,6.77,6.77,6.77,6.7921,6.8495,6.9155,6.9596,7.0756,7.1417,7.1931,7.2239,7.2496,7.2532,7.2532,7.2489,7.2431,7.2387,7.2307,7.2122,7.2039,7.2,7.1909,7.1811,7.1687,7.1578,7.1494,7.1494,7.1494,7.1567,7.1841,7.2617,7.24,7.2581,7.3144,7.3036,7.3108,7.3181,7.3072,7.3072,7.3144,7.24,7.1857,7.182,7.1748,7.1603,7.1479,7.1499,7.1499,7.1515,7.1499,7.1452,7.1356,7.1207,7.113,7.1002,7.0902,7.0785,7.0684,7.0565,7.0582,7.0548,7.0548,7.0371,7.0015,6.9962,7.0229,7.0283,7.0247,7.0336,7.0443,7.0514,7.0514,7.0514,7.0514,7.0514,7.0514,7.0514,7.0531,6.77,6.759,6.6402,6.6512,6.726,6.5875,6.5925,6.693,6.6366,6.6586,6.7026,6.6402,6.6292,6.6769,6.737,6.7627,6.77,6.77,6.77,6.77,6.77,6.77,6.77,6.77,6.77,6.77,6.8031,6.7921,6.7811,6.7884,6.7981,6.77,6.77,6.77,6.77,6.7737,6.7774,6.8091,6.8091,6.8201,6.8531,6.9192,6.9816,7.0477,7.1174,7.1894,7.2386,7.2496,7.2496,7.2496,7.2438,7.2402,7.2343,7.2233,7.2129,7.1994,7.1872,7.1832,7.1734,7.1687,7.164,7.1578,7.1494,7.1494,7.1494,7.1531,7.2022,7.2963,7.271,7.3181,7.3868,7.4013,7.3941,7.376,7.3559,7.3362,7.3036,7.242,7.2074,7.2094,7.1949,7.1603,7.1479,7.1467,7.1483,7.1515,7.1467,7.1388,7.1243,7.1081,7.0949,7.0852,7.0735,7.065,7.0599,7.0514,7.0514,7.0514,7.0514,7.0371,7.0015,7.005,7.03,7.0247,7.0033,7.03,7.0514,7.0514,7.0514,7.0514,7.0514,7.0514,7.0514,7.0514,7.0514,6.77,6.77,6.7554,6.7113,6.6549,6.5668,6.5362,6.5765,6.5508,6.5912,6.6733,6.7136,6.737,6.759,6.759,6.77,6.77,6.77,6.77,6.77,6.77,6.77,6.77,6.77,6.77,6.7811,6.8238,6.8238,6.8031,6.8385,6.8201,6.7811,6.77,6.77,6.7774,6.7847,6.8164,6.8568,6.8752,6.9155,6.9743,7.0403,7.0977,7.1233,7.1894,7.2459,7.2532,7.2481,7.2467,7.2452,7.2351,7.2263,7.2225,7.2099,7.1964,7.1826,7.1765,7.1687,7.1609,7.1578,7.151,7.1494,7.1494,7.1494,7.1494,7.1494,7.2203,7.3289,7.3072,7.3579,7.4194,7.452,7.4629,7.4339,7.4086,7.3724,7.3325,7.2674,7.24,7.242,7.213,7.166,7.1452,7.1404,7.1404,7.1436,7.1243,7.1162,7.1048,7.09,7.0852,7.0735,7.0616,7.0548,7.0531,7.0514,7.0514,7.0514,7.0514,7.0336,7.0086,7.0193,7.0105,6.9872,6.9658,7.0086,7.0478,7.0478,7.0443,7.0478,7.0514,7.0514,7.0514,7.0514,7.0514,6.77,6.77,6.77,6.726,6.6416,6.5118,6.5118,6.5852,6.5545,6.5778,6.6586,6.7297,6.77,6.77,6.77,6.77,6.77,6.77,6.77,6.77,6.77,6.77,6.77,6.77,6.77,6.7907,6.8495,6.8495,6.7884,6.8641,6.8311,6.7958,6.7737,6.77,6.7774,6.8128,6.8641,6.8972,6.9412,6.9853,7.011,7.083,7.1307,7.138,7.2078,7.2459,7.2481,7.2394,7.2402,7.2358,7.2204,7.2099,7.2009,7.1918,7.1811,7.1672,7.164,7.1593,7.1546,7.1531,7.1494,7.1494,7.1494,7.1531,7.1531,7.1494,7.2038,7.2746,7.3362,7.3832,7.4701,7.5208,7.5442,7.5027,7.452,7.3977,7.3398,7.269,7.2255,7.2058,7.1825,7.1519,7.1404,7.1324,7.134,7.134,7.1166,7.0969,7.0869,7.075,7.0701,7.0667,7.0565,7.0531,7.0514,7.0514,7.0514,7.0514,7.0514,7.0264,7.0015,6.9676,6.9569,6.932,6.9337,6.9748,7.0105,7.03,7.0371,7.03,7.0407,7.0514,7.0514,7.0514,7.0514,6.77,6.7664,6.7444,6.688,6.6035,6.5191,6.5154,6.5668,6.5729,6.6109,6.688,6.748,6.77,6.77,6.77,6.77,6.77,6.77,6.77,6.77,6.77,6.77,6.7774,6.7958,6.8164,6.8274,6.9045,6.9302,6.8655,6.9045,6.8788,6.8311,6.7811,6.77,6.7884,6.8458,6.9105,6.9669,7.0073,7.066,7.0881,7.1358,7.1711,7.1733,7.2232,7.2372,7.2365,7.2277,7.2218,7.2144,7.2054,7.1903,7.1811,7.1718,7.164,7.1578,7.1494,7.1494,7.1531,7.1784,7.1712,7.1567,7.1857,7.1748,7.1567,7.1531,7.1929,7.2653,7.3253,7.3941,7.4846,7.5136,7.5281,7.481,7.3868,7.3289,7.2871,7.2291,7.1929,7.1639,7.1463,7.1431,7.1292,7.1179,7.1117,7.1117,7.1018,7.0836,7.0718,7.0633,7.0582,7.0548,7.0531,7.0514,7.0514,7.0514,7.0514,7.0514,7.0443,7.0122,6.9836,6.9534,6.9498,6.9658,6.9693,6.9641,6.9783,7.0069,7.0122,7.0086,7.0122,7.0105,7.0514,7.0514,7.0514,6.77,6.759,6.688,6.6145,6.5582,6.6145,6.5632,6.4947,6.5925,6.688,6.7517,6.77,6.77,6.77,6.77,6.77,6.77,6.77,6.77,6.77,6.77,6.77,6.7921,6.8201,6.8385,6.9192,6.9706,6.9963,6.9596,6.9559,6.9265,6.8715,6.8091,6.7884,6.7811,6.8531,6.9706,7.0977,7.116,7.1637,7.2018,7.2239,7.2261,7.2277,7.2292,7.2321,7.2248,7.2114,7.2039,7.2009,7.1872,7.1765,7.1734,7.1625,7.1526,7.1494,7.1494,7.1531,7.1551,7.2255,7.2219,7.1748,7.2001,7.2167,7.1675,7.1567,7.182,7.2617,7.2963,7.3651,7.4194,7.4629,7.481,7.4267,7.3325,7.271,7.2327,7.2001,7.1675,7.1467,7.1483,7.1452,7.1227,7.1051,7.0869,7.0838,7.0838,7.0718,7.0582,7.0548,7.0514,7.0514,7.0514,7.0514,7.0514,7.0514,7.0514,7.0514,7.0371,7.0086,6.9943,6.9819,6.9855,7.0015,6.9907,6.9676,6.9712,6.9855,6.9783,6.9712,6.9569,6.9641,7.0105,7.0514,7.0514,6.77,6.7664,6.7407,6.6843,6.6109,6.5778,6.5632,6.5888,6.6783,6.7444,6.7664,6.77,6.77,6.77,6.77,6.77,6.77,6.77,6.77,6.77,6.77,6.77,6.7847,6.8017,6.8201,6.8385,6.9155,6.9486,6.8398,6.9119,6.8862,6.8214,6.8348,6.8531,6.8715,6.9302,7.0293,7.1197,7.1747,7.2239,7.2496,7.2481,7.2438,7.2387,7.2329,7.2204,7.2114,7.1948,7.1872,7.1857,7.1703,7.164,7.1625,7.1494,7.1494,7.1494,7.1531,7.1784,7.2275,7.2855,7.2782,7.2311,7.2275,7.2493,7.1675,7.1531,7.1965,7.2581,7.3036,7.3651,7.405,7.4629,7.4665,7.3543,7.271,7.2348,7.2001,7.1748,7.1479,7.1404,7.1356,7.1195,7.1035,7.0886,7.0718,7.065,7.065,7.0633,7.0531,7.0531,7.0514,7.0514,7.0514,7.0514,7.0514,7.0514,7.0514,7.0514,7.0354,7.0105,7.0033,7.0033,6.9622,6.9444,6.9534,6.9676,6.9498,6.9355,6.9391,6.932,6.9248,6.9569,7.0212,7.0514,7.0514,6.77,6.77,6.77,6.7407,6.688,6.6366,6.6476,6.6953,6.748,6.77,6.77,6.77,6.77,6.77,6.77,6.77,6.77,6.77,6.77,6.77,6.77,6.77,6.7737,6.7958,6.8311,6.8311,6.8752,6.9082,6.8825,6.8825,6.8495,6.8178,6.8495,6.8972,6.9412,7.011,7.0917,7.1674,7.2239,7.2422,7.2518,7.2438,7.2365,7.2277,7.221,7.2039,7.1933,7.1811,7.1687,7.1656,7.1609,7.1494,7.1494,7.1494,7.1494,7.1494,7.1567,7.1929,7.2601,7.3398,7.3217,7.269,7.3108,7.2927,7.2311,7.2311,7.2167,7.2565,7.3108,7.3362,7.3615,7.4231,7.3651,7.2529,7.2311,7.1965,7.1752,7.1535,7.142,7.1308,7.1162,7.1018,7.0836,7.0684,7.0548,7.0531,7.0514,7.0514,7.0514,7.0514,7.0514,7.0514,7.0514,7.0514,7.0514,7.0514,7.0514,7.0514,7.0354,7.0212,7.0176,7.0157,6.9515,6.9087,6.9605,6.9819,6.9122,6.8873,6.8927,6.9034,6.9141,6.9605,7.0336,7.0514,7.0514,6.77,6.77,6.77,6.77,6.7664,6.7517,6.759,6.7664,6.77,6.77,6.77,6.77,6.77,6.77,6.77,6.77,6.77,6.77,6.77,6.77,6.77,6.77,6.7921,6.8274,6.8348,6.8862,6.9192,6.9155,6.9706,6.8972,6.8238,6.8104,6.8678,6.9302,7.0,7.0816,7.1572,7.2144,7.2284,7.2394,7.2365,7.2307,7.2233,7.2166,7.203,7.1857,7.1749,7.164,7.1578,7.151,7.1494,7.1494,7.1494,7.1494,7.1494,7.1494,7.1494,7.2001,7.2818,7.3651,7.4122,7.3957,7.4448,7.4013,7.3217,7.2746,7.2456,7.2327,7.2617,7.2726,7.2907,7.2653,7.2364,7.2001,7.1893,7.1696,7.154,7.1404,7.1308,7.1179,7.1032,7.0867,7.0752,7.0599,7.0514,7.0514,7.0514,7.0514,7.0514,7.0514,7.0514,7.0514,7.0514,7.0514,7.0514,7.0514,7.0514,7.0514,7.0514,7.0407,7.0371,7.0336,7.0015,6.9872,7.0193,6.9943,6.8908,6.848,6.848,6.8658,6.9213,6.9712,7.0443,7.0478,7.0514,6.77,6.77,6.77,6.77,6.77,6.77,6.77,6.77,6.77,6.77,6.77,6.77,6.77,6.77,6.77,6.77,6.77,6.77,6.77,6.77,6.77,6.77,6.7811,6.7994,6.8068,6.8141,6.8361,6.8568,6.8398,6.8104,6.8068,6.7921,6.9032,6.9729,7.0421,7.1354,7.1911,7.2234,7.2211,7.2218,7.2204,7.2093,7.2054,7.197,7.1878,7.1718,7.1609,7.1542,7.1494,7.1494,7.1494,7.1494,7.1494,7.1494,7.1494,7.1494,7.1639,7.2038,7.3253,7.376,7.4231,7.4863,7.5136,7.4158,7.3233,7.2565,7.2436,7.2327,7.24,7.2617,7.2545,7.2255,7.1897,7.17,7.1612,7.1508,7.1388,7.126,7.1182,7.0985,7.08,7.0733,7.0616,7.0582,7.0514,7.0514,7.0514,7.0514,7.0514,7.0514,7.0514,7.0514,7.0514,7.0514,7.0514,7.0514,7.0514,7.0514,7.0514,7.0514,7.0478,7.0443,7.0478,7.0371,7.0176,6.9444,6.8409,6.8337,6.8694,6.9158,6.9641,7.0069,7.0426,7.0478,7.0497,6.77,6.77,6.77,6.77,6.77,6.77,6.77,6.77,6.77,6.77,6.77,6.77,6.77,6.77,6.77,6.77,6.77,6.77,6.77,6.77,6.77,6.77,6.77,6.77,6.7737,6.77,6.77,6.7884,6.77,6.7724,6.776,6.8216,6.9476,7.002,7.0631,7.1413,7.196,7.2069,7.2054,7.1988,7.1973,7.1927,7.1857,7.1796,7.177,7.1625,7.151,7.1494,7.1494,7.1494,7.1494,7.1494,7.1494,7.1494,7.1494,7.1494,7.1531,7.211,7.3016,7.3289,7.4175,7.4754,7.4665,7.3724,7.3269,7.2782,7.2472,7.2255,7.2472,7.2617,7.2384,7.2167,7.1793,7.1508,7.1424,7.1356,7.1243,7.115,7.0952,7.0735,7.0616,7.0565,7.0514,7.0514,7.0514,7.0514,7.0514,7.0514,7.0514,7.0514,7.0514,7.0514,7.0514,7.0514,7.0514,7.0514,7.0514,7.0514,7.0514,7.0514,7.0514,7.0478,7.0478,7.0193,6.9855,6.9141,6.8587,6.8856,6.9213,6.9605,6.9926,7.0264,7.0478,7.0478,7.0497,6.77,6.77,6.77,6.77,6.77,6.77,6.77,6.77,6.77,6.77,6.77,6.77,6.77,6.77,6.77,6.77,6.77,6.77,6.77,6.77,6.77,6.77,6.77,6.77,6.77,6.77,6.77,6.77,6.77,6.7844,6.8188,6.8663,6.9614,7.0266,7.0785,7.146,7.1872,7.1909,7.1903,7.1866,7.1851,7.1826,7.1786,7.1755,7.1625,7.1494,7.1494,7.1494,7.1494,7.1494,7.1494,7.1494,7.1494,7.1494,7.1494,7.1494,7.1494,7.2038,7.2617,7.2891,7.3325,7.3543,7.3233,7.2963,7.2855,7.2637,7.2291,7.2001,7.211,7.211,7.1929,7.1793,7.1548,7.1376,7.1292,7.1179,7.1032,7.0936,7.0769,7.0599,7.0565,7.0514,7.0514,7.0514,7.0514,7.0514,7.0514,7.0514,7.0514,7.0514,7.0514,7.0514,7.0514,7.0514,7.0514,7.0514,7.0514,7.0514,7.0514,7.0514,7.0514,7.0478,7.0478,7.005,6.9569,6.9462,6.9177,6.932,6.9427,6.9748,7.0033,7.0371,7.0514,7.0514,7.0497,6.77,6.77,6.77,6.77,6.77,6.77,6.77,6.77,6.77,6.77,6.77,6.77,6.77,6.77,6.77,6.77,6.77,6.7847,6.77,6.7737,6.7737,6.7774,6.77,6.77,6.77,6.77,6.77,6.77,6.776,6.8069,6.8449,6.8795,6.9784,7.0631,7.087,7.1484,7.1749,7.1786,7.1703,7.1682,7.1651,7.1604,7.1578,7.1578,7.1494,7.1494,7.1494,7.1494,7.1494,7.1494,7.1494,7.1494,7.1494,7.1494,7.1494,7.1494,7.1531,7.1913,7.2311,7.2617,7.2927,7.3253,7.3144,7.2855,7.2581,7.2275,7.2022,7.1768,7.1639,7.1603,7.1571,7.144,7.1308,7.1243,7.1162,7.0999,7.0869,7.0718,7.0582,7.0548,7.0514,7.0514,7.0514,7.0514,7.0514,7.0514,7.0514,7.0514,7.0514,7.0514,7.0514,7.0514,7.0514,7.0514,7.0514,7.0514,7.0514,7.0514,7.0514,7.0514,7.0514,7.0478,7.0443,6.9783,6.9355,6.9462,6.9498,6.9355,6.9534,6.9926,7.014,7.0443,7.0514,7.0514,7.0514,6.77,6.77,6.77,6.77,6.77,6.77,6.77,6.77,6.77,6.77,6.77,6.77,6.77,6.77,6.77,6.77,6.7774,6.8128,6.7958,6.7847,6.7958,6.7958,6.7884,6.77,6.77,6.77,6.77,6.7724,6.7807,6.839,6.882,6.9163,7.0201,7.0913,7.1078,7.1485,7.1672,7.1656,7.1526,7.1494,7.1494,7.1494,7.1494,7.1494,7.1494,7.1494,7.1494,7.1494,7.1494,7.1494,7.1494,7.1494,7.1494,7.1494,7.1494,7.1494,7.1567,7.1696,7.2058,7.2311,7.2456,7.2601,7.2601,7.211,7.2058,7.1768,7.1784,7.1567,7.1567,7.1531,7.1456,7.1324,7.1146,7.1032,7.0985,7.0869,7.0735,7.0564,7.0531,7.0531,7.0514,7.0514,7.0514,7.0514,7.0514,7.0514,7.0514,7.0514,7.0514,7.0514,7.0514,7.0514,7.0514,7.0514,7.0514,7.0514,7.0514,7.0514,7.0514,7.0514,7.0514,7.0514,7.0336,6.9962,6.9783,6.989,6.9872,6.9712,6.9855,7.0247,7.0407,7.0478,7.0514,7.0514,7.0514,6.77,6.77,6.77,6.77,6.77,6.77,6.77,6.77,6.77,6.77,6.77,6.77,6.77,6.77,6.77,6.77,6.7811,6.8104,6.8031,6.7994,6.8325,6.8068,6.7811,6.77,6.77,6.7687,6.766,6.766,6.7683,6.8476,6.9222,6.9697,7.0359,7.1084,7.1392,7.1494,7.1546,7.1562,7.1494,7.1494,7.1494,7.1494,7.1494,7.1494,7.1494,7.1494,7.1494,7.1494,7.1494,7.1494,7.1494,7.1494,7.1494,7.1494,7.1494,7.1494,7.1494,7.1567,7.1639,7.1675,7.1675,7.1603,7.1494,7.1531,7.1515,7.1515,7.1515,7.1483,7.1483,7.1436,7.134,7.1215,7.1018,7.0886,7.0802,7.0718,7.0616,7.0478,7.0514,7.0514,7.0514,7.0514,7.0514,7.0514,7.0514,7.0514,7.0514,7.0514,7.0514,7.0514,7.0514,7.0514,7.0514,7.0514,7.0514,7.0514,7.0514,7.0514,7.0514,7.0514,7.0514,7.0514,7.0514,7.0478,7.0371,7.0229,7.03,7.0264,7.0443,7.0478,7.0514,7.0514,7.0514,7.0514,7.0514,6.77,6.77,6.77,6.77,6.77,6.77,6.77,6.77,6.77,6.77,6.77,6.77,6.77,6.77,6.77,6.77,6.7737,6.8068,6.7958,6.7811,6.8114,6.7944,6.771,6.7633,6.7687,6.7647,6.7565,6.7524,6.7767,6.869,6.9318,6.9499,7.0816,7.1355,7.1433,7.1494,7.1494,7.1494,7.1494,7.1494,7.1494,7.1494,7.1494,7.1494,7.1494,7.1494,7.1494,7.1494,7.1494,7.1494,7.1494,7.1494,7.1494,7.1494,7.1494,7.1494,7.1494,7.1494,7.1494,7.1494,7.1494,7.1494,7.1494,7.1494,7.1515,7.1499,7.1467,7.1356,7.134,7.1308,7.1179,7.1018,7.0819,7.0752,7.0684,7.0616,7.0531,7.0514,7.0514,7.0514,7.0514,7.0514,7.0514,7.0514,7.0514,7.0514,7.0514,7.0514,7.0514,7.0514,7.0514,7.0514,7.0514,7.0514,7.0514,7.0514,7.0514,7.0514,7.0407,7.0264,7.0264,7.0478,7.0478,7.0264,7.03,7.0264,7.0371,7.0407,7.0443,7.0443,7.0478,7.0514,7.0497,7.0375,7.0289]}]]